[[{"header":{"parameterUnit":"m.s-1","parameterCategory":1,"la1":30.6,"la2":28.766,"lo1":-90.7593,"lo2":-88.6598,"dy":0.0162,"dx":0.0183,"nx":116,"ny":114,"refTime":"2024-03-09T06:00:00:Z","depth":0,"parameterNumber":2,"parameterNumberName":"U-component_of_WINDS"},"data":[0.0,0.0,0.0,0.0,0.0,0.0,0.0,0.0,0.0,0.0,0.0,0.0,0.0,0.0,0.0,0.0,0.0,0.0,0.0,0.0,0.0,0.0,0.0,0.0,0.0,0.0,0.0,0.0,0.0,0.0,0.0,0.0,0.0,0.0,0.0,0.0,0.0,0.0,0.0,0.0,0.0,0.0,0.0,0.0,0.0,0.0,0.0,0.0,0.0,0.0,0.0,0.0,0.0,0.0,0.0,0.0,0.0,0.0,0.0,0.0,0.0,0.0,0.0,0.0,0.0,0.0,0.0,0.0,0.0,0.0,0.0,0.0,0.0,0.0,0.0,0.0,0.0,0.0,0.0,0.0,0.0,0.0,0.0,0.0,0.0,0.0,0.0,0.0,0.0,0.0,0.0,0.0,0.0,0.0,0.0,0.0,0.0,0.0,0.0,0.0,0.0,0.0,0.0,0.0,0.0,0.0,0.0,0.0,0.0,0.0,0.0,0.0,0.0,0.0,0.0,0.0,0.0,0.0,0.0,0.0,0.0,0.0,0.0,0.0,0.0,0.0,0.0,0.0,0.0,0.0,0.0,0.0,0.0,0.0,0.0,0.0,0.0,0.0,0.0,0.0,0.0,0.0,0.0,0.0,0.0,0.0,0.0,0.0,0.0,0.0,0.0,0.0,0.0,0.0,0.0,0.0,0.0,0.0,0.0,0.0,0.0,0.0,0.0,0.0,0.0,0.0,0.0,0.0,0.0,0.0,0.0,0.0,0.0,0.0,0.0,0.0,0.0,0.0,0.0,0.0,0.0,0.0,0.0,0.0,0.0,0.0,0.0,0.0,0.0,0.0,0.0,0.0,0.0,0.0,0.0,0.0,0.0,0.0,0.0,0.0,0.0,0.0,0.0,0.0,0.0,0.0,0.0,0.0,0.0,0.0,0.0,0.0,0.0,0.0,0.0,0.0,0.0,0.0,0.0,0.0,0.0,0.0,0.0,0.0,0.0,0.0,0.0,0.0,0.0,0.0,0.0,0.0,0.0,0.0,0.0,0.0,0.0,0.0,0.0,0.0,0.0,0.0,0.0,0.0,0.0,0.0,0.0,0.0,0.0,0.0,0.0,0.0,0.0,0.0,0.0,0.0,0.0,0.0,0.0,0.0,0.0,0.0,0.0,0.0,0.0,0.0,0.0,0.0,0.0,0.0,0.0,0.0,0.0,0.0,0.0,0.0,0.0,0.0,0.0,0.0,0.0,0.0,0.0,0.0,0.0,0.0,0.0,0.0,0.0,0.0,0.0,0.0,0.0,0.0,0.0,0.0,0.0,0.0,0.0,0.0,0.0,0.0,0.0,0.0,0.0,0.0,0.0,0.0,0.0,0.0,0.0,0.0,0.0,0.0,0.0,0.0,0.0,0.0,0.0,0.0,0.0,0.0,0.0,0.0,0.0,0.0,0.0,0.0,0.0,0.0,0.0,0.0,0.0,0.0,0.0,0.0,0.0,0.0,0.0,0.0,0.0,0.0,0.0,0.0,0.0,0.0,0.0,0.0,0.0,0.0,0.0,0.0,0.0,0.0,0.0,0.0,0.0,0.0,0.0,0.0,0.0,0.0,0.0,0.0,0.0,0.0,0.0,0.0,0.0,0.0,0.0,0.0,0.0,0.0,0.0,0.0,0.0,0.0,0.0,0.0,0.0,0.0,0.0,0.0,0.0,0.0,0.0,0.0,0.0,0.0,0.0,0.0,0.0,0.0,0.0,0.0,0.0,0.0,0.0,0.0,0.0,0.0,0.0,0.0,0.0,0.0,0.0,0.0,0.0,0.0,0.0,0.0,0.0,0.0,0.0,0.0,0.0,0.0,0.0,0.0,0.0,0.0,0.0,0.0,0.0,0.0,0.0,0.0,0.0,0.0,0.0,0.0,0.0,0.0,0.0,0.0,0.0,0.0,0.0,0.0,0.0,0.0,0.0,0.0,0.0,0.0,0.0,0.0,0.0,0.0,0.0,0.0,0.0,0.0,0.0,0.0,0.0,0.0,0.0,0.0,0.0,0.0,0.0,0.0,0.0,0.0,0.0,0.0,0.0,0.0,0.0,0.0,0.0,0.0,0.0,0.0,0.0,0.0,0.0,0.0,0.0,0.0,0.0,0.0,0.0,0.0,0.0,0.0,0.0,0.0,0.0,0.0,0.0,0.0,0.0,0.0,0.0,0.0,0.0,0.0,0.0,0.0,0.0,0.0,0.0,0.0,0.0,0.0,0.0,0.0,0.0,0.0,0.0,0.0,0.0,0.0,0.0,0.0,0.0,0.0,0.0,0.0,0.0,0.0,0.0,0.0,0.0,0.0,0.0,0.0,0.0,0.0,0.0,0.0,0.0,0.0,0.0,0.0,0.0,0.0,0.0,0.0,0.0,0.0,0.0,0.0,0.0,0.0,0.0,0.0,0.0,0.0,0.0,0.0,0.0,0.0,0.0,0.0,0.0,0.0,0.0,0.0,0.0,0.0,0.0,0.0,0.0,0.0,0.0,0.0,0.0,0.0,0.0,0.0,0.0,0.0,0.0,0.0,0.0,0.0,0.0,0.0,0.0,0.0,0.0,0.0,0.0,0.0,0.0,0.0,0.0,0.0,0.0,0.0,0.0,0.0,0.0,0.0,0.0,0.0,0.0,0.0,0.0,0.0,0.0,0.0,0.0,0.0,0.0,0.0,0.0,0.0,0.0,0.0,0.0,0.0,0.0,0.0,0.0,0.0,0.0,0.0,0.0,0.0,0.0,0.0,0.0,0.0,0.0,0.0,0.0,0.0,0.0,0.0,0.0,0.0,0.0,0.0,0.0,0.0,0.0,0.0,0.0,0.0,0.0,0.0,0.0,0.0,0.0,0.0,0.0,0.0,0.0,0.0,0.0,0.0,0.0,0.0,0.0,0.0,0.0,0.0,0.0,0.0,0.0,0.0,0.0,0.0,0.0,0.0,0.0,0.0,0.0,0.0,0.0,0.0,0.0,0.0,0.0,0.0,0.0,0.0,0.0,0.0,0.0,0.0,0.0,0.0,0.0,0.0,0.0,0.0,0.0,0.0,0.0,0.0,0.0,0.0,0.0,0.0,0.0,0.0,0.0,0.0,0.0,0.0,0.0,0.0,0.0,0.0,0.0,0.0,0.0,0.0,0.0,0.0,0.0,0.0,0.0,0.0,0.0,0.0,0.0,0.0,0.0,0.0,0.0,0.0,0.0,0.0,0.0,0.0,0.0,0.0,0.0,0.0,0.0,0.0,0.0,0.0,0.0,0.0,0.0,0.0,0.0,0.0,0.0,0.0,0.0,0.0,0.0,0.0,0.0,0.0,0.0,0.0,0.0,0.0,0.0,0.0,0.0,0.0,0.0,0.0,0.0,0.0,0.0,0.0,0.0,0.0,0.0,0.0,0.0,0.0,0.0,0.0,0.0,0.0,0.0,0.0,0.0,0.0,0.0,0.0,0.0,0.0,0.0,0.0,0.0,0.0,0.0,0.0,0.0,0.0,0.0,0.0,0.0,0.0,0.0,0.0,0.0,0.0,0.0,0.0,0.0,0.0,0.0,0.0,0.0,0.0,0.0,0.0,0.0,0.0,0.0,0.0,0.0,0.0,0.0,0.0,0.0,0.0,0.0,0.0,0.0,0.0,0.0,0.0,0.0,0.0,0.0,0.0,0.0,0.0,0.0,0.0,0.0,0.0,0.0,0.0,0.0,0.0,0.0,0.0,0.0,0.0,0.0,0.0,0.0,0.0,0.0,0.0,0.0,0.0,0.0,0.0,0.0,0.0,0.0,0.0,0.0,0.0,0.0,0.0,0.0,0.0,0.0,0.0,0.0,0.0,0.0,0.0,0.0,0.0,0.0,0.0,0.0,0.0,0.0,0.0,0.0,0.0,0.0,0.0,0.0,0.0,0.0,0.0,0.0,0.0,0.0,0.0,0.0,0.0,0.0,0.0,0.0,0.0,0.0,0.0,0.0,0.0,0.0,0.0,0.0,0.0,0.0,0.0,0.0,0.0,0.0,0.0,0.0,0.0,0.0,0.0,0.0,0.0,0.0,0.0,0.0,0.0,0.0,0.0,0.0,0.0,0.0,0.0,0.0,0.0,0.0,0.0,0.0,0.0,0.0,0.0,0.0,0.0,0.0,0.0,0.0,0.0,0.0,0.0,0.0,0.0,0.0,0.0,0.0,0.0,0.0,0.0,0.0,0.0,0.0,0.0,0.0,0.0,0.0,0.0,0.0,0.0,0.0,0.0,0.0,0.0,0.0,0.0,0.0,0.0,0.0,0.0,0.0,0.0,0.0,0.0,0.0,0.0,0.0,0.0,0.0,0.0,0.0,0.0,0.0,0.0,0.0,0.0,0.0,0.0,0.0,0.0,0.0,0.0,0.0,0.0,0.0,0.0,0.0,0.0,0.0,0.0,0.0,0.0,0.0,0.0,0.0,0.0,0.0,0.0,0.0,0.0,0.0,0.0,0.0,0.0,0.0,0.0,0.0,0.0,0.0,0.0,0.0,0.0,0.0,0.0,0.0,0.0,0.0,0.0,0.0,0.0,0.0,0.0,0.0,0.0,0.0,0.0,0.0,0.0,0.0,0.0,0.0,0.0,0.0,0.0,0.0,0.0,0.0,0.0,0.0,0.0,0.0,0.0,0.0,0.0,0.0,0.0,0.0,0.0,0.0,0.0,0.0,0.0,0.0,0.0,0.0,0.0,0.0,0.0,0.0,0.0,0.0,0.0,0.0,0.0,0.0,0.0,0.0,0.0,0.0,0.0,0.0,0.0,0.0,0.0,0.0,0.0,0.0,0.0,0.0,0.0,0.0,0.0,0.0,0.0,0.0,0.0,0.0,0.0,0.0,0.0,0.0,0.0,0.0,0.0,0.0,0.0,0.0,0.0,0.0,0.0,0.0,0.0,0.0,0.0,0.0,0.0,0.0,0.0,0.0,0.0,0.0,0.0,0.0,0.0,0.0,0.0,0.0,0.0,0.0,0.0,0.0,0.0,0.0,0.0,0.0,0.0,0.0,0.0,0.0,0.0,0.0,0.0,0.0,0.0,0.0,0.0,0.0,0.0,0.0,0.0,0.0,0.0,0.0,0.0,0.0,0.0,0.0,0.0,0.0,0.0,0.0,0.0,0.0,0.0,0.0,0.0,0.0,0.0,0.0,0.0,0.0,0.0,0.0,0.0,0.0,0.0,0.0,0.0,0.0,0.0,0.0,0.0,0.0,0.0,0.0,0.0,0.0,0.0,0.0,0.0,0.0,0.0,0.0,0.0,0.0,0.0,0.0,0.0,0.0,0.0,0.0,0.0,0.0,0.0,0.0,0.0,0.0,0.0,0.0,0.0,0.0,0.0,0.0,0.0,0.0,0.0,0.0,0.0,0.0,0.0,0.0,0.0,0.0,0.0,0.0,0.0,0.0,0.0,0.0,0.0,0.0,0.0,0.0,0.0,0.0,0.0,0.0,0.0,0.0,0.0,0.0,0.0,0.0,0.0,0.0,0.0,0.0,0.0,0.0,0.0,0.0,0.0,0.0,0.0,0.0,0.0,0.0,0.0,0.0,0.0,0.0,0.0,0.0,0.0,0.0,0.0,0.0,0.0,0.0,0.0,0.0,0.0,0.0,0.0,0.0,0.0,0.0,0.0,0.0,0.0,0.0,0.0,0.0,0.0,0.0,0.0,0.0,0.0,0.0,0.0,0.0,0.0,0.0,0.0,0.0,0.0,0.0,0.0,0.0,0.0,0.0,0.0,0.0,0.0,0.0,0.0,0.0,0.0,0.0,0.0,0.0,0.0,0.0,0.0,0.0,0.0,0.0,0.0,0.0,0.0,0.0,0.0,0.0,0.0,0.0,0.0,0.0,0.0,0.0,0.0,0.0,0.0,0.0,0.0,0.0,0.0,0.0,0.0,0.0,0.0,0.0,0.0,0.0,0.0,0.0,0.0,0.0,0.0,0.0,0.0,0.0,0.0,0.0,0.0,0.0,0.0,0.0,0.0,0.0,0.0,0.0,0.0,0.0,0.0,0.0,0.0,0.0,0.0,0.0,0.0,0.0,0.0,0.0,0.0,0.0,0.0,0.0,0.0,5.2637,5.3004,0.0,0.0,0.0,0.0,0.0,0.0,0.0,0.0,0.0,0.0,0.0,0.0,0.0,0.0,0.0,0.0,0.0,0.0,0.0,0.0,0.0,0.0,0.0,0.0,0.0,0.0,0.0,0.0,0.0,0.0,0.0,0.0,0.0,0.0,0.0,0.0,5.4852,5.5717,5.4641,5.4446,5.5069,5.6759,0.0,0.0,0.0,0.0,0.0,0.0,0.0,0.0,0.0,0.0,0.0,0.0,0.0,0.0,0.0,0.0,0.0,0.0,0.0,0.0,0.0,0.0,0.0,0.0,0.0,0.0,0.0,0.0,0.0,0.0,0.0,0.0,0.0,0.0,0.0,0.0,0.0,0.0,0.0,0.0,0.0,0.0,0.0,0.0,0.0,0.0,0.0,0.0,0.0,0.0,0.0,0.0,0.0,0.0,0.0,0.0,0.0,0.0,0.0,0.0,0.0,0.0,0.0,0.0,0.0,0.0,0.0,0.0,0.0,0.0,0.0,0.0,5.5941,5.4289,0.0,0.0,0.0,0.0,0.0,0.0,0.0,0.0,0.0,0.0,0.0,0.0,0.0,0.0,0.0,0.0,0.0,0.0,0.0,0.0,0.0,0.0,0.0,5.4194,5.5083,5.5665,5.5357,5.5318,0.0,0.0,0.0,0.0,0.0,5.572,5.5807,5.5721,5.6118,5.6966,5.594,5.6331,5.8127,6.055,0.0,0.0,0.0,0.0,0.0,0.0,0.0,0.0,0.0,0.0,0.0,0.0,0.0,0.0,0.0,0.0,0.0,0.0,0.0,0.0,0.0,0.0,0.0,0.0,0.0,0.0,0.0,0.0,0.0,0.0,0.0,0.0,0.0,0.0,0.0,0.0,0.0,0.0,0.0,0.0,0.0,0.0,0.0,0.0,0.0,0.0,0.0,0.0,0.0,0.0,0.0,0.0,0.0,0.0,0.0,0.0,0.0,0.0,0.0,0.0,0.0,0.0,0.0,0.0,0.0,0.0,6.2793,6.4709,6.8408,6.6537,6.5888,6.5888,6.1006,5.7299,5.4803,5.6235,0.0,0.0,0.0,0.0,0.0,0.0,0.0,0.0,0.0,0.0,0.0,0.0,0.0,0.0,0.0,0.0,0.0,0.0,0.0,0.0,0.0,5.5186,5.6039,5.572,5.6973,5.7203,5.578,0.0,5.6357,5.5742,5.5703,5.5838,5.6191,5.5875,5.6101,5.6916,5.8562,6.0398,6.2512,6.4359,6.4974,6.4397,6.0896,0.0,0.0,0.0,0.0,0.0,0.0,0.0,0.0,0.0,0.0,0.0,0.0,0.0,0.0,0.0,0.0,0.0,0.0,0.0,0.0,0.0,0.0,0.0,0.0,0.0,0.0,0.0,0.0,0.0,0.0,0.0,0.0,0.0,0.0,0.0,0.0,0.0,0.0,0.0,0.0,0.0,0.0,0.0,4.9407,5.0215,0.0,0.0,0.0,0.0,0.0,0.0,0.0,0.0,0.0,0.0,0.0,0.0,0.0,6.0603,6.2622,6.4347,6.5463,6.5919,6.6602,6.7594,6.8787,6.7851,6.8128,6.9376,6.7944,0.0,6.0309,5.7813,0.0,0.0,0.0,0.0,0.0,0.0,0.0,0.0,0.0,0.0,0.0,0.0,0.0,0.0,0.0,0.0,0.0,0.0,0.0,0.0,0.0,5.6061,5.7098,5.7181,6.0012,6.0512,5.7357,5.8858,5.905,5.7242,5.6703,5.6644,5.7024,5.6852,5.7628,5.9412,6.2997,6.5268,6.6205,6.7898,6.8706,6.859,6.6282,6.5205,6.4974,6.2281,0.0,0.0,0.0,0.0,0.0,0.0,0.0,0.0,0.0,0.0,0.0,0.0,0.0,0.0,0.0,0.0,0.0,0.0,0.0,0.0,0.0,0.0,0.0,0.0,0.0,0.0,0.0,0.0,0.0,0.0,0.0,0.0,0.0,0.0,0.0,0.0,0.0,0.0,0.0,5.1867,5.3592,5.1683,5.4179,5.5207,0.0,0.0,0.0,0.0,0.0,0.0,0.0,0.0,0.0,6.1374,6.2989,6.4347,6.5448,6.7504,6.9412,7.1248,7.2018,7.356,7.5652,7.4404,7.4955,7.679,7.5102,7.2606,6.9302,6.3833,6.0456,5.851,0.0,0.0,0.0,0.0,5.6418,5.7152,0.0,0.0,0.0,0.0,0.0,0.0,0.0,0.0,0.0,0.0,0.0,0.0,5.5522,5.7329,5.8896,6.0411,6.3243,6.3705,6.0742,6.0896,6.0473,5.9011,5.7703,5.7297,5.7863,5.874,6.0446,6.2994,6.7505,6.9937,7.0398,7.2052,7.2822,7.2822,7.2206,7.0283,6.7359,6.4743,6.3281,0.0,0.0,0.0,0.0,0.0,0.0,0.0,0.0,0.0,0.0,0.0,0.0,0.0,0.0,0.0,0.0,0.0,0.0,0.0,0.0,0.0,0.0,0.0,0.0,0.0,0.0,0.0,0.0,0.0,0.0,0.0,0.0,0.0,0.0,0.0,0.0,0.0,0.0,5.4693,5.6638,5.3041,5.7262,5.8877,0.0,0.0,0.0,0.0,0.0,0.0,6.1484,6.2401,6.3796,6.5888,6.7687,6.9045,6.9889,7.2092,7.4404,7.679,7.7378,7.9176,8.1856,8.0241,8.0718,8.27,8.0461,7.8589,7.6533,6.9669,6.4824,6.1557,6.0346,5.9391,5.8767,5.9575,6.0382,6.1153,0.0,0.0,0.0,0.0,0.0,0.0,0.0,0.0,0.0,0.0,0.0,5.1357,5.7494,5.9277,6.183,6.6256,6.6128,6.6051,6.6628,6.1512,5.9127,6.0589,5.8319,5.7565,5.873,6.1925,6.4825,6.7375,7.1304,7.4053,7.5668,7.7323,7.813,7.813,7.8092,7.7092,7.4938,6.7628,6.5897,6.759,0.0,0.0,0.0,0.0,0.0,0.0,0.0,0.0,0.0,0.0,0.0,0.0,0.0,0.0,0.0,0.0,0.0,0.0,0.0,0.0,0.0,0.0,0.0,0.0,0.0,0.0,0.0,0.0,0.0,0.0,0.0,0.0,0.0,0.0,0.0,0.0,0.0,0.0,0.0,5.4583,5.9942,0.0,0.0,0.0,0.0,5.9024,6.108,6.3172,6.4971,6.5815,6.7687,7.0844,7.3266,7.5983,7.9103,8.0755,8.1672,8.1819,8.1856,8.2774,8.4352,8.2737,8.292,8.4389,8.2737,8.1085,7.9176,7.3377,7.0,6.8201,6.5852,6.5815,6.6916,6.5485,6.5448,6.5815,0.0,0.0,0.0,0.0,0.0,0.0,0.0,0.0,4.8762,5.04,5.1484,5.4446,6.0494,6.3497,6.6528,7.0063,7.1629,7.1591,6.9667,6.5551,6.3205,6.3243,5.9781,5.9311,6.2452,6.4517,6.773,7.2187,7.5802,7.8707,8.09,8.2093,8.2901,8.3401,8.3401,8.2785,8.1208,7.2976,6.8744,6.7205,6.3243,6.1089,0.0,0.0,0.0,0.0,0.0,0.0,0.0,0.0,0.0,0.0,0.0,0.0,0.0,0.0,0.0,0.0,0.0,0.0,0.0,0.0,0.0,0.0,0.0,0.0,0.0,0.0,0.0,0.0,0.0,0.0,0.0,0.0,0.0,0.0,0.0,0.0,0.0,6.2989,6.7283,0.0,6.4163,6.3172,6.3099,6.3833,6.4677,6.6806,7.0513,7.1468,7.3634,7.7414,7.8369,8.0131,8.2847,8.3471,8.4278,8.527,8.4756,8.5343,8.6848,8.4719,8.4903,8.6811,8.4682,8.3434,8.2663,7.958,7.5506,7.0991,6.8568,6.765,6.7687,6.765,6.8128,6.8752,0.0,0.0,0.0,0.0,0.0,0.0,0.0,0.0,4.8318,5.0303,5.2907,5.705,6.368,6.7837,7.1735,7.5707,7.6515,7.5861,7.3591,6.8436,6.532,6.5051,6.2089,6.2012,6.5359,6.7908,7.1428,7.5976,7.94,8.2093,8.4055,8.4901,8.5593,8.6094,8.6401,8.6247,8.5363,7.94,7.4091,6.9321,6.5359,6.3935,6.3705,0.0,0.0,0.0,0.0,0.0,0.0,0.0,0.0,0.0,0.0,0.0,0.0,0.0,0.0,0.0,0.0,0.0,0.0,0.0,0.0,0.0,0.0,0.0,0.0,0.0,0.0,0.0,0.0,0.0,0.0,0.0,0.0,0.0,0.0,0.0,6.8311,6.8862,7.3193,7.4661,7.0881,6.9596,6.9302,7.011,7.066,7.2606,7.635,7.7084,7.8846,8.2113,8.248,8.3654,8.5783,8.6077,8.6628,8.7399,8.7142,8.7582,8.8573,8.6958,8.7252,8.8904,8.6738,8.5673,8.527,8.3654,8.0167,7.5542,7.3413,7.2239,7.1835,7.2386,7.2753,7.2973,0.0,0.0,0.0,0.0,0.0,0.0,0.0,4.6592,4.7597,5.0862,5.4031,5.9001,6.7025,7.2072,7.7284,8.317,8.0516,7.8515,7.8477,6.9744,6.4974,6.5782,6.5051,6.5474,6.7321,7.2206,7.6053,7.8707,8.2016,8.4132,8.5093,8.5901,8.6286,8.6363,8.7209,8.7594,8.7517,8.6632,8.1977,7.4707,6.9475,6.7821,6.8013,0.0,0.0,0.0,0.0,0.0,0.0,0.0,0.0,0.0,0.0,0.0,0.0,0.0,0.0,0.0,0.0,0.0,0.0,0.0,0.0,0.0,0.0,0.0,0.0,0.0,0.0,0.0,0.0,0.0,0.0,0.0,0.0,0.0,5.9208,6.6366,7.1468,7.1651,7.7268,7.9286,7.4551,7.6937,7.8442,7.7598,7.9029,8.0608,8.2186,8.2296,8.303,8.4609,8.5453,8.6628,8.8243,8.905,8.9087,8.8316,8.9087,8.9454,8.9491,8.9454,8.9858,9.0519,8.894,8.7766,8.6921,8.5343,8.3728,8.215,8.0461,7.98,7.9764,7.9764,7.925,7.8332,0.0,0.0,0.0,0.0,0.0,0.0,0.0,4.6083,4.7504,5.0553,5.5951,6.2199,6.927,7.561,8.0977,8.5055,8.1747,7.8938,7.7707,6.9436,6.4436,6.4051,6.4397,0.0,7.3437,7.4938,7.8092,8.3131,8.467,8.6478,8.8556,8.9402,9.0441,9.1633,9.1864,9.1633,9.1056,9.0171,8.8209,8.5016,7.6823,7.2206,6.9821,0.0,0.0,0.0,0.0,0.0,0.0,0.0,0.0,0.0,0.0,0.0,0.0,0.0,0.0,0.0,0.0,0.0,0.0,0.0,0.0,0.0,0.0,0.0,0.0,0.0,0.0,0.0,0.0,0.0,0.0,0.0,6.097,6.398,6.442,6.9926,7.5249,7.8772,8.2333,8.4168,8.3434,8.3104,8.2847,8.2627,8.303,8.3471,8.3911,8.4499,8.527,8.6334,8.7105,8.8316,8.9931,9.0152,9.0445,9.0812,9.0445,9.0592,9.1106,8.9931,8.9858,9.0555,8.9528,8.861,8.7802,8.6775,8.5747,8.4535,8.1746,7.9947,7.8919,7.8919,7.8405,7.7598,0.0,0.0,0.0,0.0,0.0,0.0,0.0,4.5648,4.7346,5.0637,5.7718,6.4775,7.0805,7.7861,8.3093,8.5401,8.2401,7.9169,7.6399,6.9937,6.5974,6.5474,0.0,7.2322,7.7476,7.9323,8.2285,8.6478,8.7671,8.9171,9.1018,9.1864,9.2787,9.371,9.4441,9.4518,9.4057,9.3557,9.2826,9.1479,8.4978,8.0554,7.7246,7.2091,7.0167,6.986,6.7282,6.6821,6.7167,6.5089,0.0,0.0,0.0,0.0,0.0,0.0,0.0,0.0,0.0,0.0,0.0,0.0,0.0,0.0,0.0,0.0,0.0,0.0,0.0,0.0,0.0,0.0,0.0,0.0,6.6035,7.022,7.2275,7.5689,7.9507,8.3728,8.6334,8.7986,8.8463,8.7655,8.6995,8.6664,8.6628,8.6628,8.6628,8.7068,8.7692,8.85,8.8977,8.9821,9.1106,9.1106,9.1179,9.1289,9.1179,9.1179,9.1289,9.0702,9.0665,9.1069,9.0262,8.9454,8.8647,8.7839,8.6811,8.5527,0.0,0.0,0.0,0.0,7.8589,7.7818,0.0,0.0,0.0,0.0,0.0,0.0,0.0,4.5329,4.7185,5.0862,5.8943,6.6255,7.1112,7.8361,8.3362,8.4516,8.2208,7.8938,7.4822,7.0783,6.8859,6.9513,7.4899,7.8784,8.0746,8.4555,8.7363,8.9133,9.0633,9.1825,9.2787,9.3518,9.3941,9.421,9.5749,9.648,9.6596,9.6596,9.6134,9.5211,9.2864,9.0094,8.6632,7.9669,7.8246,7.9323,7.4591,7.2091,7.0591,6.7936,0.0,0.0,0.0,0.0,0.0,0.0,0.0,0.0,0.0,0.0,0.0,0.0,0.0,0.0,0.0,0.0,0.0,0.0,0.0,0.0,0.0,0.0,0.0,0.0,7.1211,7.5983,8.0975,8.2443,8.4058,8.6921,8.9234,9.0629,9.0739,9.0739,9.0445,8.9748,8.9674,8.9638,8.9564,0.0,0.0,0.0,0.0,9.1069,9.1803,9.1803,9.1509,9.0882,9.1509,9.1472,9.0882,9.1545,9.1803,9.1767,9.1069,9.0298,8.9491,8.8683,8.7325,8.5637,8.3948,8.3287,8.2994,8.0534,7.9213,7.8479,0.0,0.0,0.0,0.0,0.0,0.0,4.4583,4.5366,4.712,5.0496,5.7801,6.4051,6.7691,7.4322,7.9669,8.2554,7.9862,7.6823,7.3937,7.1052,7.1552,7.6322,7.9631,8.3093,8.6901,8.8402,9.0017,9.1748,9.2095,9.3018,9.4518,9.4672,9.548,9.6788,9.7134,9.7673,9.8327,9.8327,9.8211,9.7942,9.6749,9.271,8.7094,8.4247,8.2208,8.0554,7.813,7.7977,7.84,7.513,7.4284,7.386,6.9624,0.0,0.0,0.0,0.0,0.0,0.0,0.0,0.0,0.0,0.0,0.0,0.0,0.0,0.0,0.0,0.0,0.0,0.0,0.0,0.0,7.1284,7.5322,7.958,8.5086,8.7105,8.8243,8.8867,8.9931,9.0849,9.151,9.1583,9.151,9.1363,9.1326,9.1069,9.0408,9.0996,9.1106,9.0629,9.1216,9.1657,9.1803,9.1803,9.2015,9.2505,9.2015,0.0,9.2542,9.2015,9.1803,9.1803,9.1657,9.1106,9.0335,8.9528,8.7839,8.5563,8.3324,8.2443,8.215,7.9727,7.8736,7.8479,0.0,0.0,0.0,0.0,0.0,0.0,4.4048,4.4782,4.6493,4.9768,5.6071,6.1424,6.427,6.9513,7.3168,7.4014,7.2552,7.1783,7.2168,7.3399,7.6361,8.1477,8.4939,8.8132,9.1133,9.2018,9.3095,9.4403,9.4788,9.5441,9.6249,9.6711,9.7326,9.8173,9.8596,9.9019,9.9442,9.9442,9.9442,9.9365,9.8481,9.6134,9.2826,9.0287,8.7979,8.5978,8.467,8.3708,8.2631,8.0015,7.8592,7.7207,7.3399,7.0167,6.7176,0.0,0.0,0.0,0.0,0.0,0.0,0.0,0.0,0.0,0.0,0.0,0.0,0.0,0.0,6.0089,6.2915,0.0,7.1248,7.6497,8.0755,8.4682,8.828,9.0225,9.0959,9.0115,9.0702,9.1546,9.2354,9.2464,9.2611,9.3015,9.2684,9.2281,9.1877,9.1803,9.162,9.1216,9.1583,9.1803,9.1803,9.1803,9.1983,9.2399,9.1983,9.2055,9.2399,9.1983,9.1803,9.1803,9.1803,9.1326,9.0519,8.9307,8.8096,8.6811,8.4792,8.3251,8.2039,8.0828,7.9617,7.8552,0.0,0.0,0.0,0.0,0.0,0.0,0.0,4.4195,4.5756,4.8625,5.3959,5.8204,6.0277,6.4218,6.632,6.5474,6.6167,6.8282,7.2129,7.6823,8.1631,8.6401,9.0517,9.3403,9.4903,9.5788,9.648,9.7057,9.7673,9.8019,9.8019,9.8711,9.9211,9.9558,10.0289,10.0673,10.0789,10.0789,10.0712,10.0481,9.9827,9.9442,9.8942,9.5865,9.3749,9.2287,9.1056,8.8286,8.4901,8.3324,8.1208,7.8746,7.5899,7.3783,7.1622,6.7833,6.597,0.0,0.0,0.0,0.0,0.0,0.0,0.0,0.0,0.0,5.9869,6.1484,6.2695,6.4824,6.9265,7.323,7.7231,8.1489,8.5563,8.8867,9.0812,9.2244,9.2611,9.1253,9.1803,9.2574,9.3272,9.3345,9.3602,9.4226,9.3712,9.3345,9.3345,9.2684,9.2207,9.206,9.206,9.195,9.1803,9.1803,9.1839,9.2055,9.1839,9.1839,9.2055,9.1839,9.1803,9.1803,9.1803,9.1326,9.0482,8.905,8.8353,8.8059,8.6591,8.4756,8.2847,8.237,8.0865,7.9029,0.0,0.0,0.0,0.0,0.0,0.0,0.0,0.0,4.525,4.6732,5.1028,5.4183,5.4753,5.8218,6.132,6.3397,6.709,7.1668,7.7284,8.1016,8.594,9.2441,9.6057,9.8404,9.9365,10.0212,10.0289,9.9673,9.975,9.9788,9.9788,9.9904,10.0712,10.2212,10.2289,10.2789,10.3482,10.3482,10.2981,10.2289,10.2212,10.1712,10.0789,9.8942,9.7634,9.648,9.4134,9.0133,8.5824,8.4939,8.3401,8.167,8.0592,7.9054,7.697,7.3384,0.0,6.4287,6.2482,6.0489,0.0,5.951,6.0113,6.1093,0.0,0.0,6.4934,6.6549,6.8678,7.1064,7.3744,7.6974,8.0791,8.5563,8.7399,8.9271,9.2391,9.2978,9.3015,9.2831,9.3529,9.4042,9.4153,9.4153,9.4189,9.4299,9.4226,9.4153,9.4153,9.4079,9.3675,9.2978,9.2941,9.2574,9.1803,9.1803,9.2159,9.2896,9.2159,9.2159,9.2793,9.2089,9.1803,9.1803,9.1803,9.1326,9.0555,8.9638,8.8867,8.8096,8.7215,8.6261,8.5123,8.2994,8.1562,8.0534,0.0,0.0,0.0,0.0,0.0,0.0,0.0,0.0,0.0,4.5705,4.8972,5.1309,5.1662,5.3705,5.5511,5.6588,6.2358,6.8706,7.5168,8.2016,8.8825,9.5634,9.8711,10.0904,10.2289,10.2597,10.2597,10.2289,10.2289,10.2289,10.2289,10.2789,10.3712,10.4789,10.4789,10.502,10.5405,10.5405,10.5097,10.4789,10.4789,10.402,10.2712,10.1481,9.8634,9.4941,9.2402,8.8863,0.0,8.4439,8.3016,8.1785,8.2939,8.0785,7.7462,7.5626,7.0591,0.0,6.1203,0.0,0.0,0.0,6.3686,6.6774,6.8906,7.0051,7.1247,7.3484,7.5439,7.7567,8.0047,8.281,8.549,0.0,8.9895,9.1363,9.2207,9.3161,9.3088,9.1179,9.2941,9.4116,9.3639,9.4042,9.4483,9.496,9.4997,9.4997,9.4997,9.4556,9.4153,9.3822,9.3786,9.3382,9.2574,9.2574,9.2498,9.2262,9.1983,9.1983,9.2262,9.1983,9.1803,9.1803,9.1803,9.162,9.1253,9.0445,8.9638,8.883,8.8023,8.7215,8.6261,8.4315,8.2774,8.1452,0.0,0.0,0.0,0.0,0.0,0.0,0.0,0.0,0.0,0.0,4.711,4.9088,4.9997,5.0664,5.1313,5.1836,5.8242,6.5359,7.2668,8.1439,8.9671,9.7173,10.0404,10.2904,10.4905,10.5405,10.5597,10.5597,10.5597,10.5597,10.5713,10.6213,10.6982,10.779,10.779,10.779,10.779,10.779,10.7521,10.7098,10.7098,10.579,10.3712,10.1597,9.725,9.1796,8.9491,8.5727,8.1733,8.0619,7.9467,7.8814,8.1061,7.9607,7.6837,7.5512,7.0535,6.4632,6.1017,0.0,0.0,6.4533,6.7973,7.188,7.4552,7.6045,7.7666,8.0492,8.1826,8.3223,8.5761,8.7531,8.894,9.0225,9.195,9.2978,9.2537,9.3125,9.2574,8.9748,9.1106,9.2134,9.1767,9.3492,9.4887,9.5474,9.5731,9.5841,9.5841,9.529,9.485,9.463,9.463,9.4226,9.3455,9.3198,9.2794,9.217,9.1913,9.1803,9.1803,9.1803,9.1803,9.1803,9.1803,9.1803,9.173,9.0702,8.9931,8.9307,8.828,8.7509,8.6848,8.5453,8.3911,8.226,0.0,0.0,0.0,0.0,0.0,0.0,0.0,0.0,0.0,0.0,0.0,0.0,0.0,4.9449,4.9778,5.1721,5.6626,6.3205,7.1668,7.9438,8.7825,9.7096,10.1597,10.4982,10.7521,10.9213,10.9983,10.9983,10.9983,10.9983,10.9983,10.9983,11.0483,11.1291,11.1291,11.1291,11.1291,11.1291,11.0406,10.879,10.879,10.679,10.3405,9.8365,9.3025,8.7962,8.6163,8.0696,7.4087,7.2406,7.1833,7.2051,7.3398,7.5079,0.0,7.2806,6.7651,6.2925,0.0,0.0,6.4514,6.9904,7.2529,7.5089,8.001,8.2044,8.3767,8.7034,8.7172,8.7459,8.9858,8.9817,9.0188,9.2611,9.3051,9.3345,9.4116,9.2868,9.1253,8.9601,8.8133,8.7545,0.0,9.2684,9.5474,9.5511,9.6208,9.6649,9.6649,9.6649,9.6282,9.5511,9.5474,9.507,9.4263,9.3492,9.3088,9.3051,9.2207,9.1803,9.1803,9.1803,9.1803,9.1803,9.1803,9.1803,9.1693,9.0115,8.9454,8.9271,8.7655,8.7031,8.6921,8.6077,8.4756,8.303,0.0,0.0,0.0,0.0,0.0,0.0,0.0,0.0,0.0,0.0,0.0,0.0,0.0,0.0,0.0,0.0,5.5434,6.1127,6.6782,7.6938,8.5401,9.1402,9.8981,10.3982,10.5905,10.8213,10.9598,11.0214,11.0791,11.1098,11.1098,11.1598,11.2291,11.3214,11.3214,11.3214,11.3214,11.3214,11.2214,11.0521,10.9406,10.6905,10.3482,9.9481,9.2411,8.4136,0.0,7.4866,6.9205,6.8417,6.7757,6.7744,7.021,7.0439,6.9036,6.512,6.4881,6.5403,6.3372,0.0,7.1967,7.5004,7.8922,8.3009,8.7,8.8654,8.9529,9.0091,8.9289,8.8391,8.8153,8.7932,8.828,8.9638,9.1693,9.2978,9.2684,9.3565,9.2244,8.6885,8.8096,0.0,0.0,0.0,0.0,9.4556,9.5474,9.6135,9.6685,9.6685,9.6575,9.6318,9.6318,9.5914,9.5107,9.485,9.4153,9.3088,9.2207,9.1803,9.1803,9.1803,9.1803,9.1803,9.1803,9.1803,9.173,9.0629,8.9895,8.9307,8.8243,8.7472,8.6848,8.549,8.4646,8.3948,0.0,0.0,0.0,0.0,0.0,0.0,0.0,0.0,0.0,0.0,0.0,0.0,0.0,0.0,0.0,0.0,0.0,0.0,6.2935,7.1514,7.9169,8.5247,9.1556,9.6288,9.9173,10.0481,10.2404,10.4789,10.5905,10.729,10.879,10.9906,11.0906,11.1714,11.1714,11.1906,11.2214,11.1906,11.0598,10.8598,10.5905,10.2171,9.7711,9.3063,8.5514,0.0,7.2649,6.7943,6.3756,6.3686,6.3626,6.3899,6.5705,6.5494,6.4203,6.2146,6.4466,6.7626,6.7273,7.2244,7.8247,8.103,8.4882,8.8748,9.1864,9.2749,9.2638,9.1564,8.9277,8.6958,8.5337,8.3719,8.3508,8.6077,8.828,9.0152,9.1583,9.2427,9.1253,8.6848,8.7582,8.7582,0.0,0.0,0.0,9.3161,9.4703,9.5731,9.6245,9.6539,9.6685,9.6685,9.6685,9.6465,9.5951,9.5364,9.4375,9.3041,9.2169,9.1983,9.2229,9.1912,9.1803,9.1803,9.1803,9.1803,9.173,9.0629,8.9895,8.9307,8.8206,8.7288,8.6444,8.5416,8.4646,8.3911,0.0,0.0,0.0,0.0,0.0,0.0,0.0,0.0,0.0,0.0,0.0,0.0,0.0,0.0,0.0,0.0,0.0,0.0,6.0165,6.382,6.9783,7.8707,8.0285,8.3247,8.8132,8.7555,8.9633,9.4518,9.6172,9.9096,10.3212,10.4789,10.602,10.6905,10.6905,10.729,10.7982,10.7213,10.5482,10.2789,9.8557,9.3141,8.689,8.0237,7.3496,6.7149,6.3883,6.0692,5.8051,0.0,0.0,0.0,6.0327,6.0836,6.1964,6.41,6.6598,6.9702,7.4364,7.8785,8.3215,8.7756,9.0133,9.2018,9.4441,9.4249,9.302,9.1213,8.7104,8.3332,0.0,0.0,7.6754,8.2333,8.3508,8.5637,9.1143,9.0041,8.8867,0.0,0.0,0.0,0.0,0.0,0.0,9.162,9.4042,9.5437,9.5547,9.6282,9.6685,9.6685,9.6685,9.6685,9.6685,9.5107,9.3927,9.3099,9.2266,9.2262,9.2987,9.2229,9.1839,9.1839,9.1803,9.1767,9.1656,9.0041,8.9381,8.9197,8.7582,8.6481,8.5783,8.571,8.4719,8.3067,0.0,0.0,0.0,0.0,0.0,0.0,0.0,0.0,0.0,0.0,0.0,0.0,0.0,0.0,0.0,0.0,0.0,0.0,5.5934,6.1666,6.6282,6.9321,7.5668,8.0092,8.2016,8.3708,8.5824,8.8363,8.944,9.0864,9.2595,9.3633,9.4557,9.5441,9.6095,9.648,9.6673,9.6442,9.4903,9.2287,8.9325,8.5772,8.1919,7.8288,7.304,6.7373,6.587,6.2146,0.0,0.0,0.0,0.0,0.0,6.3413,6.5639,6.8375,7.213,7.6043,7.913,8.4284,8.9182,9.1095,9.2787,9.421,9.4826,9.3026,9.0183,8.67,8.1799,7.7205,0.0,0.0,0.0,8.0057,8.4756,0.0,9.3125,9.4153,0.0,9.151,0.0,9.0445,8.9234,8.9454,0.0,0.0,9.3345,9.452,9.6318,9.6575,9.6685,9.6685,9.6685,9.6685,9.6685,9.5107,9.448,9.4813,9.3322,9.283,9.2987,9.283,9.2699,9.2633,9.2018,9.179,9.1594,9.0029,8.905,8.8353,8.6738,8.5967,8.5637,8.4462,8.3765,8.3141,0.0,0.0,0.0,0.0,0.0,0.0,0.0,0.0,0.0,0.0,0.0,0.0,0.0,0.0,0.0,0.0,0.0,0.0,0.0,5.7511,6.0627,6.2974,6.6936,6.9975,7.1975,7.2668,7.4591,7.7746,7.9015,8.0823,8.3131,8.4324,8.5363,8.6209,8.6709,8.7132,8.7478,8.7094,8.567,0.0,0.0,7.6637,7.361,7.0498,6.6849,6.3305,6.2859,0.0,0.0,0.0,0.0,6.3758,6.5626,6.8004,7.0731,7.4278,0.0,8.1559,8.4435,8.8954,9.3095,9.3941,9.4864,9.5095,9.3172,9.0379,8.6583,8.0887,7.575,0.0,6.8398,0.0,0.0,0.0,0.0,0.0,9.2941,9.4556,9.496,0.0,9.4299,0.0,9.2721,9.2684,9.3455,0.0,9.4226,9.4373,9.6098,9.6502,9.6685,9.6685,9.6685,9.6539,9.6171,9.4923,9.4693,9.532,9.3774,9.3326,9.3935,9.3648,9.347,9.3447,9.3014,9.2592,9.2099,9.0481,8.9411,8.8494,8.6507,8.5563,8.5123,8.3875,8.3177,8.2627,0.0,0.0,0.0,0.0,0.0,0.0,0.0,0.0,0.0,0.0,4.6324,0.0,0.0,0.0,0.0,0.0,0.0,0.0,0.0,0.0,5.4934,5.8819,5.7703,5.8434,6.1512,6.0204,6.1704,6.6244,6.7782,7.0437,7.4207,7.563,7.6784,7.763,7.7746,7.8207,7.8861,7.8092,7.6899,7.5062,7.0776,6.7372,6.452,0.0,5.9091,0.0,0.0,0.0,0.0,0.0,6.5238,6.6251,7.0546,7.3822,7.6899,8.117,8.4093,8.6632,9.0017,9.3172,9.5672,9.6442,9.6288,9.4826,9.0556,8.6814,8.2149,7.4628,0.0,6.5919,6.3413,6.3574,6.6219,7.2789,0.0,8.3251,9.2317,9.3565,9.4777,9.8007,9.6979,9.6318,9.7089,9.6355,9.6428,9.7933,9.6139,9.5258,9.5957,9.6621,9.6915,9.6877,9.6915,9.6584,9.5847,9.5037,9.4957,9.5571,9.4032,9.3991,9.5189,9.4528,9.4265,9.4265,9.4157,9.3612,9.2689,9.1237,9.013,8.9088,8.6804,8.5471,8.4595,8.3757,8.2884,8.2003,0.0,0.0,0.0,0.0,0.0,0.0,0.0,0.0,0.0,0.0,4.7642,4.7416,0.0,0.0,0.0,0.0,0.0,0.0,0.0,0.0,0.0,5.628,5.678,5.7588,5.8934,5.9319,6.0281,6.1897,6.2204,6.3089,6.4512,6.482,6.5359,6.6205,6.6898,6.7321,6.7436,6.7321,6.6667,6.5564,6.3676,6.1945,6.0372,5.9362,0.0,0.0,0.0,0.0,0.0,0.0,6.9096,7.1485,7.5801,7.9939,8.3978,8.8209,9.0287,9.1902,9.5288,9.7134,9.8173,9.8327,9.6249,9.3018,8.8786,8.299,0.0,0.0,6.5234,6.1871,5.943,6.1801,6.6402,7.356,0.0,0.0,0.0,0.0,9.7273,0.0,0.0,0.0,0.0,0.0,0.0,0.0,9.8538,9.8333,9.8449,9.8552,9.8316,9.7663,9.8252,9.8241,9.7372,9.6623,9.6567,9.7208,9.5664,9.5015,9.5189,9.5096,9.5048,9.5001,9.4372,9.3612,9.2744,9.1805,9.0567,8.915,8.739,8.6176,8.5237,8.388,8.2884,8.215,0.0,0.0,0.0,0.0,0.0,0.0,0.0,4.7424,4.86,5.1454,5.2869,5.2316,4.9045,4.9363,4.9549,0.0,0.0,0.0,0.0,0.0,0.0,0.0,0.0,0.0,0.0,5.8665,0.0,0.0,0.0,6.1012,6.1396,0.0,0.0,6.2012,6.2435,6.2627,6.2627,6.2627,6.2397,6.1887,6.0806,5.9971,5.9319,0.0,0.0,0.0,0.0,0.0,0.0,0.0,6.9402,7.3986,8.0507,8.5465,8.9517,9.2864,9.4441,9.5634,9.8173,9.9442,10.0096,10.0096,9.6865,9.2133,8.6094,0.0,0.0,0.0,6.1582,5.9245,5.7666,0.0,0.0,0.0,0.0,0.0,0.0,0.0,0.0,0.0,0.0,0.0,0.0,0.0,0.0,10.0907,10.0629,9.9937,9.9134,9.9492,9.9283,9.8467,9.9246,9.9103,9.783,9.6601,9.6342,9.7044,9.5437,9.5098,9.5741,9.5741,9.5741,9.5741,9.5407,9.451,9.3206,9.2509,9.1218,8.9574,8.8049,8.6687,8.5499,8.4336,8.3198,8.215,0.0,0.0,0.0,0.0,0.0,0.0,0.0,4.9895,5.1548,5.607,5.8489,5.7777,5.2531,5.1367,5.0601,0.0,0.0,0.0,0.0,0.0,0.0,0.0,0.0,0.0,0.0,0.0,0.0,0.0,0.0,0.0,0.0,0.0,0.0,0.0,0.0,6.0781,6.0781,6.0781,6.0781,0.0,0.0,5.9492,0.0,0.0,0.0,0.0,0.0,0.0,0.0,0.0,6.8315,7.3644,8.1369,8.7727,9.2755,9.5058,9.6826,9.8442,10.0212,10.1404,10.202,10.1712,9.748,9.1441,8.3785,7.6341,0.0,0.0,5.8859,5.7409,5.7116,0.0,0.0,0.0,0.0,0.0,0.0,0.0,0.0,0.0,0.0,0.0,0.0,0.0,0.0,10.2705,10.2093,10.1091,9.968,10.0313,10.0272,9.9273,10.0083,9.9802,9.838,9.688,9.6417,9.6991,9.5355,9.5201,9.6288,9.6288,9.6288,9.6288,9.6288,9.5329,9.3678,9.3131,9.1926,9.0263,8.8891,8.7561,8.6199,8.5246,8.3923,8.2518,0.0,0.0,0.0,0.0,0.0,0.0,0.0,5.1714,5.4686,6.1002,6.2125,6.1229,5.8339,5.6681,5.4058,0.0,0.0,0.0,0.0,0.0,0.0,0.0,0.0,0.0,0.0,0.0,0.0,0.0,0.0,0.0,0.0,0.0,0.0,0.0,0.0,0.0,0.0,6.0781,0.0,0.0,0.0,0.0,0.0,0.0,0.0,0.0,0.0,0.0,0.0,0.0,0.0,6.902,7.4233,8.3104,9.19,9.3485,0.0,0.0,10.1904,10.3482,10.4405,10.2904,9.7519,9.0594,8.2939,0.0,0.0,6.0632,5.7556,5.6235,5.7629,0.0,0.0,0.0,0.0,7.6169,0.0,0.0,0.0,0.0,0.0,0.0,0.0,10.4667,10.3513,10.2815,10.2578,10.2088,10.1196,10.1936,10.1723,10.0136,10.0798,10.0798,9.9949,9.9035,9.8571,9.8556,9.6974,9.6216,9.6288,9.6288,9.6288,9.6288,9.6288,9.5365,9.3867,9.3678,9.2678,9.1178,9.0257,8.9381,8.8416,8.6933,8.5467,8.41,0.0,0.0,0.0,0.0,0.0,0.0,5.1009,5.1765,5.4635,6.2892,6.478,6.4632,6.2742,6.0943,5.7104,5.0136,0.0,0.0,0.0,0.0,0.0,0.0,0.0,0.0,0.0,0.0,0.0,0.0,0.0,0.0,0.0,0.0,0.0,0.0,0.0,0.0,0.0,0.0,0.0,0.0,0.0,0.0,0.0,0.0,0.0,0.0,0.0,0.0,0.0,0.0,0.0,0.0,6.6806,7.3414,0.0,0.0,9.3486,9.7942,10.2212,10.529,10.6905,10.4713,9.825,9.0517,8.2824,0.0,6.5008,6.0368,5.737,5.5941,5.7079,5.7299,5.8437,0.0,0.0,0.0,7.605,0.0,0.0,0.0,0.0,0.0,0.0,0.0,10.6219,10.4279,10.4192,10.3617,10.2211,10.2904,10.2632,10.0885,10.1708,10.1507,10.0185,9.885,9.8151,9.8069,9.6425,9.5921,9.6288,9.6288,9.6288,9.6288,9.6288,9.5637,9.452,9.3945,9.3062,9.1989,9.1107,9.003,8.882,8.8219,8.6769,8.4977,0.0,0.0,0.0,0.0,0.0,4.5534,5.1041,5.2241,5.537,6.3245,6.5695,6.6277,6.5112,6.2184,5.7862,5.1657,4.962,0.0,0.0,0.0,0.0,0.0,0.0,0.0,0.0,0.0,5.8434,5.9511,6.0127,0.0,0.0,0.0,0.0,0.0,0.0,0.0,0.0,0.0,0.0,0.0,0.0,0.0,0.0,0.0,0.0,0.0,0.0,0.0,0.0,0.0,0.0,0.0,0.0,0.0,0.0,0.0,8.9189,9.5057,10.0481,10.4982,10.7521,10.4982,9.8365,9.0367,0.0,0.0,6.4215,5.9737,5.6729,5.5207,5.6235,5.6271,5.672,5.8739,5.9467,6.2389,6.9915,7.4431,0.0,0.0,0.0,0.0,0.0,10.7628,10.7723,10.5686,10.5611,10.4807,10.3076,10.3593,10.3097,10.1404,10.1904,10.1664,10.0505,9.886,9.7981,9.7936,9.6298,9.5821,9.6288,9.6288,9.6288,9.6288,9.6288,9.5826,9.4903,9.4057,9.321,9.2402,9.1556,9.0568,8.9569,8.9301,8.8083,8.6492,0.0,0.0,0.0,0.0,0.0,0.0,4.9517,5.3732,5.7908,6.1987,6.4507,6.5663,6.5073,5.9533,5.5593,5.5025,5.0895,0.0,0.0,0.0,0.0,0.0,0.0,0.0,0.0,0.0,5.7819,5.9511,5.9511,5.9935,6.0781,6.0781,0.0,0.0,0.0,0.0,0.0,0.0,0.0,0.0,0.0,0.0,0.0,0.0,0.0,0.0,0.0,0.0,0.0,0.0,0.0,0.0,0.0,5.8998,0.0,0.0,8.4241,9.2172,9.6403,10.1904,10.579,10.3289,9.7519,9.0178,0.0,0.0,6.3273,5.8499,5.5225,5.3702,5.5317,5.495,5.5386,5.826,6.0683,6.478,7.2067,7.7099,0.0,0.0,0.0,0.0,0.0,10.4309,10.7315,10.6378,10.6408,10.5676,10.3998,10.392,10.3097,10.1404,10.1289,10.1327,10.1327,9.9635,9.8788,9.8788,9.7096,9.6288,9.6288,9.6288,9.6288,9.6288,9.6288,9.5826,9.4903,9.4057,9.321,9.2402,9.1556,9.121,9.1095,9.021,8.9458,8.8786,0.0,0.0,0.0,0.0,0.0,0.0,0.0,4.9036,5.1529,5.7134,5.802,5.8961,6.1271,5.7604,5.4731,5.413,5.1078,0.0,0.0,0.0,0.0,0.0,0.0,0.0,0.0,0.0,5.7997,5.8195,5.9687,6.0512,6.0781,6.0781,6.0781,6.0781,0.0,0.0,0.0,0.0,0.0,0.0,0.0,0.0,0.0,0.0,0.0,0.0,0.0,0.0,0.0,0.0,0.0,0.0,0.0,0.0,0.0,6.6105,7.5012,8.3671,8.7064,9.2364,9.6019,9.2249,8.7555,8.2073,7.5451,0.0,6.2521,5.8349,5.5669,5.4326,5.539,5.495,5.5765,6.0038,6.1575,6.3712,6.7747,0.0,0.0,0.0,0.0,0.0,0.0,0.0,10.8789,10.73,10.7312,10.6304,10.4001,10.3901,10.3405,10.2212,10.1597,10.1019,10.0481,9.9365,9.8481,9.7904,9.6826,9.6288,9.6288,9.6288,9.6288,9.6288,9.6288,9.6134,9.5788,9.4287,9.3557,9.3172,9.1748,9.121,9.1171,9.0902,9.034,8.9583,0.0,0.0,0.0,0.0,0.0,0.0,0.0,4.7007,4.8761,5.2797,5.3164,5.4588,5.8538,5.489,5.2742,5.4056,5.1632,0.0,0.0,0.0,0.0,0.0,0.0,0.0,5.4937,5.6687,5.8209,5.9483,6.1326,6.2397,6.2743,6.3012,6.2512,6.1281,6.1281,0.0,0.0,0.0,0.0,0.0,0.0,0.0,5.797,0.0,0.0,0.0,0.0,0.0,0.0,0.0,0.0,0.0,0.0,0.0,0.0,0.0,6.6858,7.4287,7.9736,8.5093,8.8479,8.5824,8.1977,7.7431,0.0,0.0,0.0,5.775,5.5495,5.4326,5.4806,5.4637,5.5458,5.8615,5.9748,6.164,6.5493,0.0,0.0,0.0,0.0,0.0,0.0,10.9878,10.9619,10.8164,10.7807,10.6713,10.4482,10.4097,10.3482,10.2597,10.1481,10.0596,10.0096,9.8904,9.8057,9.748,9.6673,9.6288,9.6288,9.6288,9.6288,9.6288,9.5942,9.5826,0.0,9.3941,9.3249,9.3095,9.1748,9.121,9.121,9.121,9.0914,9.0451,0.0,0.0,0.0,0.0,0.0,0.0,0.0,4.7099,4.8716,4.9029,4.9798,5.188,5.6092,5.1519,4.9852,5.4056,5.2264,0.0,0.0,0.0,0.0,0.0,0.0,0.0,5.5559,5.6177,5.8359,6.2285,6.3729,6.4872,6.5743,6.659,6.5282,6.2166,6.2142,6.139,0.0,0.0,0.0,0.0,5.8851,5.7954,0.0,0.0,0.0,0.0,0.0,0.0,0.0,0.0,0.0,0.0,0.0,0.0,0.0,0.0,0.0,0.0,0.0,7.9092,8.2208,8.2093,7.9054,7.4866,6.9965,0.0,0.0,0.0,0.0,0.0,5.3907,5.4193,5.4664,5.5436,5.6515,5.9365,6.5315,7.1212,0.0,0.0,0.0,0.0,10.3891,10.7705,10.9722,10.8821,10.7979,10.679,10.4982,10.4212,10.3405,10.2481,10.0904,9.9981,9.9981,9.8404,9.7519,9.7403,9.6673,9.6288,9.6288,9.6288,9.6288,9.6249,9.5365,9.498,9.4864,9.3172,9.2479,9.2402,9.1556,9.121,9.121,9.121,9.121,9.121,0.0,0.0,0.0,0.0,0.0,0.0,0.0,0.0,0.0,0.0,4.6292,4.6908,4.8238,4.7945,4.7984,0.0,0.0,0.0,0.0,0.0,0.0,0.0,0.0,0.0,5.4667,5.6096,5.7592,5.9252,6.1827,6.3368,6.3935,6.5474,6.5051,6.2988,6.264,6.1416,0.0,0.0,0.0,0.0,5.7454,5.6931,0.0,0.0,0.0,0.0,5.5161,5.5769,0.0,0.0,0.0,0.0,0.0,0.0,0.0,0.0,5.8257,5.9138,6.272,0.0,6.8744,6.7475,6.5897,6.4257,0.0,0.0,0.0,0.0,0.0,0.0,0.0,5.4498,5.5323,5.9419,6.058,6.2575,6.6958,0.0,0.0,0.0,0.0,0.0,10.5899,10.8536,10.9282,10.711,10.6803,10.5713,10.3289,10.2981,10.2212,10.0712,9.9673,9.9096,9.9096,9.8711,9.7865,9.6596,9.6403,9.6288,9.6288,9.6288,9.6288,9.6249,9.5365,9.498,9.4864,9.3172,9.2479,9.2402,9.1556,9.121,9.121,9.121,9.121,9.121,0.0,0.0,0.0,0.0,0.0,0.0,0.0,0.0,0.0,0.0,4.5222,4.5629,4.6396,4.7089,4.7606,0.0,0.0,0.0,0.0,0.0,0.0,0.0,0.0,5.4179,5.4399,5.6217,5.7977,5.9628,6.2786,6.4679,6.535,6.6896,6.632,6.3795,6.2185,6.0784,0.0,0.0,0.0,0.0,5.7213,0.0,0.0,0.0,0.0,0.0,5.5375,5.5531,0.0,5.6606,5.7005,5.7339,0.0,0.0,0.0,0.0,5.6541,5.6304,5.7454,6.0242,6.2743,6.2204,6.1435,6.0671,6.0189,0.0,0.0,0.0,0.0,0.0,0.0,0.0,0.0,5.9239,6.093,6.4671,0.0,0.0,0.0,0.0,0.0,10.8026,0.0,10.9282,10.8893,10.7073,10.6314,10.4905,10.2712,10.2212,10.1404,10.0096,9.925,9.8596,9.8211,9.7827,9.7211,9.6288,9.6288,9.6095,9.5711,9.5711,9.548,9.5095,9.4595,9.4172,9.3787,9.2864,9.2249,9.1864,9.1364,9.121,9.121,9.121,9.121,9.121,0.0,0.0,0.0,0.0,0.0,0.0,0.0,0.0,0.0,0.0,0.0,0.0,0.0,0.0,0.0,0.0,0.0,0.0,0.0,0.0,0.0,0.0,5.3812,5.4326,5.4583,5.6302,5.8452,6.101,6.4696,6.6924,6.7852,6.976,6.8679,6.4936,6.1993,6.0446,0.0,0.0,0.0,0.0,5.7474,0.0,0.0,0.0,0.0,0.0,0.0,0.0,0.0,5.6825,5.6692,5.5992,5.6992,0.0,0.0,0.0,0.0,0.0,5.5938,5.8404,6.081,6.1204,6.0781,6.0133,5.9737,0.0,0.0,0.0,0.0,0.0,0.0,0.0,0.0,0.0,0.0,0.0,0.0,0.0,0.0,0.0,10.5892,0.0,11.0391,10.9402,10.829,10.7405,10.5713,10.3982,10.252,10.1597,10.0712,9.9904,9.9058,9.8173,9.7326,9.6749,9.6442,9.6288,9.6172,9.5788,9.5172,9.4903,9.448,9.3864,9.3633,9.3133,9.2479,9.2364,9.1864,9.121,9.121,9.121,9.121,9.121,9.121,9.1171,0.0,0.0,0.0,0.0,0.0,0.0,0.0,0.0,0.0,0.0,0.0,0.0,0.0,0.0,0.0,0.0,0.0,0.0,0.0,0.0,0.0,5.2197,5.2968,5.4032,5.539,5.5735,5.7134,5.9696,6.4556,6.7364,6.8394,7.2909,7.2255,6.7126,6.4474,6.2116,6.0027,5.9188,0.0,5.8289,5.7373,0.0,0.0,0.0,0.0,0.0,0.0,0.0,0.0,5.6534,5.6588,5.6662,5.6443,0.0,0.0,0.0,0.0,0.0,5.7587,5.9338,5.9879,5.8197,5.7665,5.755,0.0,0.0,0.0,0.0,0.0,0.0,0.0,0.0,0.0,0.0,0.0,0.0,0.0,0.0,0.0,0.0,0.0,10.7329,10.6308,10.7187,10.7213,10.5597,10.3905,10.252,10.1597,10.0712,9.9865,9.9019,9.8134,9.7326,9.648,9.7057,9.698,9.6288,9.5557,9.5518,9.6057,9.4557,9.421,9.4711,9.3287,9.2595,9.2441,9.171,9.1325,9.121,9.121,9.121,9.121,9.121,9.121,9.1095,0.0,0.0,0.0,0.0,0.0,0.0,0.0,0.0,0.0,0.0,0.0,0.0,0.0,0.0,0.0,0.0,0.0,0.0,0.0,0.0,5.2968,5.3885,5.3885,5.4179,5.495,5.7845,5.9901,6.113,6.72,7.0552,7.1444,7.2237,7.0738,6.7218,6.3778,6.1325,5.9716,5.8911,5.8179,5.7511,0.0,0.0,0.0,0.0,0.0,0.0,0.0,0.0,0.0,0.0,5.6329,5.588,5.5915,0.0,0.0,0.0,0.0,0.0,5.6282,5.7499,5.8077,5.7789,5.8742,5.9396,0.0,0.0,0.0,0.0,0.0,0.0,0.0,0.0,0.0,0.0,0.0,0.0,0.0,0.0,0.0,0.0,0.0,10.6706,10.7825,10.7394,10.6482,10.5213,10.3097,10.152,10.0712,9.9404,9.8519,9.8096,9.7288,9.6673,9.6288,9.6673,9.6673,9.6288,9.5903,9.5403,9.4864,9.4057,9.3403,9.2941,9.2633,9.221,9.1787,9.1864,9.1633,9.121,9.121,9.121,9.121,9.121,9.121,9.1018,0.0,0.0,0.0,0.0,0.0,0.0,0.0,0.0,0.0,0.0,0.0,0.0,0.0,0.0,0.0,0.0,0.0,0.0,0.0,5.1463,5.2821,5.4656,5.5196,5.5638,5.6088,6.0481,6.3364,6.4462,7.1065,7.4962,7.6174,7.2784,7.0052,6.7821,6.3551,6.0858,5.9473,5.8858,5.7973,5.6934,0.0,0.0,0.0,0.0,0.0,0.0,0.0,0.0,0.0,0.0,0.0,0.0,0.0,0.0,0.0,5.4242,5.3941,5.4003,5.5589,5.6355,5.6931,0.0,0.0,0.0,0.0,0.0,0.0,0.0,0.0,0.0,0.0,0.0,0.0,0.0,0.0,0.0,0.0,9.4749,9.8596,10.3597,10.4905,10.6405,10.9098,10.7213,10.5405,10.4289,10.2212,10.0712,9.9827,9.8327,9.7519,9.7519,9.6711,9.6288,9.6288,9.6095,9.6095,9.6288,9.6095,9.5288,9.398,9.3595,9.271,9.1518,9.1979,9.1825,9.1248,9.1902,9.1787,9.121,9.121,9.121,9.121,9.121,9.121,9.0979,0.0,0.0,0.0,0.0,0.0,0.0,0.0,0.0,0.0,0.0,0.0,0.0,0.0,0.0,0.0,0.0,0.0,0.0,0.0,5.1132,5.2087,5.2234,5.624,5.9324,6.1006,6.2792,6.5782,7.0032,7.5818,8.011,8.2792,7.7861,7.3783,7.0437,6.6205,6.2512,5.9511,5.9435,5.8473,5.6973,5.6934,0.0,0.0,0.0,0.0,0.0,0.0,0.0,0.0,0.0,0.0,0.0,0.0,0.0,5.4056,5.5224,5.449,5.4025,5.7654,5.8072,5.7657,5.8174,0.0,0.0,0.0,0.0,0.0,0.0,0.0,0.0,0.0,0.0,0.0,0.0,0.0,0.0,9.7673,0.0,10.2789,10.4789,10.579,10.6405,10.6597,10.5097,10.3405,10.1712,10.0712,9.9788,9.8942,9.8019,9.7519,9.7519,9.6711,9.6288,9.6288,9.548,9.548,9.6288,9.548,9.5018,9.4826,9.3287,9.2518,9.2364,9.1633,9.1248,9.121,9.1287,9.1248,9.121,9.121,9.121,9.121,9.121,9.121,9.1056,0.0,0.0,0.0,0.0,0.0,0.0,0.0,0.0,0.0,0.0,0.0,0.0,0.0,0.0,0.0,0.0,0.0,0.0,0.0,5.1038,5.241,5.495,5.6481,5.8905,6.2375,6.8033,7.2852,7.6694,8.1224,8.35,8.3439,7.6746,7.1822,6.8359,6.4128,6.1204,5.9473,5.8973,5.8088,5.6934,5.6395,5.5972,0.0,0.0,0.0,0.0,0.0,0.0,0.0,0.0,5.5618,5.4952,5.5462,5.5678,5.5676,5.5131,5.4671,5.4572,5.55,5.6869,5.8103,0.0,0.0,0.0,0.0,0.0,0.0,0.0,0.0,0.0,0.0,0.0,0.0,0.0,0.0,9.5518,9.8404,10.0519,10.2404,10.4097,10.4597,10.4982,10.5482,10.3597,10.202,10.1289,9.9558,9.8327,9.8019,9.7211,9.6749,9.6749,9.648,9.6288,9.6288,9.5441,9.5172,9.548,9.5172,9.4441,9.3441,9.3287,9.2364,9.0902,9.1133,9.0902,9.0441,9.0979,9.121,9.121,9.121,9.121,9.121,9.121,9.121,9.1095,0.0,0.0,0.0,0.0,0.0,0.0,0.0,0.0,0.0,0.0,0.0,0.0,0.0,0.0,0.0,0.0,0.0,0.0,5.1058,5.1191,5.2565,5.5626,5.6616,5.9058,6.3232,7.1311,7.7096,8.0353,8.4771,8.5209,8.1823,7.5553,7.1052,6.809,6.3589,6.1396,6.1012,5.9358,5.8011,5.6896,5.6049,5.5703,0.0,0.0,0.0,0.0,0.0,0.0,0.0,0.0,5.5231,5.4752,5.5161,5.5815,5.6209,5.5189,5.4699,5.4306,5.3465,5.4933,5.6703,0.0,0.0,0.0,0.0,0.0,0.0,0.0,0.0,0.0,0.0,0.0,0.0,0.0,9.321,9.6596,9.8904,10.0404,10.1789,10.3289,10.3482,10.3597,10.3905,10.2097,10.0712,10.0096,9.8481,9.7403,9.7134,9.6596,9.6172,9.5903,9.5903,9.5749,9.548,9.4634,9.421,9.421,9.421,9.3595,9.2518,9.3056,9.221,9.0364,9.0941,9.0864,9.0364,9.0941,9.121,9.121,9.121,9.121,9.121,9.121,9.121,9.1133,0.0,0.0,0.0,0.0,0.0,0.0,0.0,0.0,0.0,0.0,0.0,0.0,0.0,0.0,0.0,0.0,0.0,0.0,5.0644,5.1541,5.2371,5.317,5.6844,6.0466,6.3855,7.1833,7.7368,8.0278,8.5887,8.5132,7.8361,7.5014,7.2514,7.0591,6.559,6.3782,6.4359,6.0935,5.855,5.6934,5.6049,5.5703,5.5703,0.0,0.0,0.0,0.0,0.0,0.0,0.0,5.4848,5.4015,5.5308,5.5423,5.5186,5.5577,5.4511,5.3049,5.2164,5.2549,0.0,0.0,0.0,0.0,0.0,0.0,0.0,0.0,0.0,0.0,0.0,0.0,0.0,0.0,9.4172,9.8096,9.9827,10.0789,10.1597,10.252,10.2597,10.2212,10.1404,10.0481,9.9365,9.7634,9.748,9.7134,9.6326,9.6288,9.5903,9.5018,9.498,9.4557,9.371,9.2903,9.2479,9.2479,9.2479,9.2479,9.2479,9.2479,9.2018,9.121,9.121,9.121,9.121,9.121,9.121,9.121,9.121,9.121,9.121,9.121,9.121,9.121,0.0,0.0,0.0,0.0,0.0,0.0,0.0,0.0,0.0,0.0,0.0,0.0,0.0,0.0,0.0,0.0,0.0,0.0,5.1064,5.1651,5.2637,5.4063,5.6064,5.776,5.9024,6.6692,7.4879,8.3504,8.4566,8.1323,7.4014,7.2437,6.9167,6.4743,6.559,6.4474,6.182,6.0204,5.8896,5.778,5.628,5.5703,5.5703,0.0,0.0,0.0,0.0,0.0,0.0,0.0,0.0,0.0,5.4528,5.5983,5.7013,5.5335,5.5357,5.528,5.2626,0.0,0.0,0.0,0.0,0.0,0.0,0.0,0.0,0.0,0.0,0.0,0.0,0.0,0.0,8.971,9.3172,9.6326,9.8019,9.8981,9.9635,9.9904,9.9942,9.9827,9.9558,9.875,9.8057,9.7557,9.698,9.6557,9.6326,9.6288,9.5903,9.5018,9.498,9.4557,9.371,9.2903,9.2479,9.2479,9.1864,9.1595,9.1595,9.221,9.171,9.0287,9.0287,9.0287,9.0325,9.0941,9.121,9.121,9.121,9.121,9.121,9.121,9.121,9.121,0.0,0.0,0.0,0.0,0.0,0.0,0.0,0.0,0.0,0.0,4.5532,4.605,0.0,0.0,0.0,0.0,0.0,0.0,0.0,5.1967,5.2933,5.3951,5.5331,5.7019,5.8973,6.5166,7.1168,7.6861,7.8669,7.6169,6.9706,7.086,6.9321,6.5743,6.8783,6.7975,6.4205,6.232,6.0281,5.8165,5.678,5.6203,5.6203,0.0,0.0,0.0,0.0,0.0,0.0,0.0,0.0,0.0,5.351,5.5011,5.6434,5.4549,5.4241,5.4126,5.2395,0.0,0.0,0.0,0.0,0.0,0.0,0.0,0.0,0.0,0.0,0.0,0.0,0.0,0.0,9.0787,9.3518,9.598,9.7326,9.7942,9.8404,9.875,9.8788,9.8673,9.8327,9.7827,9.7365,9.7057,9.6249,9.5788,9.5788,9.5441,9.4864,9.4018,9.4018,9.3595,9.271,9.221,9.1825,9.1479,9.1287,9.0864,9.0248,9.1441,9.121,8.9902,8.9556,8.944,8.9479,9.0325,9.0671,9.0671,9.0671,9.0671,9.0633,9.0325,9.0402,9.0671,0.0,0.0,4.5419,4.48,0.0,0.0,0.0,0.0,0.0,0.0,4.5419,4.5783,0.0,0.0,0.0,0.0,0.0,0.0,5.0702,5.2202,5.3126,5.3203,5.4895,5.7665,6.1666,6.5513,6.6295,6.3962,6.9986,7.0398,6.5628,7.0014,7.1591,7.0783,7.3437,7.2629,6.9129,6.5628,6.182,5.8127,5.7242,5.6857,5.6857,5.6857,0.0,0.0,0.0,0.0,0.0,0.0,0.0,0.0,5.2626,5.328,5.4434,5.3507,5.2259,5.1318,0.0,0.0,0.0,0.0,0.0,0.0,0.0,0.0,0.0,0.0,0.0,0.0,0.0,0.0,9.1902,9.2595,9.4749,9.6557,9.7288,9.7403,9.7673,9.8481,9.8557,9.825,9.748,9.7403,9.7057,9.6249,9.5441,9.4941,9.4864,9.4134,9.3326,9.2518,9.2402,9.1979,9.1095,9.1018,9.0556,8.9825,9.0594,9.0171,8.8748,9.0364,9.0556,8.9633,8.8979,8.8632,8.8632,8.9479,8.9787,8.9787,8.9787,8.9787,8.971,8.8979,8.9171,8.9825,0.0,0.0,4.5568,4.5419,0.0,0.0,0.0,0.0,0.0,0.0,0.0,0.0,0.0,0.0,0.0,0.0,0.0,0.0,5.0702,5.1625,5.2472,5.3164,5.5472,5.7473,5.9088,6.0012,6.0008,5.9098,6.5409,6.6551,6.3051,6.859,7.0398,6.909,7.2322,7.1129,6.6436,6.2358,5.9319,5.7203,5.6319,5.5972,5.5972,5.5972,5.5857,0.0,0.0,0.0,0.0,0.0,0.0,0.0,5.3857,5.4626,5.5198,5.4025,5.4143,0.0,0.0,0.0,0.0,0.0,0.0,0.0,0.0,0.0,0.0,0.0,0.0,0.0,0.0,9.4864,9.5057,9.4518,9.548,9.6365,9.6519,9.6557,9.6634,9.6826,9.6826,9.6749,9.6596,9.6557,9.6211,9.5326,9.5095,9.4711,9.4018,9.3787,9.3326,9.2518,9.1825,9.1056,9.021,8.9556,8.9133,8.894,8.9133,8.9056,8.8709,8.9748,8.9363,8.7979,8.8479,8.8286,8.7748,8.8594,8.894,8.894,8.894,8.894,8.894,8.8748,8.8786,8.9056,0.0,0.0,0.0,0.0,0.0,0.0,0.0,0.0,0.0,0.0,0.0,0.0,0.0,0.0,0.0,0.0,4.9586,5.024,5.0664,5.1471,5.2472,5.378,5.5472,5.6588,5.7049,5.7049,5.6836,5.6404,5.9523,6.1094,6.1313,6.7011,6.9475,6.9206,7.3014,7.1437,6.5705,6.2627,5.9896,5.755,5.6665,5.6549,5.6896,5.6472,5.6049,5.5703,5.5703,0.0,0.0,0.0,0.0,0.0,0.0,0.0,5.4374,5.3698,5.3421,5.3605,0.0,0.0,0.0,0.0,0.0,0.0,0.0,0.0,0.0,0.0,0.0,0.0,9.5788,9.598,9.6134,9.5711,9.6019,9.6288,9.6288,9.6288,9.6288,9.6288,9.5942,9.5826,9.6249,9.5557,9.5018,9.498,9.3864,9.2979,9.2518,9.1748,9.1095,9.0671,9.0248,8.9787,8.9325,8.8479,8.7863,8.744,8.744,8.7248,8.6901,8.8132,8.8248,8.7401,8.744,8.7209,8.6863,8.7709,8.8055,8.8055,8.8055,8.8055,8.8017,8.7594,8.7709,8.8209,0.0,0.0,0.0,0.0,0.0,0.0,0.0,0.0,0.0,0.0,0.0,0.0,0.0,0.0,4.7163,0.0,0.0,0.0,5.0433,5.1356,5.2626,5.4203,5.5049,5.5549,5.5703,5.5549,5.5331,5.5026,5.4641,5.6635,6.0836,6.5855,6.8975,7.0475,7.3399,7.1475,6.5936,6.332,6.0512,5.778,5.7049,5.7203,5.778,5.7049,5.6319,5.5703,5.5703,5.5703,5.5588,5.4934,0.0,0.0,0.0,0.0,5.3374,5.3178,5.2046,5.1587,0.0,0.0,0.0,0.0,0.0,0.0,0.0,0.0,0.0,0.0,0.0,9.6095,9.6095,9.5942,9.5865,9.5865,9.5865,9.5865,9.5865,9.5865,9.5865,9.5865,9.5211,9.5057,9.5788,9.4557,9.3864,9.4287,9.2402,9.1056,9.0787,8.944,8.8632,8.8479,8.8325,8.8171,8.8055,8.7171,8.6363,8.567,8.567,8.5324,8.4709,8.6094,8.6748,8.6709,8.6132,8.5901,8.5978,8.6824,8.7171,8.7171,8.7171,8.7171,8.7094,8.6363,8.6555,8.7286,0.0,0.0,0.0,0.0,0.0,0.0,0.0,0.0,0.0,0.0,4.5568,4.5586,0.0,4.6337,4.6932,4.7048,4.8509,4.9433,4.9586,0.0,0.0,5.3318,5.4203,5.4972,5.5665,5.5011,5.4623,5.4579,5.4546,0.0,0.0,0.0,6.9321,7.2899,7.0514,6.8475,6.6551,6.0435,5.7126,5.6049,5.5934,5.5934,5.6011,5.5934,5.578,5.5703,5.5703,5.5703,5.5665,5.5588,5.5588,0.0,0.0,0.0,5.4122,5.2982,5.2219,0.0,0.0,0.0,0.0,0.0,0.0,0.0,0.0,0.0,0.0,0.0,9.5172,9.5172,9.5172,9.4557,9.4057,9.4057,9.4057,9.4057,9.4057,9.4057,9.4057,9.4057,9.3941,9.3903,9.4018,9.3826,9.3133,9.1825,9.1402,9.0556,8.9094,8.8825,8.8363,8.7594,8.6824,8.6094,8.5401,8.4555,8.4055,8.3939,8.3939,8.3862,8.3785,8.4016,8.4093,8.4132,8.4786,8.5055,8.5132,8.594,8.6286,8.6286,8.6286,8.6286,8.6247,8.6132,8.617,8.6401,0.0,0.0,0.0,0.0,0.0,0.0,0.0,0.0,0.0,0.0,0.0,4.5586,4.5586,4.5932,4.6355,4.6855,4.7586,4.8394,4.9356,5.0087,5.1087,5.2433,5.2856,5.3433,5.428,5.3245,5.306,5.3773,5.3544,0.0,0.0,6.6165,6.9398,0.0,0.0,6.7398,6.5359,6.0012,5.7242,5.6395,5.5895,5.5972,5.6357,5.5895,5.5703,5.5703,5.5703,5.5703,0.0,0.0,5.5703,5.5549,5.4741,0.0,0.0,0.0,0.0,0.0,0.0,0.0,0.0,0.0,0.0,0.0,0.0,0.0,0.0,9.4172,9.3903,9.3749,9.4172,9.3941,9.371,9.371,9.371,9.371,9.371,9.371,9.371,9.371,9.2864,9.2479,9.2979,9.1748,9.0594,8.9863,8.9363,8.8325,8.6671,8.6555,8.617,8.5286,8.4901,8.4516,8.417,8.3324,8.2631,8.2208,8.267,8.2631,8.2208,8.267,8.3131,8.3593,8.4016,8.417,8.4209,8.4555,8.4978,8.544,8.544,8.5709,8.6094,8.6094,8.6094,8.6209,0.0,0.0,0.0,0.0,0.0,0.0,0.0,0.0,0.0,0.0,0.0,4.5586,4.5586,0.0,0.0,0.0,4.6971,4.7932,4.9625,4.974,5.0279,5.1548,5.1587,5.1895,5.2549,5.1538,5.1494,5.2567,0.0,0.0,6.527,6.6739,7.0514,0.0,7.1591,6.8052,0.0,0.0,0.0,0.0,5.6165,5.578,5.628,5.5626,5.5241,5.5126,5.5549,0.0,0.0,0.0,0.0,0.0,0.0,0.0,0.0,0.0,0.0,0.0,0.0,0.0,0.0,0.0,0.0,0.0,0.0,0.0,9.2287,0.0,9.2249,9.1633,9.2018,9.2633,9.2979,9.2787,9.2749,9.2672,9.2441,9.2441,9.2441,9.2441,9.1325,9.0748,9.1171,8.9479,8.8171,8.7748,8.7132,8.6132,8.467,8.4555,8.417,8.3285,8.3247,8.317,8.2978,8.2324,8.1708,8.1093,8.1708,8.167,8.1131,8.1708,8.2362,8.2978,8.317,8.3247,8.3285,8.3516,8.3978,8.4593,8.4824,8.5286,8.5824,8.6017,8.6094,8.6209,0.0,0.0,0.0,0.0,0.0,0.0,0.0,0.0,0.0,0.0,0.0,4.5586,4.5586,4.5586,4.5624,4.5663,4.7124,4.8779,5.051,5.0625,5.0664,5.0741,5.0741,0.0,5.0818,5.039,5.0392,0.0,0.0,0.0,6.7085,6.7927,7.363,8.2785,7.6169,7.0898,6.6744,0.0,0.0,0.0,5.6511,5.4587,5.4626,5.4587,5.4049,5.3549,0.0,0.0,0.0,0.0,0.0,0.0,0.0,0.0,0.0,0.0,0.0,0.0,0.0,0.0,0.0,0.0,0.0,0.0,0.0,0.0,0.0,9.0825,9.0017,8.8671,8.7863,8.971,9.1056,9.0248,9.0094,8.9825,8.9056,8.894,8.894,8.894,8.8863,8.8517,8.7748,8.7555,8.6824,8.5209,8.5055,8.4632,8.3708,8.367,8.3247,8.2401,8.2362,8.2016,8.1246,8.1208,8.1131,8.1093,8.1131,8.1131,8.1093,8.1131,8.1208,8.1285,8.2054,8.2362,8.2439,8.3247,8.3632,8.3747,8.4593,8.4939,8.5055,8.5824,8.6094,8.6094,0.0,0.0,0.0,0.0,0.0,0.0,0.0,0.0,0.0,0.0,0.0,0.0,0.0,4.5586,4.5817,4.6394,4.7471,4.8586,4.9779,4.9856,5.0125,5.0664,5.0702,5.0933,5.1471,5.0581,5.081,0.0,0.0,5.6521,6.3982,6.7007,7.0937,7.5322,7.2899,7.0975,6.909,6.2474,0.0,0.0,5.5049,5.4318,5.5088,0.0,0.0,0.0,0.0,0.0,0.0,0.0,0.0,0.0,0.0,0.0,0.0,0.0,0.0,0.0,0.0,0.0,0.0,0.0,0.0,0.0,0.0,8.367,8.6055,8.6978,8.7094,8.694,8.6632,8.8209,8.9325,8.844,8.8748,8.8825,8.7979,8.8363,8.8479,8.794,8.7363,8.6901,8.6594,8.5593,8.4478,8.3324,8.3747,8.3439,8.2054,8.2477,8.2401,8.1554,8.1516,8.14,8.1093,8.1093,8.1093,8.1093,8.1093,8.1093,8.1093,8.1093,8.1093,8.1131,8.14,8.1516,8.1554,8.1862,8.2285,8.2862,8.3708,8.4401,8.4939,8.5209,8.567,8.6017,0.0,0.0,0.0,0.0,0.0,0.0,0.0,0.0,0.0,4.5586,0.0,0.0,0.0,0.0,4.6509,4.7625,4.824,4.8894,4.9779,4.9817,5.0087,5.0664,5.0971,5.1356,5.1895,5.1152,5.1309,0.0,0.0,0.0,0.0,6.4949,6.8513,7.1706,6.9667,6.9898,0.0,0.0,0.0,6.0012,0.0,5.5049,5.6434,0.0,0.0,0.0,0.0,0.0,0.0,0.0,0.0,0.0,0.0,0.0,0.0,0.0,0.0,0.0,0.0,0.0,0.0,0.0,0.0,0.0,7.5938,0.0,8.1554,8.3285,8.4247,8.4824,8.4824,8.6017,8.6901,8.6594,8.7055,8.7132,8.6247,8.6632,8.6748,8.617,8.5593,8.5132,8.4863,8.3824,8.2824,8.1939,8.2439,8.2285,8.117,8.1593,8.1631,8.1131,8.1093,8.1093,8.1093,8.1093,8.1093,8.1093,8.1093,8.1093,8.1093,8.1093,8.1093,8.1093,8.1093,8.1093,8.1093,8.1093,8.14,8.2016,8.3131,8.3785,8.4132,8.4978,8.5478,8.567,0.0,0.0,0.0,0.0,0.0,0.0,0.0,0.0,4.5586,4.5624,0.0,0.0,0.0,0.0,0.0,4.9317,4.951,4.9856,5.0625,5.0702,5.0702,5.0741,5.1471,5.1933,5.1972,5.2015,5.1647,5.0959,5.247,5.5334,5.955,0.0,6.6782,7.2937,6.7205,6.7898,7.3168,0.0,6.9129,6.6359,0.0,5.678,5.855,0.0,0.0,0.0,6.0127,5.8588,0.0,0.0,0.0,0.0,0.0,0.0,0.0,0.0,0.0,0.0,0.0,0.0,0.0,0.0,0.0,0.0,7.4284,7.4899,7.463,7.9746,8.1439,8.2054,8.2208,8.2901,8.3785,8.467,8.4824,8.4555,8.367,8.3555,8.3593,8.3555,8.3555,8.3208,8.2362,8.2285,8.1939,8.117,8.1093,8.1093,8.1093,8.1093,8.1093,8.1093,8.1093,8.1093,8.1093,8.1093,8.1093,8.1093,8.1093,8.1093,8.1093,8.1093,8.1093,8.1093,8.1093,8.1093,8.1093,8.1093,8.1093,8.1246,8.2901,8.3016,8.2593,8.5093,8.5555,8.5016,0.0,0.0,0.0,0.0,0.0,4.5586,4.5586,4.5586,4.5817,0.0,0.0,0.0,4.7355,4.9279,5.0702,5.1164,5.1779,5.1741,5.0741,5.0702,5.0971,5.1548,5.1779,5.251,5.3741,5.3168,5.3187,5.3905,5.3416,5.46,5.7349,5.9536,6.2551,6.6128,6.632,6.7013,6.7705,6.2858,0.0,0.0,5.7665,5.805,0.0,0.0,0.0,0.0,0.0,5.8204,0.0,0.0,5.6588,5.5857,0.0,0.0,0.0,0.0,0.0,0.0,5.0702,0.0,0.0,0.0,0.0,0.0,6.2589,6.4897,6.759,7.2668,7.4399,7.613,7.9823,8.0708,8.1131,8.2016,8.317,8.367,8.2785,8.3208,8.3362,8.2708,8.267,8.2554,8.2324,8.1785,8.1323,8.1131,8.1093,8.1093,8.1093,8.1093,8.1093,8.1093,8.1093,8.1093,8.1093,8.1093,8.1093,8.1093,8.1093,8.1093,8.1093,8.1093,8.1093,8.1093,8.1093,8.1093,8.1093,8.1093,8.1093,8.1208,8.2247,8.2516,8.2439,8.3785,8.4555,8.4939,0.0,0.0,4.5701,4.6086,4.6432,4.6624,4.6624,4.6932,4.724,0.0,0.0,0.0,4.9548,5.1972,5.3203,5.251,5.2933,5.2779,5.1818,5.1395,5.1587,5.2433,5.2779,5.3472,5.4472,5.415,5.4202,5.46,5.4202,5.447,5.5401,5.7105,5.8896,6.0704,6.182,6.2474,0.0,0.0,0.0,0.0,5.9242,0.0,0.0,6.1935,6.2243,0.0,0.0,0.0,6.282,6.0204,5.8627,0.0,0.0,0.0,0.0,0.0,0.0,0.0,0.0,0.0,0.0,0.0,0.0,0.0,5.8011,5.9473,6.1473,6.6244,6.8475,7.0898,7.5284,7.6669,7.7592,7.8784,8.0092,8.117,8.1708,8.2247,8.2362,8.1862,8.1785,8.1785,8.1785,8.1362,8.1093,8.1093,8.1093,8.0939,8.0592,8.0208,8.0015,8.0015,8.0015,8.0169,8.0554,8.0554,8.0746,8.1093,8.1093,8.1093,8.1093,8.1093,8.1093,8.1093,8.1093,8.1093,8.1093,8.1093,8.1093,8.117,8.1977,8.2093,8.1977,8.3555,8.4247,8.4478,0.0,0.0,4.5893,4.6855,4.7702,4.8317,4.8509,4.9086,4.9356,0.0,4.9663,5.0971,5.2818,5.4895,5.5511,5.4049,5.3741,5.351,5.3241,5.2472,5.2433,5.3318,5.4087,5.4549,5.4626,5.4891,5.469,5.3964,5.4613,5.4575,5.3989,5.5055,5.6011,5.6819,5.6049,5.6549,5.7973,0.0,0.0,6.1704,6.2089,6.3935,0.0,0.0,7.0206,0.0,7.0898,6.9937,6.7898,6.2897,5.9511,0.0,0.0,0.0,0.0,0.0,5.3203,0.0,0.0,0.0,0.0,0.0,5.4395,0.0,5.7396,5.6896,5.6588,6.0666,6.332,6.6013,6.9667,7.1668,7.3283,7.4784,7.613,7.79,8.0439,8.0823,8.0823,8.0823,8.0823,8.0823,8.0823,8.0823,8.0823,8.0823,8.0823,8.0477,7.9708,7.89,7.8477,7.8477,7.8477,7.8861,7.9669,7.9746,8.0208,8.0977,8.1054,8.1093,8.1093,8.1093,8.1093,8.1093,8.1093,8.1093,8.1093,8.1093,8.1093,8.117,8.19,8.1747,8.14,8.3862,8.4286,8.3824,4.5586,4.5586,4.6086,4.7586,4.8586,4.9586,5.0971,5.0741,5.1125,5.301,5.4549,5.6665,5.9781,5.9281,5.8627,5.8319,5.7049,5.5395,5.3318,5.3049,5.3356,5.4203,5.4395,5.478,5.5434,5.4929,5.454,5.4386,5.3848,5.3848,5.4386,5.4605,5.5164,5.5934,5.578,5.5895,5.628,0.0,0.0,5.9281,6.1973,0.0,6.9898,6.9744,7.0206,7.0898,7.0898,7.0706,6.9744,0.0,6.2166,5.955,0.0,0.0,0.0,0.0,0.0,0.0,0.0,0.0,0.0,0.0,0.0,0.0,5.2779,5.3087,5.4511,5.7396,5.8396,6.0396,6.5859,6.7667,6.8475,6.8783,7.2437,7.6092,7.8631,7.9015,7.9015,7.9015,7.9015,7.9015,7.9015,7.9015,7.9015,7.9015,7.9015,7.8938,7.8746,7.8592,7.8477,7.8477,7.8477,7.8592,7.8746,7.9438,7.99,8.0054,8.0746,8.1093,8.1093,8.1093,8.1093,8.1093,8.1093,8.1093,8.1093,8.1093,8.1093,8.1131,8.1285,8.1246,8.1323,8.317,8.3747,8.3824,4.5586,4.5586,4.6394,4.8933,5.0087,5.1356,5.3472,5.3818,5.4472,5.6165,5.8588,6.0473,6.1358,6.105,6.0089,5.8396,5.7473,5.628,5.4549,5.4434,5.4626,5.5088,5.5088,5.528,5.5703,5.4895,5.4511,5.4511,5.4049,5.4087,5.4511,5.4895,5.4857,5.4472,5.5318,5.5472,0.0,0.0,5.855,5.9281,6.3512,0.0,7.0475,7.2206,7.3591,7.4668,7.4668,7.363,7.1437,6.632,6.4051,0.0,0.0,5.6665,5.6896,0.0,5.5472,5.4434,0.0,0.0,0.0,5.4472,0.0,0.0,0.0,5.1933,5.2549,5.4664,5.4434,5.5395,6.0512,6.1781,6.2627,6.432,6.7436,7.0552,7.3091,7.6015,7.79,7.79,7.7515,7.7246,7.7246,7.763,7.8054,7.8477,7.7707,7.7246,7.7246,7.6823,7.6438,7.6015,7.6823,7.7246,7.7246,7.813,7.8977,7.9823,8.0246,8.0669,8.1093,8.1093,8.1093,8.1093,8.1093,8.1093,8.1093,8.1093,8.1093,8.1093,8.1093,8.1093,8.1246,8.2477,8.3208,8.3785,4.5586,4.574,4.6894,5.0125,5.1625,5.328,5.5818,5.6665,5.7434,5.8627,6.1281,6.282,6.2089,6.1781,6.0819,5.8858,5.7203,5.6472,5.6896,5.6011,5.5472,5.5472,5.578,5.5703,5.5241,5.4741,5.4511,5.4511,5.4511,5.4511,5.4511,5.5318,5.4972,5.3741,5.4741,0.0,0.0,0.0,0.0,6.0435,0.0,6.7898,6.9244,7.3937,7.6476,7.7592,7.8092,7.6438,7.3129,6.7667,6.6051,6.532,5.9319,5.8973,0.0,0.0,0.0,0.0,0.0,0.0,0.0,0.0,0.0,5.5011,0.0,0.0,0.0,5.2818,5.1856,5.1972,5.5395,5.6165,5.7165,5.9935,6.2358,6.4551,6.6436,7.1245,7.4899,7.5745,7.5053,7.4745,7.5207,7.5592,7.6322,7.7438,7.5822,7.5014,7.5476,7.4861,7.4168,7.3514,7.4976,7.5745,7.5745,7.6784,7.7977,7.9323,7.9669,8.0169,8.0862,8.1016,8.1093,8.1093,8.1093,8.1093,8.1093,8.1093,8.1093,8.1093,8.1093,8.1093,8.1208,8.2016,8.2862,8.3708,4.5586,4.6201,4.7586,5.024,5.2626,5.5049,5.7627,5.7434,5.7857,6.0204,6.1512,6.3281,6.609,0.0,0.0,0.0,0.0,0.0,6.1012,0.0,5.4626,5.4626,5.6049,5.578,5.3549,5.4164,5.4511,5.4511,5.4511,5.4511,5.4511,5.5318,5.5588,0.0,5.4049,0.0,0.0,0.0,5.8242,0.0,6.6513,6.7013,0.0,7.2399,7.4514,7.4361,7.663,7.6707,7.5168,0.0,6.9244,6.759,0.0,6.232,6.0896,0.0,0.0,0.0,0.0,0.0,0.0,0.0,6.0165,0.0,0.0,0.0,5.5472,5.2626,0.0,5.1933,5.2395,0.0,0.0,5.4164,5.8165,6.105,6.0589,6.3051,6.632,7.0129,6.9783,7.0167,7.2399,7.136,7.1552,7.3899,7.1822,7.1398,7.3668,7.3707,7.3591,7.3514,7.4399,7.4861,7.4861,7.6476,7.74,7.7592,7.9092,7.9862,7.9977,8.0746,8.1093,8.1093,8.1093,8.1093,8.1093,8.1093,8.1093,8.1093,8.1093,8.1093,8.1208,8.2016,8.2862,8.3708,4.5701,4.6317,4.7855,5.0856,5.2702,5.478,5.7819,6.0512,6.2551,6.3628,6.5782,6.7744,0.0,0.0,0.0,0.0,0.0,5.9319,0.0,0.0,5.6703,5.6703,5.7396,5.7011,5.5434,5.528,5.4972,5.4511,5.4511,5.4511,5.4511,5.5318,5.5434,0.0,5.4741,0.0,5.7049,0.0,0.0,0.0,0.0,0.0,0.0,7.3976,7.7015,7.7246,7.7784,7.713,7.5399,0.0,7.0052,0.0,0.0,0.0,0.0,0.0,0.0,0.0,0.0,0.0,0.0,0.0,0.0,0.0,5.6472,0.0,5.528,0.0,0.0,0.0,0.0,0.0,0.0,0.0,5.4241,5.5857,5.6511,5.7088,5.9742,6.6013,6.5128,6.4974,6.7552,6.759,6.8129,6.9667,6.8783,6.8898,7.0475,7.1475,7.1975,7.1975,7.3322,7.4014,7.4014,7.5207,7.6284,7.7323,7.8015,7.8861,7.9823,8.0169,8.0631,8.1093,8.1093,8.1093,8.1093,8.1093,8.1093,8.1093,8.1093,8.1093,8.1131,8.1477,8.2131,8.2901,4.6663,0.0,0.0,0.0,5.2818,5.4626,5.7819,6.1627,6.4474,6.5436,0.0,0.0,7.1091,6.9129,0.0,0.0,0.0,6.2435,0.0,0.0,5.8127,0.0,0.0,0.0,0.0,5.5895,5.5665,5.4818,5.4818,5.4818,5.4857,5.5434,5.5511,5.5203,0.0,5.728,5.8819,0.0,0.0,6.4166,6.7128,6.8859,7.0283,7.5476,7.8438,7.9669,7.8554,7.7515,7.6092,7.2322,7.1629,0.0,6.759,0.0,0.0,0.0,0.0,0.0,6.2127,0.0,0.0,0.0,0.0,0.0,0.0,0.0,0.0,0.0,0.0,0.0,0.0,0.0,5.1433,5.2472,0.0,5.2972,5.401,5.3203,5.4895,6.1396,6.155,6.1973,6.4051,6.4397,6.5013,6.632,6.5551,6.582,6.7628,6.909,7.009,7.0552,7.2245,7.3245,7.3514,7.4322,7.5476,7.6938,7.7169,7.7938,7.9131,7.9592,8.0169,8.0746,8.1016,8.1093,8.1093,8.1093,8.1093,8.1093,8.1093,8.1093,8.1093,8.1093,8.1593,8.2285,4.8971,4.9317,0.0,0.0,0.0,0.0,5.7896,5.9088,0.0,0.0,0.0,0.0,0.0,0.0,0.0,0.0,0.0,6.382,6.7821,0.0,5.7627,0.0,0.0,0.0,0.0,0.0,5.6511,5.5665,5.5665,5.5665,5.5665,5.5703,5.6126,5.6934,5.7819,6.005,6.3205,6.4974,6.8052,7.1975,7.3707,7.6399,7.9015,0.0,7.6899,7.9592,7.7938,0.0,0.0,7.5438,7.513,0.0,0.0,0.0,0.0,0.0,0.0,0.0,0.0,0.0,0.0,6.3281,0.0,0.0,0.0,0.0,5.9665,0.0,0.0,0.0,0.0,0.0,0.0,0.0,5.4434,0.0,0.0,5.1818,5.2087,5.5549,5.9588,6.2397,6.3281,6.1897,6.2012,6.4474,6.1627,6.1589,6.5743,6.6782,6.8013,6.9706,7.136,7.2629,7.3514,7.4322,7.5168,7.6053,7.6899,7.7323,7.7438,7.9054,7.9823,7.99,8.0746,8.1093,8.1093,8.1093,8.1093,8.1093,8.1093,8.1093,8.1093,8.1093,8.1593,8.2285,5.0164,0.0,0.0,0.0,0.0,0.0,0.0,6.0396,0.0,0.0,0.0,0.0,0.0,0.0,7.7861,0.0,0.0,7.1552,7.0167,6.659,0.0,0.0,0.0,6.2127,0.0,0.0,0.0,0.0,0.0,5.7434,5.7434,5.7434,5.7857,5.8665,0.0,6.0973,0.0,0.0,0.0,0.0,0.0,7.7938,8.1285,0.0,7.8938,7.8861,7.8284,7.7553,0.0,7.5861,7.5014,7.4053,7.2322,7.0821,6.9436,6.7975,6.8167,6.8706,0.0,0.0,7.1668,6.6013,0.0,0.0,0.0,0.0,0.0,0.0,0.0,0.0,0.0,0.0,5.5241,5.3857,5.3164,5.2279,0.0,5.0202,5.0664,5.2933,5.5934,5.755,5.6703,5.6626,5.7203,5.8588,5.7627,5.8357,6.1512,6.4051,6.6205,6.7936,6.9629,7.1514,7.3476,7.3783,7.463,7.6015,7.6284,7.6746,7.7323,7.8438,7.9246,7.9862,8.0708,8.1093,8.1093,8.1093,8.1093,8.1093,8.1093,8.1093,8.1093,8.1093,8.1285,8.1593,5.1933,0.0,0.0,0.0,0.0,0.0,0.0,0.0,0.0,0.0,7.3668,0.0,8.3439,0.0,8.317,0.0,8.0208,7.6861,7.1706,7.036,0.0,6.5859,6.6128,0.0,0.0,0.0,0.0,0.0,0.0,5.8588,5.8319,5.8319,5.8742,5.955,0.0,6.2589,6.5667,0.0,7.0821,0.0,0.0,7.9592,0.0,0.0,8.0208,7.9323,0.0,7.7361,7.6399,7.6092,7.5284,7.4207,7.3014,7.1514,6.9898,6.8744,6.9206,7.0014,6.9398,7.1706,0.0,6.8783,6.8475,0.0,6.2551,0.0,6.4089,0.0,0.0,0.0,0.0,0.0,5.6165,5.478,5.3318,5.1664,0.0,4.9663,5.0164,5.0933,5.328,5.4511,5.3741,5.4164,5.4472,5.4357,5.4626,5.578,5.8011,6.1396,6.4282,6.659,6.8629,7.0937,7.3476,7.3514,7.4361,7.6015,7.6015,7.6284,7.6861,7.7977,7.8823,7.94,8.0592,8.1093,8.1093,8.1093,8.1093,8.1093,8.1093,8.1093,8.1093,8.1093,8.1093,8.1208,0.0,0.0,0.0,0.0,5.6049,0.0,0.0,0.0,6.7244,0.0,7.4976,7.9592,8.467,8.4516,8.4632,8.617,8.4055,0.0,7.3322,7.4361,0.0,0.0,6.6397,6.6051,6.2666,0.0,0.0,0.0,0.0,0.0,5.8511,5.8434,5.8819,0.0,6.2166,0.0,6.7359,7.2437,7.5668,7.7669,8.0285,8.1508,8.1616,8.0516,8.0516,8.0708,7.8207,7.7284,7.7092,7.6284,7.6015,7.5707,7.4053,7.236,7.0706,6.909,6.9744,7.0706,6.9129,7.1168,7.3322,7.1514,7.1129,0.0,0.0,0.0,6.7513,0.0,0.0,0.0,0.0,0.0,5.8088,5.7049,5.478,5.2279,4.9817,5.024,5.051,4.9625,5.1625,5.3395,5.4241,5.428,5.3587,5.1972,5.2587,5.378,5.5472,5.8858,6.2281,6.5667,6.8321,7.0937,7.3476,7.3553,7.4399,7.6015,7.6015,7.6015,7.6053,7.7669,7.8438,7.8592,8.0285,8.1054,8.1093,8.1093,8.1093,8.1093,8.1093,8.1093,8.1093,8.1093,8.1093,8.1208,5.5203,5.6434,5.7319,0.0,5.8165,5.8934,0.0,0.0,0.0,0.0,7.9515,8.4632,8.9094,8.994,8.9863,8.9017,8.8325,0.0,0.0,0.0,0.0,7.5784,7.5553,7.3707,6.9667,6.7744,0.0,6.3935,0.0,0.0,6.1089,6.0473,6.0281,6.055,0.0,0.0,6.6513,7.0937,7.5361,7.9469,8.0161,8.1311,8.2437,0.0,8.0343,8.0061,7.8054,7.6861,7.6284,7.6092,7.6015,7.5707,7.4053,7.3206,7.2629,7.1552,7.1975,7.286,7.3053,7.513,7.663,7.4322,7.4207,7.3745,0.0,0.0,0.0,0.0,0.0,0.0,0.0,0.0,0.0,0.0,5.3549,5.1818,0.0,0.0,0.0,5.1356,5.1318,5.1433,5.1625,5.1087,5.0779,5.0971,5.0625,5.1395,5.3703,5.7665,6.1089,6.3897,6.7705,7.0937,7.3476,7.4091,7.4938,7.6015,7.6015,7.6015,7.6053,7.713,7.7938,7.8554,7.9669,8.0516,8.1093,8.1093,8.1093,8.1093,8.1093,8.1093,8.1093,8.1093,8.1093,8.1208,5.6165,0.0,0.0,5.8973,0.0,0.0,6.2397,0.0,0.0,7.4745,8.0631,0.0,8.8171,9.1171,9.2479,9.1171,9.071,0.0,0.0,0.0,0.0,7.9977,7.8977,7.6861,7.336,6.9706,0.0,6.532,0.0,0.0,6.1512,6.1012,6.0781,6.0858,0.0,6.3935,6.6205,7.1206,7.6005,8.023,8.0229,8.1212,0.0,8.1057,8.0467,8.01,7.813,7.6784,7.6015,7.6015,7.5745,7.5207,7.3899,7.3514,7.3322,7.2476,7.3053,7.413,7.4591,7.6284,7.763,7.6284,7.6515,7.6245,7.2919,7.3217,7.3053,0.0,6.8667,6.8065,0.0,0.0,0.0,0.0,0.0,0.0,0.0,0.0,0.0,0.0,5.2087,5.1625,5.1241,4.9779,4.9048,4.951,4.9817,5.0741,5.2549,5.6665,6.0319,6.3205,6.7475,7.0937,7.3476,7.4668,7.5515,7.6015,7.6015,7.6015,7.6015,7.6899,7.7746,7.8554,7.9438,8.0285,8.1093,8.1093,8.1093,8.1093,8.1093,8.1093,8.1093,8.1093,8.1093,8.1208,0.0,0.0,0.0,0.0,0.0,0.0,0.0,6.8205,0.0,7.5399,0.0,8.5209,8.5978,9.071,9.348,9.2595,0.0,8.9902,8.5978,8.6401,8.4978,8.0977,7.9862,7.813,7.5592,7.0321,0.0,0.0,0.0,0.0,6.0973,6.0858,6.0781,0.0,0.0,0.0,0.0,7.1629,7.6159,7.975,7.9971,8.0815,8.1883,8.1052,8.0573,8.0123,7.8325,7.7044,7.6207,7.6053,7.5515,7.4745,7.3937,7.3668,7.3514,7.2745,7.3553,7.4707,7.4861,7.6053,7.7361,7.7553,7.8054,7.7793,7.4973,7.4043,7.3206,7.086,6.8475,6.693,6.7393,0.0,0.0,0.0,0.0,0.0,0.0,0.0,0.0,0.0,0.0,0.0,5.2318,5.0048,4.8548,4.8471,4.9933,5.1202,5.2049,5.5934,5.9665,6.3051,6.7205,7.0706,7.3476,7.5053,7.5938,7.6169,7.6053,7.6015,7.6015,7.6784,7.7553,7.84,7.9246,8.0131,8.0939,8.1054,8.1093,8.1093,8.1093,8.1093,8.1093,8.1093,8.1093,8.1246,0.0,0.0,0.0,0.0,0.0,6.9706,7.363,7.6746,7.9708,8.2708,8.8248,9.1979,9.2133,9.371,9.4172,9.2633,9.2979,0.0,0.0,0.0,0.0,8.617,8.4593,8.2593,8.0015,7.3591,7.009,0.0,0.0,0.0,6.1858,6.1127,6.0781,0.0,0.0,0.0,6.6051,6.8475,0.0,7.638,7.7777,7.9091,8.0225,8.0733,7.9981,7.8597,7.8239,7.7882,7.7391,7.6322,7.6015,7.5822,7.4822,7.4476,7.4476,7.4322,7.4476,7.4861,7.5592,7.6515,7.7361,7.7553,7.8169,7.8408,7.7216,7.6361,7.5284,7.3437,7.1717,6.9768,6.7239,6.1888,0.0,0.0,0.0,0.0,0.0,0.0,0.0,0.0,0.0,5.3433,5.3972,5.2356,5.0971,5.0279,5.1125,5.2087,5.2933,5.5703,5.8781,6.2204,6.5705,6.9475,7.3476,7.4437,7.5668,7.7053,7.6322,7.6015,7.6015,7.6169,7.6707,7.7553,7.8361,7.9208,8.0092,8.0785,8.1093,8.1093,8.1093,8.1093,8.1093,8.1093,8.1093,8.1323,0.0,0.0,0.0,0.0,0.0,0.0,0.0,8.3208,0.0,8.4362,8.7478,8.994,9.0364,9.3172,9.4672,9.3864,9.3364,9.2749,9.1941,9.0633,8.9133,8.7478,8.5363,0.0,8.1131,7.4822,7.1168,7.0283,0.0,0.0,6.1396,6.1012,6.0781,6.0819,0.0,6.3512,0.0,0.0,7.1283,7.4917,7.7039,7.8885,8.0429,8.0859,8.0703,8.0193,7.9188,7.9135,7.9163,7.704,7.6378,7.6245,7.5207,7.5168,7.5399,7.4861,7.5014,7.5476,7.5899,7.6361,7.6823,7.7015,7.737,7.7581,7.7291,7.6488,7.5592,7.4861,7.3035,7.0485,6.6747,6.2948,0.0,0.0,0.0,0.0,0.0,0.0,0.0,0.0,0.0,0.0,0.0,5.3741,5.2702,5.1433,5.2087,5.2549,5.2549,5.5357,5.8165,6.0666,6.4859,6.8744,7.2129,7.4284,7.5784,7.663,7.6207,7.6015,7.6015,7.6015,7.6476,7.7323,7.813,7.8977,7.9862,8.0746,8.1093,8.1093,8.1093,8.1093,8.1093,8.1093,8.1093,8.1208,0.0,6.5859,0.0,0.0,7.4976,0.0,8.2978,8.7325,8.9133,8.6132,8.7055,8.8325,8.921,9.2864,9.5134,9.4749,9.3518,9.2595,9.2249,9.0171,8.8632,8.7979,8.5478,8.3439,8.1939,7.6245,7.2091,0.0,0.0,0.0,6.0512,6.0704,6.0704,0.0,0.0,0.0,0.0,0.0,7.1079,7.4318,7.6669,7.8963,8.1015,8.1015,8.1445,8.1836,8.0273,8.0261,8.0622,7.8115,7.7117,7.6746,7.5671,7.5782,7.6169,7.5284,7.5515,7.6053,7.6015,7.613,7.6342,7.6519,7.6604,7.6699,7.6866,7.6086,7.5408,7.5592,7.3549,7.0678,6.7096,6.4922,6.3157,0.0,0.0,0.0,0.0,0.0,0.0,0.0,0.0,0.0,5.428,5.4549,5.4049,5.2318,5.2972,5.3241,5.2741,5.5241,5.7588,5.9435,6.3935,6.7705,7.0629,7.3476,7.5207,7.5707,7.5707,7.5707,7.5745,7.5938,7.6361,7.7092,7.8054,7.9092,8.0131,8.0823,8.1093,8.1093,8.1093,8.1093,8.1093,8.1093,8.1093,8.1093,0.0,0.0,0.0,0.0,0.0,0.0,8.3516,8.7863,9.1479,9.2595,9.3557,9.448,9.5365,9.5903,9.5557,9.3941,9.3672,9.2941,9.1441,9.0364,8.9748,8.9671,8.7248,8.544,8.4555,7.9477,7.4476,0.0,0.0,6.3512,0.0,6.0435,6.0396,5.9665,0.0,0.0,6.2666,6.5936,6.9951,7.4269,7.5988,7.8425,8.1015,8.1015,8.1054,8.1094,8.0937,8.0897,8.084,7.9778,7.8789,7.7864,7.6794,7.6527,7.6544,7.6207,7.6207,7.6207,7.6053,7.613,7.6338,7.6534,7.6721,7.6908,7.6888,7.6202,7.5592,7.563,7.3659,7.14,6.9492,6.7695,6.539,0.0,0.0,0.0,0.0,0.0,5.8396,5.6088,0.0,0.0,5.3549,5.4703,5.4895,5.3203,5.3895,5.4664,5.5318,5.5665,5.6934,5.9435,6.2204,6.5628,6.9783,7.086,7.2552,7.4822,7.4822,7.4822,7.4861,7.563,7.6053,7.6207,7.7823,7.9438,8.0977,8.1054,8.1093,8.1093,8.1093,8.1093,8.1093,8.1093,8.1093,8.1093,0.0,0.0,0.0,0.0,0.0,0.0,0.0,9.1095,9.3133,9.4326,9.4326,9.4749,9.6134,9.5826,9.5249,9.4518,9.3557,9.271,9.2018,9.0671,8.9902,8.9902,8.7478,8.5709,8.4939,8.09,7.6553,0.0,0.0,0.0,0.0,6.0589,5.9819,5.955,6.0396,6.182,6.3858,6.7872,7.1313,7.4359,7.7147,7.9364,8.1015,8.1015,8.1328,8.1719,8.1172,8.1328,8.1562,8.0168,7.9438,7.8905,7.7903,7.7558,7.7378,7.6553,7.6302,7.6245,7.6053,7.6207,7.6365,7.5927,7.6443,7.6946,7.6402,7.6041,7.5791,7.5791,7.4179,7.2422,7.1211,6.918,6.7187,6.5586,0.0,0.0,0.0,0.0,0.0,5.6066,0.0,5.4416,5.3318,5.3818,5.4126,5.3972,5.4741,5.4934,5.4241,5.5665,5.6934,5.7973,6.1435,6.4859,6.809,6.9975,7.2168,7.4707,7.4707,7.4976,7.5476,7.5822,7.6553,7.7553,7.8207,7.9477,8.1093,8.1093,8.1093,8.1093,8.1093,8.1093,8.1093,8.1093,8.1093,8.1246,7.7004,0.0,7.8246,0.0,8.5401,8.6632,9.171,9.2979,9.3749,9.4826,9.4518,9.4749,9.6134,9.5749,9.5288,9.5018,9.3903,9.3133,9.2864,9.1479,9.0671,9.0671,8.844,0.0,8.567,8.2785,7.8977,7.4245,7.1552,0.0,0.0,6.1973,6.1127,6.1435,6.2281,6.4051,6.6705,7.0401,7.3369,7.584,7.837,8.018,8.1367,8.1094,8.1523,8.2226,8.1601,8.1797,8.2109,8.0898,8.0469,8.0195,7.875,7.8281,7.8042,7.6827,7.6454,7.6399,7.6169,7.6361,7.6519,7.5849,7.645,7.7031,7.6406,7.6289,7.6289,7.6289,7.4883,7.3476,7.289,7.0664,6.8633,6.7734,0.0,0.0,0.0,6.0461,0.0,5.6174,5.5304,5.4454,5.3318,5.3895,5.4241,5.4126,5.5088,5.5164,5.401,5.5857,5.7126,5.7357,6.1243,6.4397,6.6705,6.9013,7.1437,7.3976,7.4207,7.4784,7.563,7.613,7.7284,7.8861,7.8861,7.9708,8.1093,8.1093,8.1093,8.1093,8.1093,8.1093,8.1093,8.1093,8.1093,8.1285,7.945,8.1385,8.3779,8.7902,9.0017,9.1402,9.2364,9.2518,9.3095,9.4788,9.5211,9.5595,9.6249,9.6288,9.5942,9.5057,9.498,9.4595,9.3749,9.2903,9.2479,0.0,0.0,8.9094,8.7401,8.5709,8.1939,7.5976,0.0,0.0,6.5859,6.4974,6.5013,6.5859,6.6667,6.8436,7.0937,7.2916,7.5847,7.9166,7.9327,8.0586,8.2187,8.1328,8.1523,8.2304,8.2304,8.2304,8.2304,8.2265,8.2265,8.1836,7.9297,7.8515,7.8281,7.7226,7.6883,7.6813,7.6399,7.6583,7.6828,7.6626,7.688,7.7187,7.7187,7.7187,7.7187,7.7187,7.5781,7.457,7.457,7.2422,6.9844,6.7305,6.6719,0.0,0.0,6.0761,0.0,5.6311,5.739,5.7071,5.3549,5.5472,5.5895,5.3395,5.4741,5.5703,5.5665,5.6511,5.7396,5.828,6.155,6.4128,6.5897,6.759,6.9706,7.2245,7.3091,7.3937,7.4784,7.6515,7.8207,7.9785,7.9785,8.0285,8.1093,8.1093,8.1093,8.1093,8.1093,8.1093,8.1093,8.1093,8.1093,8.1093,8.4434,8.507,8.6242,8.9248,9.0556,9.1672,9.3095,9.398,9.4826,9.5749,9.6057,9.6249,9.6288,9.6403,9.6326,0.0,9.5326,9.4634,0.0,9.3441,9.2826,9.1672,9.1095,9.0017,8.8325,8.7171,8.4516,8.0285,0.0,0.0,6.8475,6.8205,6.8205,6.8552,6.9937,7.1734,7.3878,7.6409,7.854,8.0299,8.1052,8.1759,8.2265,8.1992,8.207,8.2304,8.2304,8.2304,8.2304,8.2304,8.2304,8.2031,8.0664,8.0195,8.0,7.8906,7.8606,7.8503,7.8106,7.7795,7.7433,7.6743,7.6802,7.6875,7.6406,7.6328,7.6484,7.707,7.5351,7.3711,7.3711,7.1562,6.918,6.7226,6.5351,6.3242,6.0703,5.9522,5.8019,5.5536,5.5706,5.5318,5.3395,5.4472,5.4972,5.4164,5.5088,5.5703,5.5703,5.7088,5.855,5.9973,6.2704,6.5013,6.6705,6.8975,7.1129,7.3091,7.3937,7.5053,7.6476,7.7053,7.8207,7.9823,7.9823,8.0285,8.1093,8.1093,8.1093,8.1093,8.1093,8.1093,8.1093,8.1093,8.1093,8.117,8.7344,8.766,8.8437,9.0807,9.1556,9.2479,9.448,9.5134,9.5665,9.6332,9.6586,9.6634,9.6326,9.6557,0.0,9.6326,9.548,9.4749,9.421,9.3595,9.2826,9.1825,9.1479,9.071,8.944,8.8483,0.0,8.3901,8.0285,7.6592,7.2976,7.2014,7.1937,7.2591,7.363,7.5159,7.7064,7.8876,8.0241,8.1253,8.1984,8.2304,8.2304,8.2304,8.2304,8.2304,8.2304,8.2304,8.2304,8.2304,8.2304,8.2187,8.164,8.1484,8.1211,7.9883,7.9492,7.9405,7.9034,7.868,7.8209,7.7207,7.717,7.7187,7.6523,7.6406,7.6523,7.7109,7.539,7.3789,7.3789,7.1406,6.8867,6.7187,6.4726,6.2305,6.0234,5.8789,5.73,5.5672,5.6009,5.5955,5.4818,5.578,5.6049,5.5011,5.6011,5.6511,5.6203,5.755,5.9088,6.0742,6.3281,6.5397,6.709,6.9629,7.1783,7.3514,7.4668,7.6092,7.7746,7.7746,7.8669,8.0285,8.0285,8.0592,8.1093,8.1093,8.1093,8.1093,8.1093,8.1093,8.1093,8.1093,8.1093,8.117,8.8476,8.9297,9.0492,9.2499,9.2931,9.3787,9.6172,9.5942,9.5803,9.6502,9.6822,9.6826,9.6365,9.6673,9.6788,9.6365,0.0,0.0,9.5018,9.3557,9.2749,9.2826,9.2049,9.1352,9.0702,8.9705,8.8325,8.6599,8.1477,7.8861,7.8707,7.6322,7.6053,7.7553,7.7553,7.8554,8.0192,8.0417,8.1077,8.2069,8.2226,8.2304,8.2304,8.2304,8.2304,8.2304,8.2304,8.2304,8.2304,8.2304,8.2304,8.2304,8.2304,8.2304,8.1992,8.0351,7.9883,7.9798,7.9403,7.937,7.9215,7.8045,7.7959,7.7969,7.7422,7.7226,7.7187,7.7187,7.5859,7.4648,7.4531,7.1758,6.8867,6.7031,6.4531,6.1953,5.9453,5.8359,5.7461,5.6601,5.7869,5.8412,5.7384,5.871,5.8572,5.6088,5.7319,5.7896,5.7203,5.8011,5.9281,6.1012,6.3474,6.559,6.7359,6.9821,7.1937,7.3707,7.5322,7.6938,7.8477,7.8554,7.9515,8.1093,8.1093,8.1093,8.1093,8.1093,8.1093,8.1093,8.1093,8.1093,8.1093,8.1093,8.1093,8.1093,0.0,0.0,9.1988,9.3139,9.4273,9.5209,9.5824,9.6479,9.6844,9.6618,9.6822,9.6826,9.6365,9.6403,9.648,9.6519,9.6326,9.5942,9.5326,9.4903,9.4172,9.313,9.2921,9.2416,9.1622,9.1329,8.9966,8.744,8.4709,8.2708,8.14,8.0785,8.04,8.0208,8.0208,8.0631,8.1308,8.1369,8.1727,8.2241,8.2261,8.2304,8.2304,8.2304,8.2304,8.2304,8.2304,8.2304,8.2304,8.2304,8.2304,8.2304,8.2304,8.2304,8.2226,8.1797,8.1679,8.1594,8.1195,8.0632,8.0061,7.9631,7.8785,7.8125,7.8164,7.7695,7.7187,7.7187,7.6328,7.5195,7.3867,7.1328,6.8437,6.539,6.2734,6.0351,5.8476,5.7461,5.7031,5.7344,5.7757,5.807,5.8338,5.8007,5.7819,5.7857,5.7511,5.778,5.8858,5.9742,6.1281,6.3628,6.5513,6.7628,6.9975,7.1937,7.3745,7.5438,7.6476,7.7515,7.8515,7.9208,8.0092,8.1093,8.1093,8.1093,8.1093,8.1093,8.1093,8.1093,8.1093,8.1093,8.1093,8.1093,8.1093,8.1093,9.2304,9.2734,9.3359,9.4492,9.5338,9.6004,9.6429,9.7017,9.731,9.7013,9.6964,9.6865,9.648,9.6442,9.6442,9.6442,9.6211,9.5749,9.5018,9.4543,9.3871,9.2819,9.2741,9.2597,9.2237,9.209,9.0796,8.8286,8.6363,8.4786,8.3478,8.267,8.2285,8.2208,8.1439,8.1778,8.2763,8.2028,8.2153,8.2851,8.2461,8.2304,8.2344,8.2734,8.2656,8.2344,8.2734,8.2656,8.2304,8.2304,8.2304,8.2304,8.2304,8.2304,8.2304,8.2304,8.2289,8.2218,8.1817,8.1329,8.0862,8.0369,7.9369,7.8551,7.8514,7.8125,7.7695,7.7265,7.6172,7.4883,7.3555,7.0859,6.7851,6.4805,6.2109,5.9805,5.8125,5.75,5.7344,5.7734,5.8476,5.9059,5.9363,5.9206,5.9108,5.9072,5.8858,5.9127,6.005,6.1666,6.3166,6.4551,6.6628,6.8744,7.0898,7.2976,7.4899,7.6592,7.7053,7.7938,7.9092,7.9592,8.0285,8.1093,8.1093,8.1093,8.1093,8.1093,8.1093,8.1093,8.1093,8.1093,8.1093,8.1093,8.1093,8.1093,9.375,9.4101,9.4687,9.5937,9.625,9.6589,9.7335,9.7465,9.744,9.7413,9.7188,9.6891,9.6632,9.6557,9.6519,9.6403,9.5942,9.5399,9.4849,9.4072,9.3341,9.2702,9.2518,9.2501,9.2617,9.2237,9.1117,8.9321,8.7286,8.594,8.5093,8.3478,8.3016,8.3516,8.2093,8.2432,8.3911,8.2611,8.2582,8.3359,8.2734,8.2422,8.2383,8.3125,8.3047,8.2578,8.3203,8.3008,8.2461,8.2344,8.2304,8.2304,8.2304,8.2304,8.2304,8.2304,8.2312,8.2201,8.1797,8.1662,8.1439,8.0785,7.9935,7.922,7.8938,7.8672,7.8281,7.7539,7.6094,7.4648,7.3515,7.0586,6.75,6.4726,6.1992,5.9687,5.8125,5.789,5.8008,5.8242,5.9648,6.0664,6.0781,6.1264,6.12,6.0465,6.0804,6.1127,6.1358,6.3551,6.4974,6.5359,6.759,6.9667,7.1475,7.3899,7.5822,7.7284,7.7553,7.84,7.9823,7.9939,8.04,8.1093,8.1093,8.1093,8.1093,8.1093,8.1093,8.1093,8.1093,8.1093,8.1093,8.1093,8.1093,8.1093,9.3867,9.5078,9.6172,9.6406,9.6992,9.7498,9.7628,9.7662,9.7598,9.7421,9.7175,9.6915,9.6628,9.6442,9.648,9.6865,9.6788,9.6712,9.6616,9.6009,9.5377,9.476,9.403,9.3306,9.2617,9.1676,9.1002,9.071,8.8512,8.705,8.6209,8.5055,8.417,8.3593,8.3324,8.3202,8.3218,8.364,8.3284,8.2539,8.3164,8.2969,8.2304,8.2461,8.2851,8.332,8.2734,8.289,8.3281,8.2539,8.2304,8.2304,8.2304,8.2304,8.2304,8.2304,8.2312,8.2201,8.1797,8.1469,8.1246,8.1439,8.0826,8.026,8.054,7.9531,7.8476,7.832,7.75,7.6094,7.3711,7.1055,6.8125,6.4844,6.1523,5.9023,5.8047,5.789,5.8437,5.9844,6.0898,6.207,6.3515,6.3005,6.2742,6.3145,6.2497,6.2651,6.3935,6.5089,6.6667,6.8859,6.9937,7.1668,7.4091,7.5976,7.7015,7.7323,7.8746,7.9554,7.9823,8.0554,8.0977,8.1093,8.1093,8.1093,8.1093,8.1093,8.1093,8.1093,8.1093,8.1093,8.1093,8.1093,8.1093,8.1093,9.5195,9.5937,9.664,9.707,9.7461,9.7695,9.7695,9.7695,9.7656,9.7578,9.7221,9.6959,9.6821,9.6519,9.6442,9.6749,9.6924,9.7081,9.7218,9.6659,9.5978,9.5234,9.4375,9.3476,9.2617,9.1953,9.1414,9.0992,8.9831,8.8594,8.7358,8.6247,8.5555,8.5093,8.4055,8.4164,8.4997,8.4456,8.4259,8.4336,8.3828,8.3633,8.3711,8.3711,8.3945,8.4297,8.4375,8.4062,8.3554,8.3125,8.2695,8.2304,8.2304,8.2304,8.2304,8.2304,8.2156,8.1943,8.1746,8.1501,8.1323,8.1662,8.1501,8.1213,8.1039,8.039,7.9609,7.8672,7.7812,7.6406,7.3789,7.082,6.793,6.539,6.1758,5.9219,5.9258,5.9258,5.9883,6.1601,6.2969,6.4297,6.5586,6.5195,6.4789,6.4655,6.4561,6.4817,6.5524,6.7256,6.895,7.0644,7.2157,7.3745,7.5399,7.6669,7.7515,7.7938,7.9208,8.0054,8.0516,8.0939,8.1093,8.1093,8.1093,8.1093,8.1093,8.1093,8.1093,8.1093,8.1093,8.1093,8.1093,8.1093,8.1093,8.117,9.6367,9.664,9.6953,9.7578,9.7695,9.7695,9.7695,9.7695,9.7695,9.7695,9.7299,9.6998,9.6975,9.6557,9.6403,9.6673,9.6851,9.713,9.7475,9.7057,9.6406,9.5547,9.4687,9.3906,9.3203,9.2812,9.2304,9.1679,9.1037,9.0029,8.8726,8.7399,8.6762,8.6742,8.5016,8.5093,8.6428,8.5351,8.5247,8.5781,8.4648,8.4492,8.4883,8.4883,8.5039,8.5273,8.5742,8.5156,8.414,8.375,8.3164,8.2578,8.2344,8.2304,8.2304,8.2304,8.2071,8.1749,8.1705,8.1593,8.1501,8.1638,8.186,8.1878,8.1417,8.1133,8.0625,7.9336,7.8242,7.6758,7.4336,7.125,6.8398,6.625,6.2617,6.0234,6.0625,6.0898,6.164,6.3398,6.5156,6.6523,6.7383,6.7344,6.6992,6.6328,6.675,6.7205,6.7553,6.9469,7.107,7.2322,7.3933,7.5245,7.6284,7.713,7.7977,7.8823,7.9708,8.0439,8.1093,8.1093,8.1093,8.1093,8.1093,8.1093,8.1093,8.1093,8.1093,8.1093,8.1093,8.1093,8.1093,8.1093,8.1208,8.1477,9.6484,9.7109,9.7617,9.7695,9.7695,9.7695,9.7695,9.7695,9.7695,9.7695,9.7299,9.6998,9.6975,9.6557,9.648,9.6903,9.6993,9.7207,9.7668,9.7642,9.7265,9.6445,9.5586,9.5078,9.5,9.4219,9.375,9.3672,9.1874,9.0895,9.0734,8.8623,8.7603,8.755,8.6704,8.6017,8.567,8.6505,8.6146,8.5078,8.5742,8.5547,8.4883,8.4883,8.539,8.6015,8.5273,8.5429,8.5742,8.414,8.3554,8.3359,8.2539,8.2304,8.2304,8.2304,8.2148,8.1954,8.1723,8.1701,8.1658,8.1679,8.1848,8.2058,8.2159,8.1562,8.0976,8.0859,7.9531,7.7851,7.6055,7.3515,7.0625,6.7344,6.4492,6.2461,6.1719,6.2305,6.3476,6.5195,6.6953,6.832,6.914,6.9219,6.9101,6.8945,6.8951,6.9603,7.1057,7.129,7.2535,7.4933,7.4997,7.5697,7.7169,7.8015,7.8861,7.9708,8.0592,8.1054,8.1093,8.1093,8.1093,8.1093,8.1093,8.1093,8.1093,8.1093,8.1093,8.1093,8.1093,8.1093,8.1093,8.1093,8.1554,8.2208,9.7226,9.75,9.7695,9.7695,9.7695,9.7695,9.7695,9.7695,9.7695,9.7695,9.7299,9.6998,9.6975,9.6557,9.648,9.6942,9.6993,9.7221,9.7667,9.7706,9.7344,9.6523,9.5664,9.4961,9.4414,9.4062,9.3633,9.3086,9.289,9.2265,9.1172,9.0198,8.9095,8.793,8.7627,8.7061,8.6344,8.6855,8.6884,8.6484,8.6289,8.6328,8.6445,8.5898,8.625,8.6953,8.664,8.6367,8.6094,8.5429,8.4844,8.4336,8.4023,8.3554,8.3008,8.2461,8.2265,8.2145,8.1948,8.1889,8.1878,8.1891,8.2028,8.2221,8.2261,8.2031,8.164,8.1094,8.0508,7.9375,7.7109,7.5,7.2812,7.0469,6.7461,6.5508,6.5703,6.5547,6.6055,6.7812,6.9023,7.0312,7.168,7.1328,7.0976,7.0937,7.1431,7.1763,7.1802,7.3368,7.4859,7.626,7.6746,7.716,7.7476,7.8169,7.8938,7.9823,8.0669,8.1093,8.1093,8.1093,8.1093,8.1093,8.1093,8.1093,8.1093,8.1093,8.1093,8.1093,8.1093,8.1093,8.117,8.167,8.2054,8.2439,9.7695,9.7695,9.7695,9.7695,9.7695,9.7695,9.7695,9.7695,9.7695,9.7695,9.7362,9.7071,9.701,9.6634,9.6557,9.6942,9.6993,9.7188,9.7655,9.7695,9.7461,9.6914,9.6289,9.5703,9.5117,9.457,9.414,9.3828,9.3594,9.3008,9.2109,9.1367,9.0274,8.8988,8.8421,8.7862,8.7325,8.7514,8.7702,8.7851,8.7539,8.7578,8.7851,8.7539,8.7578,8.789,8.789,8.75,8.6914,8.6367,8.5781,8.5273,8.5,8.4492,8.3906,8.3281,8.2929,8.2695,8.2539,8.2279,8.2073,8.2015,8.2162,8.2304,8.2304,8.2304,8.2148,8.1523,8.1172,8.0469,7.8711,7.6992,7.5156,7.3125,7.0625,6.8945,6.8984,6.8711,6.8945,7.0156,7.125,7.2305,7.3203,7.3008,7.2812,7.2812,7.3359,7.3555,7.3242,7.5456,7.6946,7.7375,7.8154,7.8572,7.8575,7.893,7.9507,8.0323,8.09,8.117,8.1093,8.1093,8.1093,8.1093,8.1093,8.1093,8.1093,8.1093,8.1093,8.1093,8.1093,8.1093,8.1208,8.2016,8.2477,8.2901,9.7695,9.7695,9.7695,9.7695,9.7695,9.7695,9.7695,9.7695,9.7695,9.7695,9.7539,9.729,9.7037,9.6749,9.6711,9.698,9.6993,9.7188,9.7655,9.7695,9.7695,9.7695,9.7695,9.7695,9.7695,9.6054,9.5625,9.6484,9.3906,9.3047,9.3867,9.1914,9.1015,9.0936,8.9182,8.8392,8.8412,8.8609,8.8711,8.8789,8.9648,8.9492,8.8789,8.9687,8.9453,8.8711,8.8711,8.8711,8.8476,8.6797,8.6211,8.6054,8.5195,8.4922,8.4922,8.4883,8.4297,8.3594,8.3594,8.2969,8.2232,8.2033,8.2162,8.2304,8.2304,8.2304,8.2304,8.2304,8.1601,8.1015,8.1015,7.9648,7.7656,7.5039,7.3906,7.2734,7.0976,7.1484,7.2031,7.2031,7.3555,7.4258,7.3398,7.4101,7.4609,7.4609,7.4609,7.5,7.5859,7.7578,7.8515,7.8515,7.9101,7.9842,8.0694,8.0491,8.0731,8.1431,8.14,8.1285,8.1093,8.1093,8.1093,8.1093,8.1093,8.1093,8.1093,8.1093,8.1093,8.1093,8.1093,8.1093,8.1208,8.2016,8.2862,8.3708,9.7695,9.7695,9.7695,9.7695,9.7695,9.7695,9.7695,9.7695,9.7695,9.7695,9.7539,9.7304,9.7043,9.6745,9.6711,9.698,9.6993,9.7188,9.7655,9.7695,9.7695,9.7695,9.7148,9.6875,9.6875,9.6367,9.5625,9.4687,9.4492,9.3945,9.2969,9.2383,9.1719,9.0976,9.0609,9.0032,8.9331,8.9545,8.9609,8.9648,8.9883,8.9844,8.9648,8.9883,8.9844,8.9609,8.9609,8.9609,8.9453,8.832,8.7969,8.7695,8.6289,8.582,8.5703,8.5078,8.4297,8.3594,8.3594,8.2969,8.2301,8.2226,8.2276,8.2304,8.2304,8.2304,8.2304,8.2304,8.2109,8.1719,8.1094,8.0586,7.9609,7.7656,7.6601,7.5625,7.4492,7.4062,7.3828,7.3828,7.4297,7.4726,7.5078,7.4805,7.4844,7.5469,7.5508,7.5898,7.6758,7.789,7.8515,7.8515,7.9805,8.0654,8.0922,8.0575,8.0725,8.1422,8.1388,8.1285,8.1093,8.1093,8.1093,8.1093,8.1093,8.1093,8.1093,8.1093,8.1093,8.1093,8.1093,8.1093,8.1285,8.267,8.3362,8.3785,9.7695,9.7695,9.7695,9.7695,9.7695,9.7695,9.7695,9.7695,9.7695,9.7695,9.7578,9.7398,9.7027,9.686,9.6788,9.6826,9.7048,9.7316,9.7695,9.7695,9.7695,9.7695,9.7226,9.6953,9.6953,9.664,9.6133,9.539,9.4922,9.4336,9.3594,9.2929,9.2265,9.1601,9.1406,9.0953,9.0363,9.0471,9.0508,9.0547,9.0898,9.082,9.0547,9.0898,9.082,9.0508,9.0508,9.0508,9.0312,8.9101,8.8476,8.8047,8.7031,8.6719,8.6601,8.6094,8.5078,8.4179,8.4531,8.375,8.289,8.3242,8.2812,8.2304,8.2304,8.2304,8.2304,8.2304,8.2304,8.2148,8.1601,8.1523,8.1054,7.9726,7.9062,7.8398,7.7539,7.668,7.6015,7.5664,7.5625,7.5703,7.5898,7.5742,7.5859,7.6367,7.6719,7.7148,7.7695,7.8828,7.9492,7.9492,8.082,8.1523,8.1523,8.1284,8.1298,8.1504,8.1605,8.1439,8.1093,8.117,8.117,8.1093,8.1093,8.1093,8.1093,8.1093,8.1093,8.1093,8.1093,8.1093,8.1285,8.2978,8.3593,8.3824,9.7695,9.7695,9.7695,9.7695,9.7695,9.7695,9.7695,9.7695,9.7695,9.7695,9.7694,9.75,9.7065,9.6976,9.6865,9.6596,9.7082,9.75,9.7695,9.7695,9.7695,9.7695,9.7695,9.7695,9.7695,9.6992,9.6914,9.7578,9.5273,9.4453,9.5039,9.3476,9.2656,9.2578,9.1758,9.1406,9.1406,9.1406,9.1406,9.1484,9.2265,9.2109,9.1484,9.2304,9.2109,9.1406,9.1406,9.1367,9.1015,8.9297,8.8164,8.75,8.75,8.75,8.75,8.75,8.6328,8.5195,8.5976,8.4922,8.3789,8.4609,8.3515,8.2304,8.2383,8.2422,8.2383,8.2304,8.2304,8.2304,8.2304,8.2304,8.2031,8.125,8.1054,8.0703,7.9922,7.9101,7.832,7.7539,7.7344,7.6992,7.6211,7.6836,7.7305,7.7305,7.8125,7.8594,7.8594,8.0117,8.1015,8.1015,8.1836,8.2304,8.2304,8.2304,8.2115,8.1719,8.1891,8.1701,8.1131,8.1323,8.1285,8.1131,8.1093,8.1093,8.1093,8.1093,8.1093,8.1093,8.1093,8.1093,8.1285,8.2978,8.3593,8.3824,9.7695,9.7695,9.7695,9.7695,9.7695,9.7695,9.7695,9.7695,9.7695,9.7695,9.7698,9.752,9.7069,9.6976,9.6865,9.6596,9.7082,9.75,9.7695,9.7695,9.7695,9.7695,9.7695,9.7695,9.7695,9.7539,9.7226,9.6758,9.6211,9.5312,9.4179,9.3789,9.3242,9.2578,9.2383,9.2304,9.2304,9.2304,9.2304,9.2344,9.2539,9.25,9.2344,9.2539,9.2461,9.2304,9.2304,9.1875,9.1015,8.9297,8.8164,8.75,8.75,8.75,8.75,8.75,8.6758,8.5976,8.6133,8.4922,8.3633,8.3828,8.3086,8.2461,8.3164,8.332,8.3125,8.2422,8.2304,8.2304,8.2304,8.2304,8.2226,8.2031,8.1445,8.0937,8.0742,7.9961,7.9375,7.918,7.8594,7.8125,7.7969,7.8125,7.8203,7.8203,7.8984,7.9453,7.9453,8.0429,8.1015,8.1015,8.1836,8.2304,8.2304,8.2304,8.2115,8.1719,8.1891,8.1778,8.1323,8.1362,8.1362,8.1323,8.117,8.1093,8.1093,8.1093,8.1093,8.1093,8.1093,8.1093,8.1285,8.2978,8.3593,8.3824,9.7695,9.7695,9.7695,9.7695,9.7695,9.7695,9.7695,9.7695,9.7695,9.7695,9.7689,9.7518,9.7051,9.6976,9.6942,9.6788,9.7032,9.7337,9.7695,9.7695,9.7695,9.7695,9.7695,9.7695,9.7695,9.7695,9.75,9.707,9.6679,9.582,9.4492,9.4101,9.3437,9.2617,9.2617,9.2617,9.2617,9.2617,9.2617,9.2617,9.2617,9.2617,9.2617,9.2617,9.2617,9.2617,9.2617,9.1758,9.0547,8.9648,8.8515,8.75,8.75,8.75,8.75,8.75,8.6875,8.6289,8.6719,8.5859,8.4922,8.5351,8.5117,8.4453,8.3242,8.2969,8.2851,8.2383,8.2304,8.2304,8.2304,8.2304,8.2304,8.2304,8.1914,8.1601,8.1601,8.0859,8.0312,8.0312,7.957,7.9062,7.9062,7.9062,7.9062,7.9062,7.9844,8.0312,8.0312,8.1133,8.1601,8.1601,8.207,8.2304,8.2304,8.2304,8.2139,8.1867,8.2041,8.1919,8.1538,8.1538,8.1478,8.1362,8.117,8.1093,8.1093,8.1093,8.1093,8.1093,8.1093,8.1093,8.1246,8.2516,8.3516,8.4401,9.7695,9.7695,9.7734,9.789,9.7812,9.7734,9.789,9.7929,9.7851,9.7734,9.7845,9.7674,9.709,9.6938,9.6903,9.698,9.6993,9.7188,9.7655,9.7695,9.7695,9.7695,9.7695,9.7695,9.7695,9.7695,9.7695,9.7695,9.7031,9.6172,9.5195,9.4453,9.3594,9.2617,9.2617,9.2617,9.2617,9.2617,9.2617,9.2617,9.2617,9.2617,9.2617,9.2617,9.2617,9.2617,9.2617,9.1484,8.9961,8.9687,8.8633,8.75,8.75,8.75,8.75,8.75,8.6992,8.6562,8.7304,8.6875,8.6367,8.7109,8.7187,8.6289,8.3398,8.2734,8.2656,8.2344,8.2304,8.2304,8.2304,8.2304,8.2304,8.2304,8.2304,8.2304,8.2304,8.1679,8.1211,8.1211,8.0469,7.9844,7.9726,7.9844,7.9922,7.9922,8.0742,8.1211,8.1211,8.1914,8.2304,8.2304,8.2304,8.2304,8.2304,8.2304,8.2226,8.2031,8.22,8.2096,8.1756,8.1678,8.1585,8.1439,8.1208,8.1093,8.1093,8.1093,8.1093,8.1093,8.1093,8.1093,8.1208,8.217,8.3632,8.5209,9.7695,9.7695,9.7929,9.8672,9.8203,9.7969,9.8711,9.8828,9.8554,9.7812,9.8352,9.8335,9.7129,9.6628,9.6557,9.6942,9.6993,9.7188,9.7655,9.7695,9.7695,9.7695,9.7695,9.7695,9.7695,9.7695,9.7695,9.7695,9.7578,9.6758,9.5195,9.5078,9.414,9.2617,9.2617,9.2617,9.2617,9.2617,9.2617,9.2617,9.2617,9.2617,9.2617,9.2617,9.2617,9.2617,9.2617,9.1484,8.9765,8.832,8.7695,8.75,8.75,8.75,8.75,8.75,8.7422,8.7344,8.7461,8.6875,8.6211,8.6367,8.582,8.5117,8.4648,8.4531,8.4101,8.2617,8.2304,8.2304,8.2304,8.2304,8.2304,8.2304,8.2304,8.2304,8.2304,8.2187,8.2109,8.2109,8.1367,8.0547,7.9765,8.039,8.082,8.082,8.164,8.2109,8.2109,8.2226,8.2304,8.2304,8.2304,8.2304,8.2304,8.2304,8.2304,8.2265,8.2277,8.2186,8.1928,8.162,8.1522,8.1662,8.1246,8.1093,8.1093,8.1093,8.1093,8.1093,8.1093,8.1093,8.1285,8.2862,8.4478,8.594,9.7695,9.7695,9.7812,9.8203,9.7969,9.7812,9.8203,9.8672,9.8867,9.8476,9.8765,9.8708,9.8038,9.7225,9.6826,9.721,9.7208,9.7362,9.7693,9.7695,9.7695,9.7695,9.7695,9.7695,9.7695,9.7695,9.7695,9.7695,9.7695,9.6836,9.5195,9.5195,9.4258,9.2617,9.2617,9.2617,9.2617,9.2617,9.2617,9.2617,9.2617,9.2617,9.2617,9.2617,9.2617,9.2539,9.2031,9.1054,8.9804,8.8594,8.7851,8.75,8.75,8.75,8.75,8.75,8.75,8.75,8.75,8.7226,8.6914,8.6914,8.664,8.6211,8.5742,8.5625,8.5273,8.4023,8.3359,8.3047,8.3047,8.2617,8.2304,8.2304,8.2304,8.2304,8.2304,8.2304,8.2304,8.2304,8.1953,8.1562,8.1172,8.1484,8.1719,8.1719,8.207,8.2304,8.2304,8.2304,8.2304,8.2304,8.2304,8.2304,8.2304,8.2304,8.2304,8.2304,8.2192,8.2067,8.197,8.1697,8.153,8.1516,8.1208,8.1093,8.1093,8.1093,8.1093,8.1131,8.1593,8.2054,8.2631,8.3862,8.4786,8.5478]},{"header":{"parameterUnit":"m.s-1","parameterCategory":1,"la1":30.6,"la2":28.766,"lo1":-90.7593,"lo2":-88.6598,"dy":0.0162,"dx":0.0183,"nx":116,"ny":114,"refTime":"2024-03-09T06:00:00:Z","depth":0,"parameterNumber":3,"parameterNumberName":"V-component_of_WINDS"},"data":[0.0,0.0,0.0,0.0,0.0,0.0,0.0,0.0,0.0,0.0,0.0,0.0,0.0,0.0,0.0,0.0,0.0,0.0,0.0,0.0,0.0,0.0,0.0,0.0,0.0,0.0,0.0,0.0,0.0,0.0,0.0,0.0,0.0,0.0,0.0,0.0,0.0,0.0,0.0,0.0,0.0,0.0,0.0,0.0,0.0,0.0,0.0,0.0,0.0,0.0,0.0,0.0,0.0,0.0,0.0,0.0,0.0,0.0,0.0,0.0,0.0,0.0,0.0,0.0,0.0,0.0,0.0,0.0,0.0,0.0,0.0,0.0,0.0,0.0,0.0,0.0,0.0,0.0,0.0,0.0,0.0,0.0,0.0,0.0,0.0,0.0,0.0,0.0,0.0,0.0,0.0,0.0,0.0,0.0,0.0,0.0,0.0,0.0,0.0,0.0,0.0,0.0,0.0,0.0,0.0,0.0,0.0,0.0,0.0,0.0,0.0,0.0,0.0,0.0,0.0,0.0,0.0,0.0,0.0,0.0,0.0,0.0,0.0,0.0,0.0,0.0,0.0,0.0,0.0,0.0,0.0,0.0,0.0,0.0,0.0,0.0,0.0,0.0,0.0,0.0,0.0,0.0,0.0,0.0,0.0,0.0,0.0,0.0,0.0,0.0,0.0,0.0,0.0,0.0,0.0,0.0,0.0,0.0,0.0,0.0,0.0,0.0,0.0,0.0,0.0,0.0,0.0,0.0,0.0,0.0,0.0,0.0,0.0,0.0,0.0,0.0,0.0,0.0,0.0,0.0,0.0,0.0,0.0,0.0,0.0,0.0,0.0,0.0,0.0,0.0,0.0,0.0,0.0,0.0,0.0,0.0,0.0,0.0,0.0,0.0,0.0,0.0,0.0,0.0,0.0,0.0,0.0,0.0,0.0,0.0,0.0,0.0,0.0,0.0,0.0,0.0,0.0,0.0,0.0,0.0,0.0,0.0,0.0,0.0,0.0,0.0,0.0,0.0,0.0,0.0,0.0,0.0,0.0,0.0,0.0,0.0,0.0,0.0,0.0,0.0,0.0,0.0,0.0,0.0,0.0,0.0,0.0,0.0,0.0,0.0,0.0,0.0,0.0,0.0,0.0,0.0,0.0,0.0,0.0,0.0,0.0,0.0,0.0,0.0,0.0,0.0,0.0,0.0,0.0,0.0,0.0,0.0,0.0,0.0,0.0,0.0,0.0,0.0,0.0,0.0,0.0,0.0,0.0,0.0,0.0,0.0,0.0,0.0,0.0,0.0,0.0,0.0,0.0,0.0,0.0,0.0,0.0,0.0,0.0,0.0,0.0,0.0,0.0,0.0,0.0,0.0,0.0,0.0,0.0,0.0,0.0,0.0,0.0,0.0,0.0,0.0,0.0,0.0,0.0,0.0,0.0,0.0,0.0,0.0,0.0,0.0,0.0,0.0,0.0,0.0,0.0,0.0,0.0,0.0,0.0,0.0,0.0,0.0,0.0,0.0,0.0,0.0,0.0,0.0,0.0,0.0,0.0,0.0,0.0,0.0,0.0,0.0,0.0,0.0,0.0,0.0,0.0,0.0,0.0,0.0,0.0,0.0,0.0,0.0,0.0,0.0,0.0,0.0,0.0,0.0,0.0,0.0,0.0,0.0,0.0,0.0,0.0,0.0,0.0,0.0,0.0,0.0,0.0,0.0,0.0,0.0,0.0,0.0,0.0,0.0,0.0,0.0,0.0,0.0,0.0,0.0,0.0,0.0,0.0,0.0,0.0,0.0,0.0,0.0,0.0,0.0,0.0,0.0,0.0,0.0,0.0,0.0,0.0,0.0,0.0,0.0,0.0,0.0,0.0,0.0,0.0,0.0,0.0,0.0,0.0,0.0,0.0,0.0,0.0,0.0,0.0,0.0,0.0,0.0,0.0,0.0,0.0,0.0,0.0,0.0,0.0,0.0,0.0,0.0,0.0,0.0,0.0,0.0,0.0,0.0,0.0,0.0,0.0,0.0,0.0,0.0,0.0,0.0,0.0,0.0,0.0,0.0,0.0,0.0,0.0,0.0,0.0,0.0,0.0,0.0,0.0,0.0,0.0,0.0,0.0,0.0,0.0,0.0,0.0,0.0,0.0,0.0,0.0,0.0,0.0,0.0,0.0,0.0,0.0,0.0,0.0,0.0,0.0,0.0,0.0,0.0,0.0,0.0,0.0,0.0,0.0,0.0,0.0,0.0,0.0,0.0,0.0,0.0,0.0,0.0,0.0,0.0,0.0,0.0,0.0,0.0,0.0,0.0,0.0,0.0,0.0,0.0,0.0,0.0,0.0,0.0,0.0,0.0,0.0,0.0,0.0,0.0,0.0,0.0,0.0,0.0,0.0,0.0,0.0,0.0,0.0,0.0,0.0,0.0,0.0,0.0,0.0,0.0,0.0,0.0,0.0,0.0,0.0,0.0,0.0,0.0,0.0,0.0,0.0,0.0,0.0,0.0,0.0,0.0,0.0,0.0,0.0,0.0,0.0,0.0,0.0,0.0,0.0,0.0,0.0,0.0,0.0,0.0,0.0,0.0,0.0,0.0,0.0,0.0,0.0,0.0,0.0,0.0,0.0,0.0,0.0,0.0,0.0,0.0,0.0,0.0,0.0,0.0,0.0,0.0,0.0,0.0,0.0,0.0,0.0,0.0,0.0,0.0,0.0,0.0,0.0,0.0,0.0,0.0,0.0,0.0,0.0,0.0,0.0,0.0,0.0,0.0,0.0,0.0,0.0,0.0,0.0,0.0,0.0,0.0,0.0,0.0,0.0,0.0,0.0,0.0,0.0,0.0,0.0,0.0,0.0,0.0,0.0,0.0,0.0,0.0,0.0,0.0,0.0,0.0,0.0,0.0,0.0,0.0,0.0,0.0,0.0,0.0,0.0,0.0,0.0,0.0,0.0,0.0,0.0,0.0,0.0,0.0,0.0,0.0,0.0,0.0,0.0,0.0,0.0,0.0,0.0,0.0,0.0,0.0,0.0,0.0,0.0,0.0,0.0,0.0,0.0,0.0,0.0,0.0,0.0,0.0,0.0,0.0,0.0,0.0,0.0,0.0,0.0,0.0,0.0,0.0,0.0,0.0,0.0,0.0,0.0,0.0,0.0,0.0,0.0,0.0,0.0,0.0,0.0,0.0,0.0,0.0,0.0,0.0,0.0,0.0,0.0,0.0,0.0,0.0,0.0,0.0,0.0,0.0,0.0,0.0,0.0,0.0,0.0,0.0,0.0,0.0,0.0,0.0,0.0,0.0,0.0,0.0,0.0,0.0,0.0,0.0,0.0,0.0,0.0,0.0,0.0,0.0,0.0,0.0,0.0,0.0,0.0,0.0,0.0,0.0,0.0,0.0,0.0,0.0,0.0,0.0,0.0,0.0,0.0,0.0,0.0,0.0,0.0,0.0,0.0,0.0,0.0,0.0,0.0,0.0,0.0,0.0,0.0,0.0,0.0,0.0,0.0,0.0,0.0,0.0,0.0,0.0,0.0,0.0,0.0,0.0,0.0,0.0,0.0,0.0,0.0,0.0,0.0,0.0,0.0,0.0,0.0,0.0,0.0,0.0,0.0,0.0,0.0,0.0,0.0,0.0,0.0,0.0,0.0,0.0,0.0,0.0,0.0,0.0,0.0,0.0,0.0,0.0,0.0,0.0,0.0,0.0,0.0,0.0,0.0,0.0,0.0,0.0,0.0,0.0,0.0,0.0,0.0,0.0,0.0,0.0,0.0,0.0,0.0,0.0,0.0,0.0,0.0,0.0,0.0,0.0,0.0,0.0,0.0,0.0,0.0,0.0,0.0,0.0,0.0,0.0,0.0,0.0,0.0,0.0,0.0,0.0,0.0,0.0,0.0,0.0,0.0,0.0,0.0,0.0,0.0,0.0,0.0,0.0,0.0,0.0,0.0,0.0,0.0,0.0,0.0,0.0,0.0,0.0,0.0,0.0,0.0,0.0,0.0,0.0,0.0,0.0,0.0,0.0,0.0,0.0,0.0,0.0,0.0,0.0,0.0,0.0,0.0,0.0,0.0,0.0,0.0,0.0,0.0,0.0,0.0,0.0,0.0,0.0,0.0,0.0,0.0,0.0,0.0,0.0,0.0,0.0,0.0,0.0,0.0,0.0,0.0,0.0,0.0,0.0,0.0,0.0,0.0,0.0,0.0,0.0,0.0,0.0,0.0,0.0,0.0,0.0,0.0,0.0,0.0,0.0,0.0,0.0,0.0,0.0,0.0,0.0,0.0,0.0,0.0,0.0,0.0,0.0,0.0,0.0,0.0,0.0,0.0,0.0,0.0,0.0,0.0,0.0,0.0,0.0,0.0,0.0,0.0,0.0,0.0,0.0,0.0,0.0,0.0,0.0,0.0,0.0,0.0,0.0,0.0,0.0,0.0,0.0,0.0,0.0,0.0,0.0,0.0,0.0,0.0,0.0,0.0,0.0,0.0,0.0,0.0,0.0,0.0,0.0,0.0,0.0,0.0,0.0,0.0,0.0,0.0,0.0,0.0,0.0,0.0,0.0,0.0,0.0,0.0,0.0,0.0,0.0,0.0,0.0,0.0,0.0,0.0,0.0,0.0,0.0,0.0,0.0,0.0,0.0,0.0,0.0,0.0,0.0,0.0,0.0,0.0,0.0,0.0,0.0,0.0,0.0,0.0,0.0,0.0,0.0,0.0,0.0,0.0,0.0,0.0,0.0,0.0,0.0,0.0,0.0,0.0,0.0,0.0,0.0,0.0,0.0,0.0,0.0,0.0,0.0,0.0,0.0,0.0,0.0,0.0,0.0,0.0,0.0,0.0,0.0,0.0,0.0,0.0,0.0,0.0,0.0,0.0,0.0,0.0,0.0,0.0,0.0,0.0,0.0,0.0,0.0,0.0,0.0,0.0,0.0,0.0,0.0,0.0,0.0,0.0,0.0,0.0,0.0,0.0,0.0,0.0,0.0,0.0,0.0,0.0,0.0,0.0,0.0,0.0,0.0,0.0,0.0,0.0,0.0,0.0,0.0,0.0,0.0,0.0,0.0,0.0,0.0,0.0,0.0,0.0,0.0,0.0,0.0,0.0,0.0,0.0,0.0,0.0,0.0,0.0,0.0,0.0,0.0,0.0,0.0,0.0,0.0,0.0,0.0,0.0,0.0,0.0,0.0,0.0,0.0,0.0,0.0,0.0,0.0,0.0,0.0,0.0,0.0,0.0,0.0,0.0,0.0,0.0,0.0,0.0,0.0,0.0,0.0,0.0,0.0,0.0,0.0,0.0,0.0,0.0,0.0,0.0,0.0,0.0,0.0,0.0,0.0,0.0,0.0,0.0,0.0,0.0,0.0,0.0,0.0,0.0,0.0,0.0,0.0,0.0,0.0,0.0,0.0,0.0,0.0,0.0,0.0,0.0,0.0,0.0,0.0,0.0,0.0,0.0,0.0,0.0,0.0,0.0,0.0,0.0,0.0,0.0,0.0,0.0,0.0,0.0,0.0,0.0,0.0,0.0,0.0,0.0,0.0,0.0,0.0,0.0,0.0,0.0,0.0,0.0,0.0,0.0,0.0,0.0,0.0,0.0,0.0,0.0,0.0,0.0,0.0,0.0,0.0,0.0,0.0,0.0,0.0,0.0,0.0,0.0,0.0,0.0,0.0,0.0,0.0,0.0,0.0,0.0,0.0,0.0,0.0,0.0,0.0,0.0,0.0,0.0,0.0,0.0,0.0,0.0,0.0,0.0,0.0,0.0,0.0,0.0,0.0,0.0,0.0,0.0,0.0,0.0,0.0,0.0,0.0,0.0,0.0,0.0,0.0,0.0,0.0,0.0,0.0,0.0,0.0,0.0,0.0,0.0,0.0,0.0,0.0,0.0,0.0,0.0,0.0,0.0,0.0,0.0,0.0,0.0,0.0,0.0,0.0,0.0,0.0,0.0,0.0,0.0,0.0,0.0,0.0,0.0,0.0,0.0,0.0,0.0,0.0,0.0,0.0,0.0,0.0,0.0,0.0,0.0,0.0,0.0,0.0,0.0,0.0,0.0,0.0,0.0,0.0,0.0,0.0,0.0,0.0,0.0,0.0,0.0,0.0,0.0,0.0,-1.9158,-1.9292,0.0,0.0,0.0,0.0,0.0,0.0,0.0,0.0,0.0,0.0,0.0,0.0,0.0,0.0,0.0,0.0,0.0,0.0,0.0,0.0,0.0,0.0,0.0,0.0,0.0,0.0,0.0,0.0,0.0,0.0,0.0,0.0,0.0,0.0,0.0,0.0,-1.3803,-1.2352,-1.4769,-1.4589,-1.2209,-1.0776,0.0,0.0,0.0,0.0,0.0,0.0,0.0,0.0,0.0,0.0,0.0,0.0,0.0,0.0,0.0,0.0,0.0,0.0,0.0,0.0,0.0,0.0,0.0,0.0,0.0,0.0,0.0,0.0,0.0,0.0,0.0,0.0,0.0,0.0,0.0,0.0,0.0,0.0,0.0,0.0,0.0,0.0,0.0,0.0,0.0,0.0,0.0,0.0,0.0,0.0,0.0,0.0,0.0,0.0,0.0,0.0,0.0,0.0,0.0,0.0,0.0,0.0,0.0,0.0,0.0,0.0,0.0,0.0,0.0,0.0,0.0,0.0,-2.0361,-1.976,0.0,0.0,0.0,0.0,0.0,0.0,0.0,0.0,0.0,0.0,0.0,0.0,0.0,0.0,0.0,0.0,0.0,0.0,0.0,0.0,0.0,0.0,0.0,-1.0044,-0.9961,-0.9815,-0.9761,-0.9754,0.0,0.0,0.0,0.0,0.0,-0.995,-1.0343,-1.3377,-1.3732,-1.0944,-1.3301,-1.3005,-1.0249,-1.0677,0.0,0.0,0.0,0.0,0.0,0.0,0.0,0.0,0.0,0.0,0.0,0.0,0.0,0.0,0.0,0.0,0.0,0.0,0.0,0.0,0.0,0.0,0.0,0.0,0.0,0.0,0.0,0.0,0.0,0.0,0.0,0.0,0.0,0.0,0.0,0.0,0.0,0.0,0.0,0.0,0.0,0.0,0.0,0.0,0.0,0.0,0.0,0.0,0.0,0.0,0.0,0.0,0.0,0.0,0.0,0.0,0.0,0.0,0.0,0.0,0.0,0.0,0.0,0.0,0.0,0.0,-2.2082,-2.2756,-2.2558,-2.3562,-2.3981,-2.3981,-2.2205,-2.0855,-1.9947,-2.0468,0.0,0.0,0.0,0.0,0.0,0.0,0.0,0.0,0.0,0.0,0.0,0.0,0.0,0.0,0.0,0.0,0.0,0.0,0.0,0.0,0.0,-1.1856,-1.1401,-0.995,-1.0046,-1.0086,-0.9836,0.0,-0.9937,-0.9829,-0.9822,-1.0601,-1.22,-1.4061,-1.4901,-1.472,-1.3925,-1.27,-1.1023,-1.1348,-1.1457,-1.1355,-1.0738,0.0,0.0,0.0,0.0,0.0,0.0,0.0,0.0,0.0,0.0,0.0,0.0,0.0,0.0,0.0,0.0,0.0,0.0,0.0,0.0,0.0,0.0,0.0,0.0,0.0,0.0,0.0,0.0,0.0,0.0,0.0,0.0,0.0,0.0,0.0,0.0,0.0,0.0,0.0,0.0,0.0,0.0,0.0,-1.7983,-1.8277,0.0,0.0,0.0,0.0,0.0,0.0,0.0,0.0,0.0,0.0,0.0,0.0,0.0,-2.2058,-2.2792,-2.342,-2.3665,-2.3667,-2.4077,-2.4435,-2.4697,-2.4528,-2.4796,-2.5251,-2.473,0.0,-2.1951,-2.1042,0.0,0.0,0.0,0.0,0.0,0.0,0.0,0.0,0.0,0.0,0.0,0.0,0.0,0.0,0.0,0.0,0.0,0.0,0.0,0.0,0.0,-1.2428,-1.1876,-1.0211,-1.0582,-1.067,-1.0114,-1.0378,-1.0412,-1.0093,-0.9998,-1.0754,-1.2773,-1.3518,-1.3968,-1.4401,-1.3247,-1.2244,-1.1674,-1.1972,-1.2115,-1.2094,-1.1687,-1.1497,-1.1457,-1.0982,0.0,0.0,0.0,0.0,0.0,0.0,0.0,0.0,0.0,0.0,0.0,0.0,0.0,0.0,0.0,0.0,0.0,0.0,0.0,0.0,0.0,0.0,0.0,0.0,0.0,0.0,0.0,0.0,0.0,0.0,0.0,0.0,0.0,0.0,0.0,0.0,0.0,0.0,0.0,-1.8878,-1.9506,-1.8811,-1.972,-2.0094,0.0,0.0,0.0,0.0,0.0,0.0,0.0,0.0,0.0,-2.2338,-2.2926,-2.342,-2.3821,-2.4569,-2.5264,-2.5932,-2.6213,-2.6774,-2.7535,-2.7081,-2.7281,-2.7949,-2.7335,-2.6426,-2.5224,-2.3233,-2.2004,-2.1296,0.0,0.0,0.0,0.0,-2.0535,-2.0802,0.0,0.0,0.0,0.0,0.0,0.0,0.0,0.0,0.0,0.0,0.0,0.0,-1.3202,-1.2841,-1.225,-1.0788,-1.1151,-1.1233,-1.0711,-1.0738,-1.0663,-1.0405,-1.0175,-1.0878,-1.296,-1.3157,-1.3401,-1.3821,-1.2816,-1.2332,-1.2413,-1.2705,-1.284,-1.284,-1.2732,-1.2393,-1.1877,-1.1416,-1.1158,0.0,0.0,0.0,0.0,0.0,0.0,0.0,0.0,0.0,0.0,0.0,0.0,0.0,0.0,0.0,0.0,0.0,0.0,0.0,0.0,0.0,0.0,0.0,0.0,0.0,0.0,0.0,0.0,0.0,0.0,0.0,0.0,0.0,0.0,0.0,0.0,0.0,0.0,-1.9907,-2.0615,-1.9305,-2.0842,-2.143,0.0,0.0,0.0,0.0,0.0,0.0,-2.2378,-2.2712,-2.322,-2.3981,-2.4636,-2.513,-2.5438,-2.6239,-2.7081,-2.7949,-2.8163,-2.8818,-2.9793,-2.9205,-2.9379,-3.01,-2.9285,-2.8604,-2.7856,-2.5358,-2.3594,-2.2405,-2.1964,-2.1617,-2.139,-2.1683,-2.1977,-2.2258,0.0,0.0,0.0,0.0,0.0,0.0,0.0,0.0,0.0,0.0,0.0,-1.5457,-1.5137,-1.3958,-1.272,-1.1832,-1.166,-1.1647,-1.1748,-1.0846,-1.0426,-1.0683,-1.0283,-1.0929,-1.302,-1.3587,-1.4223,-1.4629,-1.3538,-1.3057,-1.3342,-1.3634,-1.3777,-1.3777,-1.377,-1.3593,-1.3214,-1.1925,-1.1619,-1.1918,0.0,0.0,0.0,0.0,0.0,0.0,0.0,0.0,0.0,0.0,0.0,0.0,0.0,0.0,0.0,0.0,0.0,0.0,0.0,0.0,0.0,0.0,0.0,0.0,0.0,0.0,0.0,0.0,0.0,0.0,0.0,0.0,0.0,0.0,0.0,0.0,0.0,0.0,0.0,-1.9867,-2.1817,0.0,0.0,0.0,0.0,-2.1483,-2.2231,-2.2993,-2.3647,-2.3955,-2.4636,-2.5785,-2.6667,-2.7655,-2.8791,-2.9392,-2.9726,-2.978,-2.9793,-3.0127,-3.0702,-3.0114,-3.0181,-3.0715,-3.0114,-2.9513,-2.8818,-2.6707,-2.5478,-2.4823,-2.3968,-2.3955,-2.4356,-2.3834,-2.3821,-2.3955,0.0,0.0,0.0,0.0,0.0,0.0,0.0,0.0,-1.3752,-1.5649,-1.6109,-1.5612,-1.4244,-1.4077,-1.3535,-1.2512,-1.263,-1.2623,-1.2284,-1.1558,-1.1145,-1.1151,-1.0541,-1.0725,-1.1998,-1.342,-1.4088,-1.3705,-1.3707,-1.3878,-1.4265,-1.4475,-1.4618,-1.4706,-1.4706,-1.4597,-1.4319,-1.2868,-1.2121,-1.185,-1.1151,-1.0772,0.0,0.0,0.0,0.0,0.0,0.0,0.0,0.0,0.0,0.0,0.0,0.0,0.0,0.0,0.0,0.0,0.0,0.0,0.0,0.0,0.0,0.0,0.0,0.0,0.0,0.0,0.0,0.0,0.0,0.0,0.0,0.0,0.0,0.0,0.0,0.0,0.0,-2.2926,-2.4489,0.0,-2.3354,-2.2993,-2.2966,-2.3233,-2.3541,-2.4315,-2.5665,-2.6012,-2.68,-2.8177,-2.8524,-2.9165,-3.0154,-3.0381,-3.0675,-3.1036,-3.0849,-3.1062,-3.161,-3.0835,-3.0902,-3.1597,-3.0822,-3.0368,-3.0087,-2.8965,-2.7482,-2.5838,-2.4957,-2.4623,-2.4636,-2.4623,-2.4796,-2.5024,0.0,0.0,0.0,0.0,0.0,0.0,0.0,0.0,-1.3741,-1.4187,-1.5171,-1.5286,-1.3972,-1.3956,-1.3781,-1.3349,-1.3492,-1.3376,-1.2976,-1.2067,-1.1518,-1.147,-1.0948,-1.0934,-1.1525,-1.32,-1.3723,-1.3397,-1.4,-1.4475,-1.4821,-1.497,-1.5092,-1.5181,-1.5235,-1.5208,-1.5052,-1.4,-1.3064,-1.2223,-1.1525,-1.1274,-1.1233,0.0,0.0,0.0,0.0,0.0,0.0,0.0,0.0,0.0,0.0,0.0,0.0,0.0,0.0,0.0,0.0,0.0,0.0,0.0,0.0,0.0,0.0,0.0,0.0,0.0,0.0,0.0,0.0,0.0,0.0,0.0,0.0,0.0,0.0,0.0,-2.4863,-2.5064,-2.664,-2.7175,-2.5798,-2.5331,-2.5224,-2.5518,-2.5718,-2.6426,-2.7789,-2.8056,-2.8698,-2.9887,-3.002,-3.0448,-3.1223,-3.133,-3.153,-3.181,-3.1717,-3.1877,-3.2238,-3.165,-3.1757,-3.2358,-3.157,-3.1183,-3.1036,-3.0448,-2.9179,-2.7495,-2.672,-2.6293,-2.6146,-2.6346,-2.648,-2.656,0.0,0.0,0.0,0.0,0.0,0.0,0.0,-1.205,-1.3986,-1.1859,-1.3221,-1.4438,-1.44,-1.3683,-1.3627,-1.4665,-1.4197,-1.3844,-1.3838,-1.2298,-1.1457,-1.1599,-1.147,-1.1545,-1.187,-1.2732,-1.341,-1.3878,-1.4462,-1.4835,-1.5004,-1.5147,-1.5215,-1.5228,-1.5377,-1.5445,-1.5432,-1.5276,-1.4455,-1.3173,-1.225,-1.1959,-1.1993,0.0,0.0,0.0,0.0,0.0,0.0,0.0,0.0,0.0,0.0,0.0,0.0,0.0,0.0,0.0,0.0,0.0,0.0,0.0,0.0,0.0,0.0,0.0,0.0,0.0,0.0,0.0,0.0,0.0,0.0,0.0,0.0,0.0,-2.155,-2.4155,-2.6012,-2.6079,-2.8123,-2.8858,-2.7134,-2.8003,-2.8551,-2.8243,-2.8764,-2.9339,-2.9913,-2.9953,-3.0221,-3.0795,-3.1102,-3.153,-3.2118,-3.2412,-3.2425,-3.2144,-3.2425,-3.2559,-3.2572,-3.2559,-3.2706,-3.2946,-3.2372,-3.1944,-3.1637,-3.1062,-3.0474,-2.99,-2.9285,-2.9045,-2.9032,-2.9032,-2.8845,-2.8511,0.0,0.0,0.0,0.0,0.0,0.0,0.0,-1.3869,-1.4297,-1.2956,-1.408,-1.4503,-1.3151,-1.3672,-1.4278,-1.4997,-1.4414,-1.3919,-1.3702,-1.2244,-1.1362,-1.1294,-1.1355,0.0,-1.2949,-1.3214,-1.377,-1.4658,-1.493,-1.5248,-1.5615,-1.5764,-1.5947,-1.6157,-1.6198,-1.6157,-1.6056,-1.59,-1.5554,-1.4991,-1.3546,-1.2732,-1.2311,0.0,0.0,0.0,0.0,0.0,0.0,0.0,0.0,0.0,0.0,0.0,0.0,0.0,0.0,0.0,0.0,0.0,0.0,0.0,0.0,0.0,0.0,0.0,0.0,0.0,0.0,0.0,0.0,0.0,0.0,0.0,-2.2191,-2.3287,-2.3447,-2.5451,-2.7388,-2.8671,-2.9967,-3.0635,-3.0368,-3.0247,-3.0154,-3.0074,-3.0221,-3.0381,-3.0541,-3.0755,-3.1036,-3.1423,-3.1704,-3.2144,-3.2732,-3.2812,-3.2919,-3.3053,-3.2919,-3.2973,-3.316,-3.2732,-3.2706,-3.2959,-3.2585,-3.2251,-3.1957,-3.1583,-3.1209,-3.0768,-2.9753,-2.9098,-2.8724,-2.8724,-2.8537,-2.8243,0.0,0.0,0.0,0.0,0.0,0.0,0.0,-1.4612,-1.4815,-1.2625,-1.4257,-1.4806,-1.2804,-1.3729,-1.4652,-1.5059,-1.4529,-1.396,-1.3471,-1.2332,-1.1633,-1.1545,0.0,-1.2752,-1.3661,-1.3987,-1.4509,-1.5248,-1.5459,-1.5723,-1.6049,-1.6198,-1.6361,-1.6524,-1.6653,-1.6666,-1.6585,-1.6497,-1.6368,-1.613,-1.4984,-1.4204,-1.362,-1.2712,-1.2372,-1.2318,-1.1864,-1.1782,-1.1843,-1.1477,0.0,0.0,0.0,0.0,0.0,0.0,0.0,0.0,0.0,0.0,0.0,0.0,0.0,0.0,0.0,0.0,0.0,0.0,0.0,0.0,0.0,0.0,0.0,0.0,-2.4035,-2.5558,-2.6306,-2.7549,-2.8938,-3.0474,-3.1423,-3.2024,-3.2198,-3.1904,-3.1664,-3.1543,-3.153,-3.153,-3.153,-3.169,-3.1917,-3.2211,-3.2385,-3.2692,-3.316,-3.316,-3.3187,-3.3227,-3.3187,-3.3187,-3.3227,-3.3013,-3.3,-3.3146,-3.2853,-3.2559,-3.2265,-3.1971,-3.1597,-3.1129,0.0,0.0,0.0,0.0,-2.8604,-2.8323,0.0,0.0,0.0,0.0,0.0,0.0,0.0,-1.4838,-1.5445,-1.1859,-1.4015,-1.4992,-1.2859,-1.3817,-1.4699,-1.4903,-1.4496,-1.3919,-1.3193,-1.2481,-1.2142,-1.2257,-1.3207,-1.3892,-1.4238,-1.4909,-1.5404,-1.5716,-1.5981,-1.6191,-1.6361,-1.649,-1.6564,-1.6612,-1.6883,-1.7012,-1.7032,-1.7032,-1.6951,-1.6788,-1.6374,-1.5886,-1.5276,-1.4048,-1.3797,-1.3987,-1.3152,-1.2712,-1.2447,-1.1979,0.0,0.0,0.0,0.0,0.0,0.0,0.0,0.0,0.0,0.0,0.0,0.0,0.0,0.0,0.0,0.0,0.0,0.0,0.0,0.0,0.0,0.0,0.0,0.0,-2.5919,-2.7655,-2.9472,-3.0007,-3.0595,-3.1637,-3.2478,-3.2986,-3.3026,-3.3026,-3.2919,-3.2666,-3.2639,-3.2625,-3.2599,0.0,0.0,0.0,0.0,-3.3146,-3.3414,-3.3414,-3.3081,-3.263,-3.3081,-3.3067,-3.263,-3.3094,-3.3414,-3.34,-3.3146,-3.2866,-3.2572,-3.2278,-3.1784,-3.1169,-3.0555,-3.0314,-3.0207,-2.9312,-2.8831,-2.8564,0.0,0.0,0.0,0.0,0.0,0.0,-1.546,-1.6176,-1.5766,-1.3177,-1.4411,-1.464,-1.2241,-1.3105,-1.4048,-1.4557,-1.4082,-1.3546,-1.3037,-1.2528,-1.2617,-1.3458,-1.4041,-1.4652,-1.5323,-1.5588,-1.5872,-1.6178,-1.6239,-1.6402,-1.6666,-1.6693,-1.6836,-1.7066,-1.7127,-1.7222,-1.7338,-1.7338,-1.7317,-1.727,-1.706,-1.6347,-1.5357,-1.4855,-1.4496,-1.4204,-1.3777,-1.3749,-1.3824,-1.3247,-1.3098,-1.3024,-1.2747,0.0,0.0,0.0,0.0,0.0,0.0,0.0,0.0,0.0,0.0,0.0,0.0,0.0,0.0,0.0,0.0,0.0,0.0,0.0,0.0,-2.5945,-2.7415,-2.8965,-3.0969,-3.1704,-3.2118,-3.2345,-3.2732,-3.3066,-3.3307,-3.3334,-3.3307,-3.3253,-3.324,-3.3146,-3.2906,-3.312,-3.316,-3.2986,-3.32,-3.336,-3.3414,-3.3414,-3.2358,-3.0057,-3.2358,0.0,-3.0069,-3.2358,-3.3414,-3.3414,-3.336,-3.316,-3.2879,-3.2585,-3.1971,-3.1142,-3.0327,-3.0007,-2.99,-2.9018,-2.8657,-2.8564,0.0,0.0,0.0,0.0,0.0,0.0,-1.6032,-1.6299,-1.5669,-1.3335,-1.424,-1.404,-1.1622,-1.2257,-1.2901,-1.3051,-1.2793,-1.2657,-1.2725,-1.2942,-1.3464,-1.4367,-1.4977,-1.554,-1.6069,-1.6225,-1.6415,-1.6646,-1.6714,-1.6829,-1.6971,-1.7053,-1.7161,-1.7311,-1.7385,-1.746,-1.7534,-1.7534,-1.7534,-1.7521,-1.7365,-1.6951,-1.6368,-1.592,-1.5513,-1.516,-1.493,-1.476,-1.457,-1.4109,-1.3858,-1.3614,-1.2942,-1.2372,-1.245,0.0,0.0,0.0,0.0,0.0,0.0,0.0,0.0,0.0,0.0,0.0,0.0,0.0,0.0,-2.1871,-2.2899,0.0,-2.5932,-2.7843,-2.9392,-3.0822,-3.2131,-3.2839,-3.3106,-3.2799,-3.3013,-3.332,-3.3614,-3.3654,-3.3708,-3.3855,-3.3734,-3.3587,-3.344,-3.3414,-3.3347,-3.32,-3.3334,-3.3414,-3.3414,-3.3414,-3.2799,-3.1365,-3.2799,-3.2598,-3.1365,-3.2799,-3.3414,-3.3414,-3.3414,-3.324,-3.2946,-3.2505,-3.2064,-3.1597,-3.0862,-3.0301,-2.986,-2.9419,-2.8978,-2.8591,0.0,0.0,0.0,0.0,0.0,0.0,0.0,-1.6086,-1.5532,-1.3371,-1.3829,-1.3571,-1.1308,-1.1468,-1.1694,-1.1545,-1.1667,-1.204,-1.2718,-1.3546,-1.4394,-1.5235,-1.5961,-1.6469,-1.6734,-1.689,-1.7012,-1.7114,-1.7222,-1.7283,-1.7283,-1.7405,-1.7494,-1.7555,-1.7684,-1.7751,-1.7772,-1.7772,-1.7758,-1.7717,-1.7602,-1.7534,-1.7446,-1.6904,-1.653,-1.6273,-1.6056,-1.5567,-1.497,-1.4692,-1.4319,-1.3885,-1.3383,-1.301,-1.3113,-1.4728,-1.4474,0.0,0.0,0.0,0.0,0.0,0.0,0.0,0.0,0.0,-2.179,-2.2378,-2.2819,-2.3594,-2.5211,-2.6653,-2.811,-2.9659,-3.1142,-3.2345,-3.3053,-3.3574,-3.3708,-3.3213,-3.3414,-3.3694,-3.3948,-3.3975,-3.4068,-3.4295,-3.4108,-3.3975,-3.3975,-3.3734,-3.3561,-3.3507,-3.3507,-3.3467,-3.3414,-3.3414,-3.32,-3.2598,-3.32,-3.32,-3.2598,-3.32,-3.3414,-3.3414,-3.3414,-3.324,-3.2933,-3.2412,-3.2158,-3.2051,-3.1517,-3.0849,-3.0154,-2.998,-2.9432,-2.8764,0.0,0.0,0.0,0.0,0.0,0.0,0.0,0.0,-1.5802,-1.4287,-1.3912,-1.3258,-1.1638,-1.1053,-1.0812,-1.1179,-1.183,-1.2637,-1.3627,-1.4285,-1.5153,-1.63,-1.6937,-1.7351,-1.7521,-1.767,-1.7684,-1.7575,-1.7589,-1.7595,-1.7595,-1.7616,-1.7758,-1.8023,-1.8036,-1.8124,-1.8247,-1.8247,-1.8158,-1.8036,-1.8023,-1.7935,-1.7772,-1.7446,-1.7216,-1.7012,-1.6598,-1.5893,-1.5133,-1.4977,-1.4706,-1.4401,-1.4211,-1.3939,-1.4266,-1.7449,0.0,-1.2788,-1.7916,-1.6633,0.0,-1.8052,-1.7806,-1.7518,0.0,0.0,-2.3634,-2.4222,-2.4997,-2.5865,-2.6841,-2.8016,-2.9406,-3.1142,-3.181,-3.2492,-3.3627,-3.3841,-3.3855,-3.3788,-3.4042,-3.4229,-3.4269,-3.4269,-3.4282,-3.4322,-3.4295,-3.4269,-3.4269,-3.4242,-3.4095,-3.3841,-3.3828,-3.3694,-3.3414,-3.3414,-3.2183,-2.9736,-3.2183,-3.2183,-2.9927,-3.2384,-3.3414,-3.3414,-3.3414,-3.324,-3.2959,-3.2625,-3.2345,-3.2064,-3.1744,-3.1396,-3.0982,-3.0207,-2.9686,-2.9312,0.0,0.0,0.0,0.0,0.0,0.0,0.0,0.0,0.0,-1.4301,-1.3581,-1.2674,-1.1335,-1.0318,-0.9788,-0.9978,-1.0995,-1.2115,-1.3254,-1.4462,-1.5662,-1.6863,-1.7405,-1.7792,-1.8036,-1.8091,-1.8091,-1.8036,-1.8036,-1.8036,-1.8036,-1.8124,-1.8287,-1.8477,-1.8477,-1.8518,-1.8586,-1.8586,-1.8531,-1.8477,-1.8477,-1.8342,-1.8111,-1.7894,-1.7392,-1.6741,-1.6293,-1.5669,0.0,-1.4889,-1.4638,-1.4421,-1.4624,-1.4245,-1.4182,-1.6939,-1.565,0.0,-1.7839,0.0,0.0,0.0,-1.647,-1.6031,-1.75,-1.9427,-2.1613,-2.3876,-2.5059,-2.633,-2.8937,-3.014,-3.1116,0.0,-3.2719,-3.3253,-3.3561,-3.3908,-3.3881,-3.3187,-3.3828,-3.4255,-3.4082,-3.4229,-3.4389,-3.4563,-3.4576,-3.4576,-3.4576,-3.4416,-3.4269,-3.4148,-3.4135,-3.3988,-3.3694,-3.3694,-3.2983,-3.1768,-3.2799,-3.2799,-3.1768,-3.2799,-3.3414,-3.3414,-3.3414,-3.3347,-3.3213,-3.2919,-3.2625,-3.2332,-3.2038,-3.1744,-3.1396,-3.0688,-3.0127,-2.9646,0.0,0.0,0.0,0.0,0.0,0.0,0.0,0.0,0.0,0.0,-1.3843,-1.2695,-1.1084,-1.0193,-0.951,-0.9257,-1.027,-1.1525,-1.2813,-1.436,-1.5811,-1.7134,-1.7704,-1.8145,-1.8498,-1.8586,-1.862,-1.862,-1.862,-1.862,-1.864,-1.8728,-1.8864,-1.9006,-1.9006,-1.9006,-1.9006,-1.9006,-1.8959,-1.8884,-1.8884,-1.8654,-1.8287,-1.7914,-1.7367,-1.7013,-1.6586,-1.5889,-1.5148,-1.4942,-1.4728,-1.4607,-1.4476,-1.4395,-1.4762,-1.6913,-1.7097,-1.6866,-1.7496,0.0,0.0,-1.5493,-1.5537,-1.5607,-1.6187,-1.7906,-2.0448,-2.3271,-2.4822,-2.664,-2.953,-3.1212,-3.2372,-3.2839,-3.3467,-3.3841,-3.3681,-3.3895,-3.3694,-3.2666,-3.316,-3.3534,-3.34,-3.4028,-3.4536,-3.475,-3.4843,-3.4883,-3.4883,-3.4683,-3.4523,-3.4442,-3.4442,-3.4295,-3.4015,-3.3921,-3.3774,-3.3547,-3.3454,-3.3414,-3.3414,-3.3414,-3.3414,-3.3414,-3.3414,-3.3414,-3.3387,-3.3013,-3.2732,-3.2505,-3.2131,-3.1851,-3.161,-3.1102,-3.0541,-2.994,0.0,0.0,0.0,0.0,0.0,0.0,0.0,0.0,0.0,0.0,0.0,0.0,0.0,-1.0849,-1.0241,-0.9236,-0.9985,-1.1145,-1.2637,-1.4007,-1.5486,-1.7121,-1.7914,-1.8511,-1.8959,-1.9257,-1.9393,-1.9393,-1.9393,-1.9393,-1.9393,-1.9393,-1.9481,-1.9624,-1.9624,-1.9624,-1.9624,-1.9624,-1.9468,-1.9183,-1.9183,-1.883,-1.8233,-1.7344,-1.7451,-1.8096,-1.7922,-1.6969,-1.5748,-1.539,-1.5268,-1.4987,-1.3604,-1.4594,0.0,-1.849,-2.0683,-2.1821,0.0,0.0,-1.6385,-1.5497,-1.5748,-1.6475,-1.7738,-1.9697,-2.1664,-2.2914,-2.5202,-2.7366,-2.8332,-3.0708,-3.2826,-3.3708,-3.3868,-3.3975,-3.4255,-3.3801,-3.3213,-3.2612,-3.2078,-3.1864,0.0,-3.3734,-3.475,-3.4763,-3.5017,-3.5177,-3.5177,-3.5177,-3.5044,-3.4763,-3.475,-3.4603,-3.4309,-3.4028,-3.3881,-3.3868,-3.3561,-3.3414,-3.3414,-3.3414,-3.3414,-3.3414,-3.3414,-3.3414,-3.3374,-3.2799,-3.2559,-3.2492,-3.1904,-3.1677,-3.1637,-3.133,-3.0849,-3.0221,0.0,0.0,0.0,0.0,0.0,0.0,0.0,0.0,0.0,0.0,0.0,0.0,0.0,0.0,0.0,0.0,-0.9774,-1.0778,-1.1775,-1.3566,-1.5059,-1.6117,-1.7453,-1.8335,-1.8674,-1.9081,-1.9325,-1.9434,-1.9535,-1.959,-1.959,-1.9678,-1.98,-1.9963,-1.9963,-1.9963,-1.9963,-1.9963,-1.9786,-1.9488,-1.9291,-1.885,-1.8247,-1.7541,-1.7336,-1.7692,0.0,-1.7801,-1.6615,-1.5168,-1.4712,-1.4399,-1.3013,-1.3692,-1.5621,-1.8059,-1.9991,-2.0936,-1.8772,0.0,-1.6119,-1.5943,-1.5699,-1.576,-1.6518,-1.7433,-1.8622,-2.0799,-2.3092,-2.5346,-2.7372,-3.0063,-3.2131,-3.2625,-3.3374,-3.3841,-3.3734,-3.4055,-3.3574,-3.1623,-3.2064,0.0,0.0,0.0,0.0,-3.4416,-3.475,-3.499,-3.5191,-3.5191,-3.5151,-3.5057,-3.5057,-3.491,-3.4616,-3.4523,-3.4269,-3.3881,-3.3561,-3.3414,-3.3414,-3.3414,-3.3414,-3.3414,-3.3414,-3.3414,-3.3387,-3.2986,-3.2719,-3.2505,-3.2118,-3.1837,-3.161,-3.1116,-3.0808,-3.0555,0.0,0.0,0.0,0.0,0.0,0.0,0.0,0.0,0.0,0.0,0.0,0.0,0.0,0.0,0.0,0.0,0.0,0.0,-1.1097,-1.261,-1.396,-1.5031,-1.6144,-1.6978,-1.7487,-1.7717,-1.8057,-1.8477,-1.8674,-1.8918,-1.9183,-1.9379,-1.9556,-1.9698,-1.9698,-1.9732,-1.9786,-1.9732,-1.9501,-1.9149,-1.8674,-1.8476,-1.811,-1.7248,-1.7592,0.0,-1.8788,-1.8842,-1.8432,-1.647,-1.5422,-1.4605,-1.3069,-1.3325,-1.4675,-1.7381,-1.879,-1.9391,-1.8183,-1.7178,-1.6275,-1.6118,-1.5732,-1.5649,-1.6198,-1.6354,-1.6752,-1.8421,-2.1022,-2.3504,-2.5076,-2.8012,-3.0394,-3.133,-3.2131,-3.2812,-3.3334,-3.3641,-3.3213,-3.161,-3.1877,-3.1877,0.0,0.0,0.0,-3.3908,-3.4469,-3.4843,-3.503,-3.5137,-3.5191,-3.5191,-3.5191,-3.511,-3.4923,-3.471,-3.3884,-3.2264,-3.3092,-3.2799,-3.1982,-3.3,-3.3414,-3.3414,-3.3414,-3.3414,-3.3387,-3.2986,-3.2719,-3.2505,-3.2104,-3.177,-3.1463,-3.1089,-3.0808,-3.0541,0.0,0.0,0.0,0.0,0.0,0.0,0.0,0.0,0.0,0.0,0.0,0.0,0.0,0.0,0.0,0.0,0.0,0.0,-1.0609,-1.1253,-1.2305,-1.3878,-1.4156,-1.4679,-1.554,-1.5438,-1.5805,-1.6666,-1.6958,-1.7473,-1.8199,-1.8477,-1.8694,-1.885,-1.885,-1.8918,-1.904,-1.8905,-1.8599,-1.8124,-1.7378,-1.7473,-1.8073,-1.6872,-1.7984,-2.005,-1.9379,-2.0013,-2.0843,0.0,0.0,0.0,-1.3928,-1.3626,-1.4305,-1.6428,-1.7378,-1.7379,-1.6316,-1.6567,-1.6741,-1.5869,-1.5893,-1.6225,-1.6653,-1.6619,-1.6611,-1.6289,-1.931,-2.1939,0.0,0.0,-2.7936,-2.9967,-3.0394,-3.1169,-3.3173,-3.2772,-3.2345,0.0,0.0,0.0,0.0,0.0,0.0,-3.3347,-3.4229,-3.4736,-3.4776,-3.5044,-3.5191,-3.5191,-3.5191,-3.5191,-3.5191,-3.4616,-3.2571,-2.9354,-3.1995,-3.1768,-2.9319,-3.1982,-3.32,-3.32,-3.3414,-3.34,-3.3134,-3.2772,-3.2532,-3.2465,-3.1877,-3.1476,-3.1223,-3.1196,-3.0835,-3.0234,0.0,0.0,0.0,0.0,0.0,0.0,0.0,0.0,0.0,0.0,0.0,0.0,0.0,0.0,0.0,0.0,0.0,0.0,-0.9863,-1.0873,-1.1687,-1.2223,-1.3342,-1.4122,-1.4462,-1.476,-1.5133,-1.5581,-1.5771,-1.6022,-1.6327,-1.651,-1.6673,-1.6829,-1.6944,-1.7012,-1.7046,-1.7005,-1.6734,-1.6273,-1.575,-1.6284,-1.7226,-1.6462,-1.7873,-2.0117,-1.9825,-2.0342,0.0,0.0,0.0,0.0,0.0,-1.3913,-1.4702,-1.7048,-1.715,-1.6684,-1.682,-1.6574,-1.6328,-1.6062,-1.6361,-1.6612,-1.672,-1.7661,-1.8348,-1.7442,-2.0205,-2.2686,0.0,0.0,0.0,-2.9138,-3.0849,0.0,-3.3895,-3.4269,0.0,-3.3307,0.0,-3.2919,-3.2478,-3.2559,0.0,0.0,-3.3975,-3.4402,-3.5057,-3.5151,-3.5191,-3.5191,-3.5191,-3.5191,-3.5191,-3.4616,-3.2763,-2.9894,-3.0322,-2.9939,-2.9319,-2.9939,-3.0343,-3.0546,-3.2585,-3.2055,-3.0203,-3.1881,-3.2412,-3.2158,-3.157,-3.1289,-3.1169,-3.0742,-3.0488,-3.0261,0.0,0.0,0.0,0.0,0.0,0.0,0.0,0.0,0.0,0.0,0.0,0.0,0.0,0.0,0.0,0.0,0.0,0.0,0.0,-1.0141,-1.069,-1.1104,-1.1803,-1.2338,-1.2691,-1.2813,-1.3152,-1.3709,-1.3933,-1.4251,-1.4658,-1.4869,-1.5052,-1.5201,-1.5289,-1.5364,-1.5425,-1.5357,-1.5106,0.0,0.0,-1.5766,-1.6994,-1.7251,-1.8696,-2.0569,-2.0424,0.0,0.0,0.0,0.0,-1.4866,-1.365,-1.3527,-1.423,-1.5788,0.0,-1.5854,-1.6413,-1.6487,-1.6415,-1.6564,-1.6727,-1.6768,-1.6429,-1.7568,-1.8206,-1.7009,-1.959,0.0,-2.0911,0.0,0.0,0.0,0.0,0.0,-3.3828,-3.4416,-3.4563,0.0,-3.4322,0.0,-3.3748,-3.3734,-3.4015,0.0,-3.4295,-3.4349,-3.4977,-3.5124,-3.5191,-3.5191,-3.5191,-3.5137,-3.5004,-3.4549,-3.2144,-2.8235,-2.8894,-2.8088,-2.583,-2.6853,-2.7465,-2.768,-2.9104,-2.8751,-2.7281,-2.9836,-3.0569,-3.0471,-3.1059,-3.1142,-3.0982,-3.0528,-3.0274,-3.0074,0.0,0.0,0.0,0.0,0.0,0.0,0.0,0.0,0.0,0.0,-1.6746,0.0,0.0,0.0,0.0,0.0,0.0,0.0,0.0,0.0,-0.9686,-1.0371,-1.0175,-1.0304,-1.0846,-1.0616,-1.088,-1.1681,-1.1952,-1.242,-1.3085,-1.3336,-1.3539,-1.3688,-1.3709,-1.379,-1.3905,-1.377,-1.3559,-1.3404,-1.44,-1.5709,-1.6987,0.0,-1.9628,0.0,0.0,0.0,0.0,0.0,-1.7176,-1.6365,-1.3553,-1.3017,-1.3559,-1.4312,-1.4828,-1.5276,-1.5872,-1.6429,-1.687,-1.7005,-1.6978,-1.672,-1.5967,-1.7072,-1.7649,-1.6203,0.0,-2.0468,-1.9842,-2.1735,-2.4102,-2.6493,0.0,-3.0301,-3.3601,-3.4055,-3.4496,-3.5672,-3.5297,-3.5057,-3.5338,-3.507,-3.5097,-3.5645,-3.4518,-3.3967,-3.4216,-3.4215,-3.4319,-3.4544,-3.4319,-3.4202,-3.4177,-3.3888,-3.0853,-2.5162,-2.7631,-2.6066,-2.1103,-2.3568,-2.4598,-2.4598,-2.5009,-2.5083,-2.5053,-2.7026,-2.7986,-2.8303,-3.0101,-3.0477,-3.0373,-3.0278,-3.0167,-2.9847,0.0,0.0,0.0,0.0,0.0,0.0,0.0,0.0,0.0,0.0,-1.6172,-1.5865,0.0,0.0,0.0,0.0,0.0,0.0,0.0,0.0,0.0,-0.9924,-1.0012,-1.0154,-1.0392,-1.046,-1.0629,-1.0914,-1.0968,-1.1124,-1.1375,-1.143,-1.1525,-1.1674,-1.1796,-1.187,-1.1891,-1.187,-1.1755,-1.1708,-1.3245,-1.4729,-1.6318,-1.7866,0.0,0.0,0.0,0.0,0.0,0.0,-1.965,-1.7492,-1.4563,-1.4095,-1.4808,-1.5554,-1.592,-1.6205,-1.6802,-1.7127,-1.7311,-1.7338,-1.6971,-1.6402,-1.5655,-1.7451,0.0,0.0,-1.9633,-2.1758,-2.1045,-2.2189,-2.4168,-2.6774,0.0,0.0,0.0,0.0,-3.5404,0.0,0.0,0.0,0.0,0.0,0.0,0.0,-3.321,-3.1713,-3.1988,-2.9426,-2.9123,-3.1497,-2.9337,-2.91,-3.1638,-3.1162,-2.8147,-2.2442,-2.4963,-2.4351,-2.1103,-2.1518,-2.1725,-2.1933,-2.4187,-2.5083,-2.4851,-2.5029,-2.6398,-2.8109,-2.7974,-2.7793,-2.7901,-2.9704,-3.0167,-2.99,0.0,0.0,0.0,0.0,0.0,0.0,0.0,-1.6329,-1.6143,-1.7216,-1.516,-1.4386,-1.6291,-1.3922,-1.2469,0.0,0.0,0.0,0.0,0.0,0.0,0.0,0.0,0.0,0.0,-1.0344,0.0,0.0,0.0,-1.0758,-1.0826,0.0,0.0,-1.0934,-1.1009,-1.1043,-1.1043,-1.1043,-1.1002,-1.1191,-1.3759,-1.5231,-1.6172,0.0,0.0,0.0,0.0,0.0,0.0,0.0,-2.0558,-1.9997,-1.748,-1.6226,-1.5784,-1.6374,-1.6653,-1.6863,-1.7311,-1.7534,-1.765,-1.765,-1.708,-1.6246,-1.5181,0.0,0.0,0.0,-1.9417,-2.1563,-2.0989,0.0,0.0,0.0,0.0,0.0,0.0,0.0,0.0,0.0,0.0,0.0,0.0,0.0,0.0,-3.6727,-3.197,-2.984,-3.1257,-2.8294,-2.7301,-2.8468,-2.729,-2.795,-3.0846,-3.0458,-2.8081,-2.3971,-2.4904,-2.305,-1.9044,-1.9044,-1.9044,-1.9044,-2.0279,-2.0736,-2.0663,-2.1783,-2.2955,-2.4001,-2.4833,-2.5884,-2.6958,-2.8014,-2.9054,-2.99,0.0,0.0,0.0,0.0,0.0,0.0,0.0,-1.6332,-1.5637,-1.741,-1.4719,-1.3339,-1.5063,-1.4004,-1.3086,0.0,0.0,0.0,0.0,0.0,0.0,0.0,0.0,0.0,0.0,0.0,0.0,0.0,0.0,0.0,0.0,0.0,0.0,0.0,0.0,-1.0717,-1.0717,-1.0717,-1.0717,0.0,0.0,-1.5524,0.0,0.0,0.0,0.0,0.0,0.0,0.0,0.0,-2.1049,-2.164,-2.0476,-1.8647,-1.6982,-1.6975,-1.7073,-1.7358,-1.767,-1.788,-1.7989,-1.7935,-1.7188,-1.6123,-1.4774,-1.6227,0.0,0.0,-1.8699,-2.0895,-2.0788,0.0,0.0,0.0,0.0,0.0,0.0,0.0,0.0,0.0,0.0,0.0,0.0,0.0,0.0,-3.7382,-3.1213,-2.7798,-2.8348,-2.6176,-2.5233,-2.5674,-2.5185,-2.6276,-2.8908,-2.8468,-2.6966,-2.4183,-2.4439,-2.176,-1.6978,-1.6978,-1.6978,-1.6978,-1.6978,-1.7238,-1.7574,-1.8948,-1.9749,-2.0218,-2.1957,-2.3667,-2.5329,-2.5656,-2.7268,-2.9221,0.0,0.0,0.0,0.0,0.0,0.0,0.0,-1.6803,-1.6459,-1.865,-1.5634,-1.3294,-1.3335,-1.2696,-1.2604,0.0,0.0,0.0,0.0,0.0,0.0,0.0,0.0,0.0,0.0,0.0,0.0,0.0,0.0,0.0,0.0,0.0,0.0,0.0,0.0,0.0,0.0,-1.0717,0.0,0.0,0.0,0.0,0.0,0.0,0.0,0.0,0.0,0.0,0.0,0.0,0.0,-2.0609,-2.1989,-2.1106,-1.9115,-1.7116,0.0,0.0,-1.7968,-1.8247,-1.8409,-1.8145,-1.7195,-1.5974,-1.4624,0.0,0.0,-1.6105,-1.8285,-2.0468,-2.0975,0.0,0.0,0.0,0.0,-2.6786,0.0,0.0,0.0,0.0,0.0,0.0,0.0,-3.6295,-3.7676,-3.7422,-3.1361,-2.5217,-1.9441,-1.8893,-2.0003,-2.2429,-2.005,-2.005,-2.3075,-2.2864,-2.1177,-1.8266,-2.0612,-2.0232,-1.6978,-1.6978,-1.6978,-1.6978,-1.6978,-1.8321,-2.0381,-1.7785,-1.8225,-2.0422,-2.0423,-2.0225,-2.0413,-2.2685,-2.4911,-2.6718,0.0,0.0,0.0,0.0,0.0,0.0,-1.7191,-1.5456,-1.4639,-1.6265,-1.4065,-1.2856,-1.4053,-1.421,-1.3973,-1.3317,0.0,0.0,0.0,0.0,0.0,0.0,0.0,0.0,0.0,0.0,0.0,0.0,0.0,0.0,0.0,0.0,0.0,0.0,0.0,0.0,0.0,0.0,0.0,0.0,0.0,0.0,0.0,0.0,0.0,0.0,0.0,0.0,0.0,0.0,0.0,0.0,-2.0904,-2.0015,0.0,0.0,-1.7327,-1.727,-1.8023,-1.8565,-1.885,-1.8464,-1.7324,-1.5961,-1.4604,0.0,-1.6661,-1.6034,-1.8226,-2.0361,-2.0775,-2.0855,-2.1269,0.0,0.0,0.0,-2.5816,0.0,0.0,0.0,0.0,0.0,0.0,0.0,-3.1464,-2.9164,-2.6461,-2.2971,-1.8253,-1.8145,-1.8559,-1.961,-1.8621,-1.9272,-2.221,-2.1914,-2.1087,-1.9952,-2.0936,-1.9733,-1.6978,-1.6978,-1.6978,-1.6978,-1.6978,-1.7509,-1.8373,-1.6988,-1.7038,-1.7881,-1.7709,-1.8317,-1.9691,-2.057,-2.3453,-2.6793,0.0,0.0,0.0,0.0,0.0,-1.5457,-1.6216,-1.4365,-1.3166,-1.4311,-1.2919,-1.2583,-1.4733,-1.5073,-1.4964,-1.4569,-1.5526,0.0,0.0,0.0,0.0,0.0,0.0,0.0,0.0,0.0,-1.0304,-1.0493,-1.0602,0.0,0.0,0.0,0.0,0.0,0.0,0.0,0.0,0.0,0.0,0.0,0.0,0.0,0.0,0.0,0.0,0.0,0.0,0.0,0.0,0.0,0.0,0.0,0.0,0.0,0.0,0.0,-1.7135,-1.6761,-1.7717,-1.8511,-1.8959,-1.8511,-1.7344,-1.6138,0.0,0.0,-1.6607,-1.6567,-1.8432,-2.0094,-2.0468,-2.0481,-2.0504,-2.0657,-1.9609,-1.9971,-2.3224,-2.1871,0.0,0.0,0.0,0.0,0.0,-3.0101,-2.8864,-2.5129,-2.3897,-2.2277,-1.9803,-1.8733,-1.8179,-1.788,-1.7968,-1.9072,-2.0905,-2.0563,-2.038,-2.0594,-2.003,-1.8843,-1.6978,-1.6978,-1.6978,-1.6978,-1.6978,-1.6897,-1.6734,-1.6585,-1.6435,-1.6293,-1.6144,-1.699,-1.8427,-1.8372,-2.1147,-2.4597,0.0,0.0,0.0,0.0,0.0,0.0,-1.5851,-1.3771,-1.2573,-1.4026,-1.2685,-1.2466,-1.4725,-1.4568,-1.5287,-1.7349,-1.7525,0.0,0.0,0.0,0.0,0.0,0.0,0.0,0.0,0.0,-1.0195,-1.0493,-1.0493,-1.0568,-1.0717,-1.0717,0.0,0.0,0.0,0.0,0.0,0.0,0.0,0.0,0.0,0.0,0.0,0.0,0.0,0.0,0.0,0.0,0.0,0.0,0.0,0.0,0.0,-2.0027,0.0,0.0,-1.6184,-1.6252,-1.6998,-1.7968,-1.8654,-1.8213,-1.7195,-1.6307,0.0,0.0,-1.6658,-1.7885,-1.8746,-1.9546,-2.0134,-2.0,-1.9477,-1.8649,-1.9279,-1.9651,-1.931,-2.12,0.0,0.0,0.0,0.0,0.0,-3.2639,-3.2298,-2.8753,-2.5301,-2.3428,-2.3056,-1.9965,-1.8179,-1.788,-1.786,-1.7867,-1.7867,-1.7568,-1.7419,-1.7419,-1.7121,-1.6978,-1.6978,-1.6978,-1.6978,-1.6978,-1.6978,-1.6897,-1.6734,-1.6585,-1.6435,-1.6293,-1.6144,-1.6083,-1.6062,-1.5906,-1.7389,-1.948,0.0,0.0,0.0,0.0,0.0,0.0,0.0,-1.1434,-1.0835,-1.1106,-1.0622,-1.1327,-1.4005,-1.4229,-1.5178,-1.7327,-1.7712,0.0,0.0,0.0,0.0,0.0,0.0,0.0,0.0,0.0,-1.0749,-1.1972,-1.1062,-1.067,-1.0717,-1.0717,-1.0717,-1.0717,0.0,0.0,0.0,0.0,0.0,0.0,0.0,0.0,0.0,0.0,0.0,0.0,0.0,0.0,0.0,0.0,0.0,0.0,0.0,0.0,0.0,-1.6942,-1.6458,-1.6453,-1.5744,-1.6286,-1.6931,-1.6266,-1.5438,-1.5026,-1.5522,0.0,-1.6752,-1.7839,-1.8897,-1.9773,-2.016,-2.0,-2.0159,-2.0966,-2.0453,-1.9935,-2.0229,0.0,0.0,0.0,0.0,0.0,0.0,0.0,-2.4367,-2.5266,-2.2321,-2.0182,-1.9745,-1.8788,-1.8233,-1.8023,-1.7914,-1.7812,-1.7717,-1.7521,-1.7365,-1.7263,-1.7073,-1.6978,-1.6978,-1.6978,-1.6978,-1.6978,-1.6978,-1.6951,-1.689,-1.6625,-1.6497,-1.6429,-1.6178,-1.6083,-1.6076,-1.6029,-1.756,-1.986,0.0,0.0,0.0,0.0,0.0,0.0,0.0,-1.0314,-1.0142,-0.9428,-0.9374,-1.0487,-1.3515,-1.3813,-1.4751,-1.7303,-1.7904,0.0,0.0,0.0,0.0,0.0,0.0,0.0,-1.472,-1.2308,-1.171,-1.3051,-1.1643,-1.1002,-1.1063,-1.1111,-1.1023,-1.0806,-1.0806,0.0,0.0,0.0,0.0,0.0,0.0,0.0,-1.4051,0.0,0.0,0.0,0.0,0.0,0.0,0.0,0.0,0.0,0.0,0.0,0.0,0.0,-1.6515,-1.6299,-1.4778,-1.5004,-1.5601,-1.5133,-1.4455,-1.4351,0.0,0.0,0.0,-1.7794,-1.8434,-1.8839,-1.9005,-1.8414,-1.8422,-2.0183,-1.9125,-1.8698,-2.065,0.0,0.0,0.0,0.0,0.0,0.0,-2.1856,-2.1556,-2.2252,-2.0224,-1.8816,-1.8423,-1.8355,-1.8247,-1.8091,-1.7894,-1.7738,-1.765,-1.7439,-1.729,-1.7188,-1.7046,-1.6978,-1.6978,-1.6978,-1.6978,-1.6978,-1.6917,-1.6897,0.0,-1.6564,-1.6442,-1.6415,-1.6178,-1.6083,-1.6083,-1.6083,-1.7055,-1.8403,0.0,0.0,0.0,0.0,0.0,0.0,0.0,-1.0441,-1.0355,-0.8976,-0.8893,-1.0085,-1.2821,-1.2964,-1.406,-1.7044,-1.7869,0.0,0.0,0.0,0.0,0.0,0.0,0.0,-1.5408,-1.3487,-1.3071,-1.3951,-1.2388,-1.1585,-1.1592,-1.1742,-1.1511,-1.0962,-1.1097,-1.1933,0.0,0.0,0.0,0.0,-1.3722,-1.378,0.0,0.0,0.0,0.0,0.0,0.0,0.0,0.0,0.0,0.0,0.0,0.0,0.0,0.0,0.0,0.0,0.0,-1.3946,-1.4496,-1.4475,-1.3939,-1.4045,-1.6797,0.0,0.0,0.0,0.0,0.0,-1.7256,-1.5924,-1.5417,-1.7213,-1.6473,-1.6882,-2.0437,-1.8417,0.0,0.0,0.0,0.0,-1.949,-2.2158,-2.2822,-1.9678,-1.9283,-1.883,-1.8511,-1.8375,-1.8233,-1.807,-1.7792,-1.7629,-1.7629,-1.7351,-1.7195,-1.7175,-1.7046,-1.6978,-1.6978,-1.6978,-1.6978,-1.6971,-1.6815,-1.6748,-1.6727,-1.6429,-1.6307,-1.6293,-1.6144,-1.6083,-1.6083,-1.6083,-1.6083,-1.6083,0.0,0.0,0.0,0.0,0.0,0.0,0.0,0.0,0.0,0.0,-0.9734,-0.965,-0.9376,-1.041,-1.1964,0.0,0.0,0.0,0.0,0.0,0.0,0.0,0.0,0.0,-1.869,-1.5953,-1.476,-1.5048,-1.3848,-1.2605,-1.1274,-1.1545,-1.147,-1.1248,-1.246,-1.3897,0.0,0.0,0.0,0.0,-1.3,-1.2101,0.0,0.0,0.0,0.0,-1.2862,-1.4163,0.0,0.0,0.0,0.0,0.0,0.0,0.0,0.0,-1.561,-1.5019,-1.205,0.0,-1.2121,-1.1898,-1.1619,-1.1909,0.0,0.0,0.0,0.0,0.0,0.0,0.0,-1.7839,-1.7443,-2.0605,-1.9976,-1.8982,-1.8884,0.0,0.0,0.0,0.0,0.0,-2.5913,-2.2576,-2.1242,-2.2523,-2.0277,-1.864,-1.8213,-1.8158,-1.8023,-1.7758,-1.7575,-1.7473,-1.7473,-1.7405,-1.7256,-1.7032,-1.6998,-1.6978,-1.6978,-1.6978,-1.6978,-1.6971,-1.6815,-1.6748,-1.6727,-1.6429,-1.6307,-1.6293,-1.6144,-1.6083,-1.6083,-1.6083,-1.6083,-1.6083,0.0,0.0,0.0,0.0,0.0,0.0,0.0,0.0,0.0,0.0,-0.9509,-0.9076,-0.9229,-1.0117,-1.1539,0.0,0.0,0.0,0.0,0.0,0.0,0.0,0.0,-1.8788,-1.98,-1.7725,-1.6762,-1.6957,-1.5074,-1.3601,-1.2851,-1.2247,-1.1694,-1.1392,-1.2934,-1.4033,0.0,0.0,0.0,0.0,-1.19,0.0,0.0,0.0,0.0,0.0,-1.114,-1.282,0.0,-1.5432,-1.7292,-1.9325,0.0,0.0,0.0,0.0,-1.5813,-1.535,-1.1298,-1.0622,-1.1063,-1.0968,-1.0833,-1.1108,-1.2931,0.0,0.0,0.0,0.0,0.0,0.0,0.0,0.0,-1.9678,-1.8483,-1.7178,0.0,0.0,0.0,0.0,0.0,-2.4196,0.0,-2.1242,-1.9936,-2.1541,-1.9704,-1.8498,-1.8111,-1.8023,-1.788,-1.765,-1.75,-1.7385,-1.7317,-1.7249,-1.7141,-1.6978,-1.6978,-1.6944,-1.6876,-1.6876,-1.6836,-1.6768,-1.668,-1.6605,-1.6537,-1.6374,-1.6266,-1.6198,-1.611,-1.6083,-1.6083,-1.6083,-1.6083,-1.6083,0.0,0.0,0.0,0.0,0.0,0.0,0.0,0.0,0.0,0.0,0.0,0.0,0.0,0.0,0.0,0.0,0.0,0.0,0.0,0.0,0.0,0.0,-1.9586,-1.9773,-1.9867,-1.8975,-1.843,-1.8217,-1.5981,-1.4683,-1.4268,-1.3087,-1.2265,-1.1889,-1.2895,-1.3401,0.0,0.0,0.0,0.0,-1.0782,0.0,0.0,0.0,0.0,0.0,0.0,0.0,0.0,-1.3119,-1.5855,-1.928,-1.838,0.0,0.0,0.0,0.0,0.0,-1.1508,-1.0693,-1.0996,-1.0792,-1.0717,-1.1009,-1.2425,0.0,0.0,0.0,0.0,0.0,0.0,0.0,0.0,0.0,0.0,0.0,0.0,0.0,0.0,0.0,-1.9626,0.0,-2.0211,-1.9537,-1.9094,-1.8938,-1.864,-1.8335,-1.8077,-1.7914,-1.7758,-1.7616,-1.7467,-1.7311,-1.7161,-1.706,-1.7005,-1.6978,-1.6958,-1.689,-1.6781,-1.6734,-1.6659,-1.6551,-1.651,-1.6422,-1.6307,-1.6286,-1.6198,-1.6083,-1.6083,-1.6083,-1.6083,-1.6083,-1.6083,-1.6076,0.0,0.0,0.0,0.0,0.0,0.0,0.0,0.0,0.0,0.0,0.0,0.0,0.0,0.0,0.0,0.0,0.0,0.0,0.0,0.0,0.0,-1.8998,-1.9279,-1.9666,-2.016,-2.0011,-1.8702,-1.6275,-1.6695,-1.5398,-1.2522,-1.302,-1.3555,-1.4115,-1.3999,-1.3629,-1.3308,-1.3122,0.0,-1.0672,-1.0246,0.0,0.0,0.0,0.0,0.0,0.0,0.0,0.0,-1.2275,-1.4109,-1.6247,-1.7526,0.0,0.0,0.0,0.0,0.0,-1.3295,-1.2613,-1.2319,-1.0524,-1.0168,-1.0148,0.0,0.0,0.0,0.0,0.0,0.0,0.0,0.0,0.0,0.0,0.0,0.0,0.0,0.0,0.0,0.0,0.0,-2.2813,-2.2354,-2.035,-1.8905,-1.862,-1.8321,-1.8077,-1.7914,-1.7758,-1.7609,-1.746,-1.7304,-1.7161,-1.7012,-1.7114,-1.71,-1.6978,-1.6849,-1.6842,-1.6937,-1.6673,-1.6612,-1.67,-1.6449,-1.6327,-1.63,-1.6171,-1.6103,-1.6083,-1.6083,-1.6083,-1.6083,-1.6083,-1.6083,-1.6062,0.0,0.0,0.0,0.0,0.0,0.0,0.0,0.0,0.0,0.0,0.0,0.0,0.0,0.0,0.0,0.0,0.0,0.0,0.0,0.0,-1.9279,-1.9613,-1.9613,-1.972,-2.0,-1.9777,-1.9031,-1.7529,-1.6755,-1.5641,-1.4049,-1.3225,-1.2951,-1.3066,-1.2542,-1.2059,-1.1743,-1.1585,-1.1046,-1.0141,0.0,0.0,0.0,0.0,0.0,0.0,0.0,0.0,0.0,0.0,-1.3523,-1.642,-1.6298,0.0,0.0,0.0,0.0,0.0,-1.3382,-1.2616,-1.2345,-1.058,-1.0358,-1.0473,0.0,0.0,0.0,0.0,0.0,0.0,0.0,0.0,0.0,0.0,0.0,0.0,0.0,0.0,0.0,0.0,0.0,-2.0983,-2.0959,-1.9662,-1.8776,-1.8552,-1.8179,-1.7901,-1.7758,-1.7528,-1.7372,-1.7297,-1.7154,-1.7046,-1.6978,-1.7046,-1.7046,-1.6978,-1.691,-1.6822,-1.6727,-1.6585,-1.6469,-1.6388,-1.6334,-1.6259,-1.6185,-1.6198,-1.6157,-1.6083,-1.6083,-1.6083,-1.6083,-1.6083,-1.6083,-1.6049,0.0,0.0,0.0,0.0,0.0,0.0,0.0,0.0,0.0,0.0,0.0,0.0,0.0,0.0,0.0,0.0,0.0,0.0,0.0,-1.8731,-1.9225,-1.9893,-1.9546,-1.9702,-2.0414,-1.9652,-1.907,-1.8942,-1.6897,-1.5763,-1.5498,-1.349,-1.2352,-1.1959,-1.1206,-1.0731,-1.0487,-1.0378,-1.0222,-1.0039,0.0,0.0,0.0,0.0,0.0,0.0,0.0,0.0,0.0,0.0,0.0,0.0,0.0,0.0,0.0,-1.6973,-1.6492,-1.574,-1.3089,-1.2365,-1.2101,0.0,0.0,0.0,0.0,0.0,0.0,0.0,0.0,0.0,0.0,0.0,0.0,0.0,0.0,0.0,0.0,-1.6707,-1.7385,-1.8267,-1.8498,-1.8762,-1.9237,-1.8905,-1.8586,-1.8389,-1.8023,-1.7758,-1.7602,-1.7338,-1.7195,-1.7195,-1.7053,-1.6978,-1.6978,-1.6944,-1.6944,-1.6978,-1.6944,-1.6802,-1.6571,-1.6503,-1.6347,-1.6137,-1.6218,-1.6191,-1.609,-1.6205,-1.6185,-1.6083,-1.6083,-1.6083,-1.6083,-1.6083,-1.6083,-1.6042,0.0,0.0,0.0,0.0,0.0,0.0,0.0,0.0,0.0,0.0,0.0,0.0,0.0,0.0,0.0,0.0,0.0,0.0,0.0,-1.8611,-1.8958,-1.9011,-1.8545,-1.9419,-2.2205,-2.0251,-1.9018,-1.8601,-1.733,-1.5935,-1.4785,-1.3729,-1.301,-1.242,-1.1674,-1.1023,-1.0493,-1.048,-1.031,-1.0046,-1.0039,0.0,0.0,0.0,0.0,0.0,0.0,0.0,0.0,0.0,0.0,0.0,0.0,0.0,-1.6914,-1.5445,-1.4728,-1.435,-1.3178,-1.2741,-1.2255,-1.0651,0.0,0.0,0.0,0.0,0.0,0.0,0.0,0.0,0.0,0.0,0.0,0.0,0.0,0.0,-1.7222,0.0,-1.8124,-1.8477,-1.8654,-1.8762,-1.8796,-1.8531,-1.8233,-1.7935,-1.7758,-1.7595,-1.7446,-1.7283,-1.7195,-1.7195,-1.7053,-1.6978,-1.6978,-1.6836,-1.6836,-1.6978,-1.6836,-1.6754,-1.672,-1.6449,-1.6313,-1.6286,-1.6157,-1.609,-1.6083,-1.6096,-1.609,-1.6083,-1.6083,-1.6083,-1.6083,-1.6083,-1.6083,-1.6056,0.0,0.0,0.0,0.0,0.0,0.0,0.0,0.0,0.0,0.0,0.0,0.0,0.0,0.0,0.0,0.0,0.0,0.0,0.0,-1.7948,-1.8046,-1.68,-1.7403,-1.8291,-1.9368,-1.7912,-1.7322,-1.753,-1.6341,-1.5476,-1.4713,-1.3532,-1.2664,-1.2054,-1.1307,-1.0792,-1.0487,-1.0399,-1.0243,-1.0039,-0.9944,-0.9869,0.0,0.0,0.0,0.0,0.0,0.0,0.0,0.0,-1.1316,-1.3066,-1.2423,-1.3882,-1.5571,-1.4901,-1.3885,-1.2976,-1.2431,-1.1829,-1.1031,0.0,0.0,0.0,0.0,0.0,0.0,0.0,0.0,0.0,0.0,0.0,0.0,0.0,0.0,-1.6842,-1.7351,-1.7724,-1.8057,-1.8355,-1.8443,-1.8511,-1.8599,-1.8267,-1.7989,-1.786,-1.7555,-1.7338,-1.7283,-1.7141,-1.706,-1.706,-1.7012,-1.6978,-1.6978,-1.6829,-1.6781,-1.6836,-1.6781,-1.6653,-1.6476,-1.6449,-1.6286,-1.6029,-1.6069,-1.6029,-1.5947,-1.6042,-1.6083,-1.6083,-1.6083,-1.6083,-1.6083,-1.6083,-1.6083,-1.6062,0.0,0.0,0.0,0.0,0.0,0.0,0.0,0.0,0.0,0.0,0.0,0.0,0.0,0.0,0.0,0.0,0.0,0.0,-1.5367,-1.6386,-1.6448,-1.5165,-1.5834,-1.624,-1.6353,-1.5646,-1.5861,-1.708,-1.5903,-1.5025,-1.4428,-1.3322,-1.2528,-1.2006,-1.1212,-1.0826,-1.0758,-1.0466,-1.0229,-1.0032,-0.9883,-0.9822,0.0,0.0,0.0,0.0,0.0,0.0,0.0,0.0,-1.0861,-1.2013,-1.1599,-1.263,-1.4014,-1.325,-1.2252,-1.1296,-1.1121,-1.0554,-0.9998,0.0,0.0,0.0,0.0,0.0,0.0,0.0,0.0,0.0,0.0,0.0,0.0,0.0,-1.6435,-1.7032,-1.7439,-1.7704,-1.7948,-1.8213,-1.8247,-1.8267,-1.8321,-1.8002,-1.7758,-1.765,-1.7365,-1.7175,-1.7127,-1.7032,-1.6958,-1.691,-1.691,-1.6883,-1.6836,-1.6686,-1.6612,-1.6612,-1.6612,-1.6503,-1.6313,-1.6408,-1.6259,-1.5934,-1.6035,-1.6022,-1.5934,-1.6035,-1.6083,-1.6083,-1.6083,-1.6083,-1.6083,-1.6083,-1.6083,-1.6069,0.0,0.0,0.0,0.0,0.0,0.0,0.0,0.0,0.0,0.0,0.0,0.0,0.0,0.0,0.0,0.0,0.0,0.0,-1.3688,-1.381,-1.4033,-1.4371,-1.3385,-1.3128,-1.3719,-1.3476,-1.4689,-1.743,-1.6306,-1.5011,-1.3817,-1.3227,-1.2786,-1.2447,-1.1565,-1.1246,-1.1348,-1.0744,-1.0324,-1.0039,-0.9883,-0.9822,-0.9822,0.0,0.0,0.0,0.0,0.0,0.0,0.0,-1.0786,-1.1728,-1.0251,-1.0899,-1.1856,-1.0301,-0.9612,-0.9354,-0.9198,-0.9266,0.0,0.0,0.0,0.0,0.0,0.0,0.0,0.0,0.0,0.0,0.0,0.0,0.0,0.0,-1.6605,-1.7297,-1.7602,-1.7772,-1.7914,-1.8077,-1.8091,-1.8023,-1.788,-1.7717,-1.7521,-1.7216,-1.7188,-1.7127,-1.6985,-1.6978,-1.691,-1.6754,-1.6748,-1.6673,-1.6524,-1.6381,-1.6307,-1.6307,-1.6307,-1.6307,-1.6307,-1.6307,-1.6225,-1.6083,-1.6083,-1.6083,-1.6083,-1.6083,-1.6083,-1.6083,-1.6083,-1.6083,-1.6083,-1.6083,-1.6083,-1.6083,0.0,0.0,0.0,0.0,0.0,0.0,0.0,0.0,0.0,0.0,0.0,0.0,0.0,0.0,0.0,0.0,0.0,0.0,-1.2024,-1.3238,-1.3002,-1.1122,-1.2045,-1.2146,-1.1206,-1.206,-1.354,-1.5665,-1.5292,-1.434,-1.3051,-1.2773,-1.2196,-1.1416,-1.1565,-1.1369,-1.09,-1.0616,-1.0385,-1.0188,-0.9924,-0.9822,-0.9822,0.0,0.0,0.0,0.0,0.0,0.0,0.0,0.0,0.0,-0.9737,-1.025,-1.0695,-0.9882,-0.9761,-0.9747,-0.9279,0.0,0.0,0.0,0.0,0.0,0.0,0.0,0.0,0.0,0.0,0.0,0.0,0.0,0.0,-1.5818,-1.6429,-1.6985,-1.7283,-1.7453,-1.7568,-1.7616,-1.7623,-1.7602,-1.7555,-1.7412,-1.729,-1.7202,-1.71,-1.7026,-1.6985,-1.6978,-1.691,-1.6754,-1.6748,-1.6673,-1.6524,-1.6381,-1.6307,-1.6307,-1.6198,-1.6151,-1.6151,-1.6259,-1.6171,-1.592,-1.592,-1.592,-1.5927,-1.6035,-1.6083,-1.6083,-1.6083,-1.6083,-1.6083,-1.6083,-1.6083,-1.6083,0.0,0.0,0.0,0.0,0.0,0.0,0.0,0.0,0.0,0.0,-0.8336,-0.8327,0.0,0.0,0.0,0.0,0.0,0.0,0.0,-1.1402,-1.1372,-0.9634,-1.0755,-1.1083,-1.0399,-1.1491,-1.2549,-1.3553,-1.3871,-1.3431,-1.2291,-1.2494,-1.2223,-1.1592,-1.2128,-1.1986,-1.1321,-1.0989,-1.0629,-1.0256,-1.0012,-0.991,-0.991,0.0,0.0,0.0,0.0,0.0,0.0,0.0,0.0,0.0,-0.9435,-0.97,-0.9951,-0.9618,-0.9564,-0.9544,-0.9239,0.0,0.0,0.0,0.0,0.0,0.0,0.0,0.0,0.0,0.0,0.0,0.0,0.0,0.0,-1.6008,-1.649,-1.6924,-1.7161,-1.727,-1.7351,-1.7412,-1.7419,-1.7399,-1.7338,-1.7249,-1.7168,-1.7114,-1.6971,-1.689,-1.689,-1.6829,-1.6727,-1.6578,-1.6578,-1.6503,-1.6347,-1.6259,-1.6191,-1.613,-1.6096,-1.6022,-1.5913,-1.6123,-1.6083,-1.5852,-1.5791,-1.5771,-1.5778,-1.5927,-1.5988,-1.5988,-1.5988,-1.5988,-1.5981,-1.5927,-1.594,-1.5988,0.0,0.0,-0.8726,-1.117,0.0,0.0,0.0,0.0,0.0,0.0,-0.8726,-0.8485,0.0,0.0,0.0,0.0,0.0,0.0,-0.894,-0.9205,-0.9367,-0.9381,-0.968,-1.0168,-1.0873,-1.1552,-1.1839,-1.1566,-1.2498,-1.2413,-1.1572,-1.2345,-1.2623,-1.2481,-1.2949,-1.2807,-1.2189,-1.1572,-1.09,-1.0249,-1.0093,-1.0025,-1.0025,-1.0025,0.0,0.0,0.0,0.0,0.0,0.0,0.0,0.0,-0.9279,-0.9395,-0.9598,-0.9676,-0.9332,-0.9049,0.0,0.0,0.0,0.0,0.0,0.0,0.0,0.0,0.0,0.0,0.0,0.0,0.0,0.0,-1.6205,-1.6327,-1.6707,-1.7026,-1.7154,-1.7175,-1.7222,-1.7365,-1.7378,-1.7324,-1.7188,-1.7175,-1.7114,-1.6971,-1.6829,-1.6741,-1.6727,-1.6598,-1.6456,-1.6313,-1.6293,-1.6218,-1.6062,-1.6049,-1.5967,-1.5839,-1.5974,-1.59,-1.5649,-1.5934,-1.5967,-1.5805,-1.5689,-1.5628,-1.5628,-1.5778,-1.5832,-1.5832,-1.5832,-1.5832,-1.5818,-1.5689,-1.5723,-1.5839,0.0,0.0,-0.8137,-0.8726,0.0,0.0,0.0,0.0,0.0,0.0,0.0,0.0,0.0,0.0,0.0,0.0,0.0,0.0,-0.894,-0.9103,-0.9252,-0.9374,-0.9781,-1.0134,-1.0419,-1.0582,-1.1257,-1.2427,-1.2123,-1.1735,-1.1118,-1.2094,-1.2413,-1.2182,-1.2752,-1.2542,-1.1714,-1.0995,-1.046,-1.0086,-0.993,-0.9869,-0.9869,-0.9869,-0.9849,0.0,0.0,0.0,0.0,0.0,0.0,0.0,-0.9496,-0.9632,-0.9981,-1.1114,-1.0524,0.0,0.0,0.0,0.0,0.0,0.0,0.0,0.0,0.0,0.0,0.0,0.0,0.0,0.0,-1.6727,-1.6761,-1.6666,-1.6836,-1.6992,-1.7019,-1.7026,-1.7039,-1.7073,-1.7073,-1.706,-1.7032,-1.7026,-1.6965,-1.6809,-1.6768,-1.67,-1.6578,-1.6537,-1.6456,-1.6313,-1.6191,-1.6056,-1.5906,-1.5791,-1.5716,-1.5683,-1.5716,-1.5703,-1.5642,-1.5825,-1.5757,-1.5513,-1.5601,-1.5567,-1.5472,-1.5622,-1.5683,-1.5683,-1.5683,-1.5683,-1.5683,-1.5649,-1.5655,-1.5703,0.0,0.0,0.0,0.0,0.0,0.0,0.0,0.0,0.0,0.0,0.0,0.0,0.0,0.0,0.0,0.0,-0.8743,-0.8859,-0.8933,-0.9076,-0.9252,-0.9483,-0.9781,-0.9978,-1.0059,-1.0059,-1.0791,-1.2504,-1.1301,-1.1185,-1.1918,-1.2269,-1.225,-1.2203,-1.2874,-1.2596,-1.1586,-1.1043,-1.0561,-1.0148,-0.9992,-0.9971,-1.0032,-0.9958,-0.9883,-0.9822,-0.9822,0.0,0.0,0.0,0.0,0.0,0.0,0.0,-0.971,-1.0559,-1.0142,-0.9573,0.0,0.0,0.0,0.0,0.0,0.0,0.0,0.0,0.0,0.0,0.0,0.0,-1.689,-1.6924,-1.6951,-1.6876,-1.6931,-1.6978,-1.6978,-1.6978,-1.6978,-1.6978,-1.6917,-1.6897,-1.6971,-1.6849,-1.6754,-1.6748,-1.6551,-1.6395,-1.6313,-1.6178,-1.6062,-1.5988,-1.5913,-1.5832,-1.575,-1.5601,-1.5493,-1.5418,-1.5418,-1.5384,-1.5323,-1.554,-1.556,-1.5411,-1.5418,-1.5377,-1.5316,-1.5466,-1.5527,-1.5527,-1.5527,-1.5527,-1.552,-1.5445,-1.5466,-1.5554,0.0,0.0,0.0,0.0,0.0,0.0,0.0,0.0,0.0,0.0,0.0,0.0,0.0,0.0,-0.8316,0.0,0.0,0.0,-0.8893,-0.9055,-0.9279,-0.9557,-0.9707,-0.9795,-0.9822,-0.9795,-1.0755,-1.2577,-1.0621,-1.1009,-1.3626,-1.2503,-1.2162,-1.2427,-1.2942,-1.2603,-1.1626,-1.1165,-1.067,-1.0188,-1.0059,-1.0086,-1.0188,-1.0059,-0.993,-0.9822,-0.9822,-0.9822,-0.9802,-0.9686,0.0,0.0,0.0,0.0,-0.9531,-0.9736,-0.9412,-0.9096,0.0,0.0,0.0,0.0,0.0,0.0,0.0,0.0,0.0,0.0,0.0,-1.6944,-1.6944,-1.6917,-1.6904,-1.6904,-1.6904,-1.6904,-1.6904,-1.6904,-1.6904,-1.6904,-1.6788,-1.6761,-1.689,-1.6673,-1.6551,-1.6625,-1.6293,-1.6056,-1.6008,-1.5771,-1.5628,-1.5601,-1.5574,-1.5547,-1.5527,-1.5371,-1.5228,-1.5106,-1.5106,-1.5045,-1.4936,-1.5181,-1.5296,-1.5289,-1.5187,-1.5147,-1.516,-1.5309,-1.5371,-1.5371,-1.5371,-1.5371,-1.5357,-1.5228,-1.5262,-1.5391,0.0,0.0,0.0,0.0,0.0,0.0,0.0,0.0,0.0,0.0,-0.8137,-0.8038,0.0,-0.8275,-0.8275,-0.8296,-0.8554,-0.8716,-0.8743,0.0,0.0,-0.9401,-0.9557,-0.9693,-0.9815,-0.97,-1.1113,-1.4242,-1.1098,0.0,0.0,0.0,-1.2223,-1.2854,-1.2433,-1.2074,-1.1735,-1.0656,-1.0073,-0.9883,-0.9863,-0.9863,-0.9876,-0.9863,-0.9836,-0.9822,-0.9822,-0.9822,-0.9815,-0.9802,-0.9802,0.0,0.0,0.0,-0.9787,-1.1141,-1.0387,0.0,0.0,0.0,0.0,0.0,0.0,0.0,0.0,0.0,0.0,0.0,-1.6781,-1.6781,-1.6781,-1.6673,-1.6585,-1.6585,-1.6585,-1.6585,-1.6585,-1.6585,-1.6585,-1.6585,-1.6564,-1.6558,-1.6578,-1.6544,-1.6422,-1.6191,-1.6117,-1.5967,-1.571,-1.5662,-1.5581,-1.5445,-1.5309,-1.5181,-1.5059,-1.4909,-1.4821,-1.4801,-1.4801,-1.4787,-1.4774,-1.4814,-1.4828,-1.4835,-1.495,-1.4997,-1.5011,-1.5153,-1.5215,-1.5215,-1.5215,-1.5215,-1.5208,-1.5187,-1.5194,-1.5235,0.0,0.0,0.0,0.0,0.0,0.0,0.0,0.0,0.0,0.0,0.0,-0.8038,-0.8038,-0.8099,-0.8174,-0.8262,-0.8391,-0.8533,-0.8703,-0.8832,-0.9008,-0.9245,-0.932,-0.9422,-0.9571,-1.0229,-1.1885,-1.4534,-1.187,0.0,0.0,-1.3161,-1.2237,0.0,0.0,-1.1884,-1.1525,-1.0582,-1.0093,-0.9944,-0.9856,-0.9869,-0.9937,-0.9856,-0.9822,-0.9822,-0.9822,-0.9822,0.0,0.0,-0.9822,-0.9795,-0.9652,0.0,0.0,0.0,0.0,0.0,0.0,0.0,0.0,0.0,0.0,0.0,0.0,0.0,0.0,-1.6605,-1.6558,-1.653,-1.6605,-1.6564,-1.6524,-1.6524,-1.6524,-1.6524,-1.6524,-1.6524,-1.6524,-1.6524,-1.6374,-1.6307,-1.6395,-1.6178,-1.5974,-1.5845,-1.5757,-1.5574,-1.5282,-1.5262,-1.5194,-1.5038,-1.497,-1.4903,-1.4841,-1.4692,-1.457,-1.4496,-1.4577,-1.457,-1.4496,-1.4577,-1.4658,-1.474,-1.4814,-1.4841,-1.4848,-1.4909,-1.4984,-1.5065,-1.5065,-1.5113,-1.5181,-1.5181,-1.5181,-1.5201,0.0,0.0,0.0,0.0,0.0,0.0,0.0,0.0,0.0,0.0,0.0,-0.8038,-0.8038,0.0,0.0,0.0,-0.8282,-0.8452,-0.875,-0.8771,-0.8866,-0.9089,-0.9096,-0.915,-0.9266,-1.0603,-1.2244,-1.4208,0.0,0.0,-1.6425,-1.3275,-1.2433,0.0,-1.2623,-1.1999,0.0,0.0,0.0,0.0,-0.9903,-0.9836,-0.9924,-0.9808,-0.9741,-0.972,-0.9795,0.0,0.0,0.0,0.0,0.0,0.0,0.0,0.0,0.0,0.0,0.0,0.0,0.0,0.0,0.0,0.0,0.0,0.0,0.0,-1.6273,0.0,-1.6266,-1.6157,-1.6225,-1.6334,-1.6395,-1.6361,-1.6354,-1.6341,-1.63,-1.63,-1.63,-1.63,-1.6103,-1.6001,-1.6076,-1.5778,-1.5547,-1.5472,-1.5364,-1.5187,-1.493,-1.4909,-1.4841,-1.4685,-1.4679,-1.4665,-1.4631,-1.4516,-1.4407,-1.4299,-1.4407,-1.4401,-1.4306,-1.4407,-1.4523,-1.4631,-1.4665,-1.4679,-1.4685,-1.4726,-1.4808,-1.4916,-1.4957,-1.5038,-1.5133,-1.5167,-1.5181,-1.5201,0.0,0.0,0.0,0.0,0.0,0.0,0.0,0.0,0.0,0.0,0.0,-0.8038,-0.8038,-0.8038,-0.8045,-0.8052,-0.8309,-0.8601,-0.8906,-0.8927,-0.8933,-0.8947,-0.8947,0.0,-0.896,-1.0366,-1.1982,0.0,0.0,0.0,-1.6571,-1.3511,-1.2983,-1.4597,-1.3431,-1.2501,-1.1769,0.0,0.0,0.0,-0.9964,-0.9625,-0.9632,-0.9625,-0.953,-0.9442,0.0,0.0,0.0,0.0,0.0,0.0,0.0,0.0,0.0,0.0,0.0,0.0,0.0,0.0,0.0,0.0,0.0,0.0,0.0,0.0,0.0,-1.6015,-1.5872,-1.5635,-1.5493,-1.5818,-1.6056,-1.5913,-1.5886,-1.5839,-1.5703,-1.5683,-1.5683,-1.5683,-1.5669,-1.5608,-1.5472,-1.5438,-1.5309,-1.5025,-1.4997,-1.4923,-1.476,-1.4753,-1.4679,-1.4529,-1.4523,-1.4462,-1.4326,-1.4319,-1.4306,-1.4299,-1.4306,-1.4306,-1.4299,-1.4306,-1.4319,-1.4333,-1.4468,-1.4523,-1.4536,-1.4679,-1.4746,-1.4767,-1.4916,-1.4977,-1.4997,-1.5133,-1.5181,-1.5181,0.0,0.0,0.0,0.0,0.0,0.0,0.0,0.0,0.0,0.0,0.0,0.0,0.0,-0.8038,-0.8079,-0.818,-0.837,-0.8567,-0.8777,-0.8791,-0.8838,-0.8933,-0.894,-0.8981,-0.9076,-1.0406,-1.2081,0.0,0.0,-1.3049,-1.6101,-1.3329,-1.2508,-1.3281,-1.2854,-1.2515,-1.2182,-1.1016,0.0,0.0,-0.9707,-0.9578,-0.9713,0.0,0.0,0.0,0.0,0.0,0.0,0.0,0.0,0.0,0.0,0.0,0.0,0.0,0.0,0.0,0.0,0.0,0.0,0.0,0.0,0.0,0.0,-1.4753,-1.5174,-1.5337,-1.5357,-1.533,-1.5276,-1.5554,-1.575,-1.5594,-1.5649,-1.5662,-1.5513,-1.5581,-1.5601,-1.5506,-1.5404,-1.5323,-1.5269,-1.5092,-1.4896,-1.4692,-1.4767,-1.4713,-1.4468,-1.4543,-1.4529,-1.438,-1.4373,-1.4353,-1.4299,-1.4299,-1.4299,-1.4299,-1.4299,-1.4299,-1.4299,-1.4299,-1.4299,-1.4306,-1.4353,-1.4373,-1.438,-1.4434,-1.4509,-1.4611,-1.476,-1.4882,-1.4977,-1.5025,-1.5106,-1.5167,0.0,0.0,0.0,0.0,0.0,0.0,0.0,0.0,0.0,-0.8038,0.0,0.0,0.0,0.0,-0.8201,-0.8397,-0.8506,-0.8621,-0.8777,-0.8784,-0.8832,-0.8933,-0.8988,-0.9055,-0.915,-1.1106,-1.2674,0.0,0.0,0.0,0.0,-1.3066,-1.2081,-1.2644,-1.2284,-1.2325,0.0,0.0,0.0,-1.0582,0.0,-0.9707,-0.9951,0.0,0.0,0.0,0.0,0.0,0.0,0.0,0.0,0.0,0.0,0.0,0.0,0.0,0.0,0.0,0.0,0.0,0.0,0.0,0.0,0.0,-1.339,0.0,-1.438,-1.4685,-1.4855,-1.4957,-1.4957,-1.5167,-1.5323,-1.5269,-1.535,-1.5364,-1.5208,-1.5276,-1.5296,-1.5194,-1.5092,-1.5011,-1.4964,-1.478,-1.4604,-1.4448,-1.4536,-1.4509,-1.4312,-1.4387,-1.4394,-1.4306,-1.4299,-1.4299,-1.4299,-1.4299,-1.4299,-1.4299,-1.4299,-1.4299,-1.4299,-1.4299,-1.4299,-1.4299,-1.4299,-1.4299,-1.4299,-1.4299,-1.4353,-1.4462,-1.4658,-1.4774,-1.4835,-1.4984,-1.5072,-1.5106,0.0,0.0,0.0,0.0,0.0,0.0,0.0,0.0,-0.8038,-0.8045,0.0,0.0,0.0,0.0,0.0,-0.8696,-0.873,-0.8791,-0.8927,-0.894,-0.894,-0.8947,-0.9076,-0.9157,-0.9164,-1.2248,-1.3718,-1.3416,-1.3814,-1.4439,-1.4985,0.0,-1.1775,-1.2861,-1.185,-1.1972,-1.2901,0.0,-1.2189,-1.1701,0.0,-1.0012,-1.0324,0.0,0.0,0.0,-1.0602,-1.0331,0.0,0.0,0.0,0.0,0.0,0.0,0.0,0.0,0.0,0.0,0.0,0.0,0.0,0.0,0.0,0.0,-1.3098,-1.3207,-1.3159,-1.4061,-1.436,-1.4468,-1.4496,-1.4618,-1.4774,-1.493,-1.4957,-1.4909,-1.4753,-1.4733,-1.474,-1.4733,-1.4733,-1.4672,-1.4523,-1.4509,-1.4448,-1.4312,-1.4299,-1.4299,-1.4299,-1.4299,-1.4299,-1.4299,-1.4299,-1.4299,-1.4299,-1.4299,-1.4299,-1.4299,-1.4299,-1.4299,-1.4299,-1.4299,-1.4299,-1.4299,-1.4299,-1.4299,-1.4299,-1.4299,-1.4299,-1.4326,-1.4618,-1.4638,-1.4563,-1.5004,-1.5086,-1.4991,0.0,0.0,0.0,0.0,0.0,-0.8038,-0.8038,-0.8038,-0.8079,0.0,0.0,0.0,-0.835,-0.8689,-0.894,-0.9022,-0.913,-0.9123,-0.8947,-0.894,-0.8988,-0.9089,-0.913,-0.9259,-0.9476,-1.0215,-1.1305,-1.2569,-1.1354,-1.1606,-1.3108,-1.1438,-1.1029,-1.166,-1.1694,-1.1816,-1.1938,-1.1084,0.0,0.0,-1.0168,-1.0236,0.0,0.0,0.0,0.0,0.0,-1.0263,0.0,0.0,-0.9978,-0.9849,0.0,0.0,0.0,0.0,0.0,0.0,-0.894,0.0,0.0,0.0,0.0,0.0,-1.1036,-1.1443,-1.1918,-1.2813,-1.3119,-1.3424,-1.4075,-1.4231,-1.4306,-1.4462,-1.4665,-1.4753,-1.4597,-1.4672,-1.4699,-1.4584,-1.4577,-1.4557,-1.4516,-1.4421,-1.434,-1.4306,-1.4299,-1.4299,-1.4299,-1.4299,-1.4299,-1.4299,-1.4299,-1.4299,-1.4299,-1.4299,-1.4299,-1.4299,-1.4299,-1.4299,-1.4299,-1.4299,-1.4299,-1.4299,-1.4299,-1.4299,-1.4299,-1.4299,-1.4299,-1.4319,-1.4502,-1.455,-1.4536,-1.4774,-1.4909,-1.4977,0.0,0.0,-0.8058,-0.8126,-0.8187,-0.8221,-0.8221,-0.8275,-0.833,0.0,0.0,0.0,-0.8737,-0.9164,-0.9381,-0.9259,-0.9334,-0.9306,-0.9137,-0.9062,-0.9096,-0.9245,-0.9306,-0.9429,-0.9605,-1.0281,-1.1028,-1.198,-1.1028,-1.1082,-1.2155,-1.0842,-1.0385,-1.0704,-1.09,-1.1016,0.0,0.0,0.0,0.0,-1.0446,0.0,0.0,-1.0921,-1.0975,0.0,0.0,0.0,-1.1077,-1.0616,-1.0337,0.0,0.0,0.0,0.0,0.0,0.0,0.0,0.0,0.0,0.0,0.0,0.0,0.0,-1.0229,-1.0487,-1.0839,-1.1681,-1.2074,-1.2501,-1.3275,-1.3519,-1.3682,-1.3892,-1.4122,-1.4312,-1.4407,-1.4502,-1.4523,-1.4434,-1.4421,-1.4421,-1.4421,-1.4346,-1.4299,-1.4299,-1.4299,-1.4272,-1.4211,-1.4143,-1.4109,-1.4109,-1.4109,-1.4136,-1.4204,-1.4204,-1.4238,-1.4299,-1.4299,-1.4299,-1.4299,-1.4299,-1.4299,-1.4299,-1.4299,-1.4299,-1.4299,-1.4299,-1.4299,-1.4312,-1.4455,-1.4475,-1.4455,-1.4733,-1.4855,-1.4896,0.0,0.0,-0.8092,-0.8262,-0.8411,-0.852,-0.8554,-0.8655,-0.8703,0.0,-0.8757,-0.8988,-0.9313,-0.968,-0.9788,-0.953,-0.9476,-0.9435,-0.9388,-0.9252,-0.9245,-0.9401,-0.9537,-0.9618,-0.9632,-1.1168,-1.1749,-1.1593,-1.1733,-1.1725,-1.1476,-1.0328,-0.9876,-1.0019,-0.9883,-0.9971,-1.0222,0.0,0.0,-1.088,-1.0948,-1.1274,0.0,0.0,-1.2379,0.0,-1.2501,-1.2332,-1.1972,-1.109,-1.0493,0.0,0.0,0.0,0.0,0.0,-0.9381,0.0,0.0,0.0,0.0,0.0,-0.9591,0.0,-1.012,-1.0032,-0.9978,-1.0697,-1.1165,-1.164,-1.2284,-1.2637,-1.2922,-1.3186,-1.3424,-1.3736,-1.4183,-1.4251,-1.4251,-1.4251,-1.4251,-1.4251,-1.4251,-1.4251,-1.4251,-1.4251,-1.4251,-1.419,-1.4055,-1.3912,-1.3838,-1.3838,-1.3838,-1.3905,-1.4048,-1.4061,-1.4143,-1.4278,-1.4292,-1.4299,-1.4299,-1.4299,-1.4299,-1.4299,-1.4299,-1.4299,-1.4299,-1.4299,-1.4299,-1.4312,-1.4441,-1.4414,-1.4353,-1.4787,-1.4862,-1.478,-0.8038,-0.8038,-0.8126,-0.8391,-0.8567,-0.8743,-0.8988,-0.8947,-0.9015,-0.9347,-0.9618,-0.9992,-1.0541,-1.0453,-1.0337,-1.0283,-1.0059,-0.9768,-0.9401,-0.9354,-0.9408,-0.9557,-0.9591,-0.9659,-0.9774,-0.9933,-1.0108,-1.008,-0.998,-0.998,-1.008,-0.9751,-0.9727,-0.9863,-0.9836,-0.9856,-0.9924,0.0,0.0,-1.0453,-1.0928,0.0,-1.2325,-1.2298,-1.2379,-1.2501,-1.2501,-1.2467,-1.2298,0.0,-1.0962,-1.05,0.0,0.0,0.0,0.0,0.0,0.0,0.0,0.0,0.0,0.0,0.0,0.0,-0.9306,-0.9361,-0.9612,-1.012,-1.0297,-1.0649,-1.1613,-1.1932,-1.2074,-1.2128,-1.2773,-1.3417,-1.3865,-1.3933,-1.3933,-1.3933,-1.3933,-1.3933,-1.3933,-1.3933,-1.3933,-1.3933,-1.3933,-1.3919,-1.3885,-1.3858,-1.3838,-1.3838,-1.3838,-1.3858,-1.3885,-1.4007,-1.4089,-1.4116,-1.4238,-1.4299,-1.4299,-1.4299,-1.4299,-1.4299,-1.4299,-1.4299,-1.4299,-1.4299,-1.4299,-1.4306,-1.4333,-1.4326,-1.434,-1.4665,-1.4767,-1.478,-0.8038,-0.8038,-0.818,-0.8628,-0.8832,-0.9055,-0.9429,-0.949,-0.9605,-0.9903,-1.0331,-1.0663,-1.0819,-1.0765,-1.0595,-1.0297,-1.0134,-0.9924,-0.9618,-0.9598,-0.9632,-0.9713,-0.9713,-0.9747,-0.9822,-0.968,-0.9612,-0.9612,-0.953,-0.9537,-0.9612,-0.968,-0.9673,-0.9605,-0.9754,-0.9781,0.0,0.0,-1.0324,-1.0453,-1.1199,0.0,-1.2427,-1.2732,-1.2976,-1.3166,-1.3166,-1.2983,-1.2596,-1.1694,-1.1294,0.0,0.0,-0.9992,-1.0032,0.0,-0.9781,-0.9598,0.0,0.0,0.0,-0.9605,0.0,0.0,0.0,-0.9157,-0.9266,-0.9639,-0.9598,-0.9768,-1.067,-1.0894,-1.1043,-1.1341,-1.1891,-1.244,-1.2888,-1.3403,-1.3736,-1.3736,-1.3668,-1.362,-1.362,-1.3688,-1.3763,-1.3838,-1.3702,-1.362,-1.362,-1.3546,-1.3478,-1.3403,-1.3546,-1.362,-1.362,-1.3777,-1.3926,-1.4075,-1.415,-1.4224,-1.4299,-1.4299,-1.4299,-1.4299,-1.4299,-1.4299,-1.4299,-1.4299,-1.4299,-1.4299,-1.4299,-1.4299,-1.4326,-1.4543,-1.4672,-1.4774,-0.8038,-0.8065,-0.8269,-0.8838,-0.9103,-0.9395,-0.9842,-0.9992,-1.0127,-1.0337,-1.0806,-1.1077,-1.0948,-1.0894,-1.0724,-1.0378,-1.0086,-0.9958,-1.0032,-0.9876,-0.9781,-0.9781,-0.9836,-0.9822,-0.9741,-0.9652,-0.9612,-0.9612,-0.9612,-0.9612,-0.9612,-0.9754,-0.9693,-0.9476,-0.9652,0.0,0.0,0.0,0.0,-1.0656,0.0,-1.1972,-1.221,-1.3037,-1.3485,-1.3682,-1.377,-1.3478,-1.2895,-1.1932,-1.1647,-1.1518,-1.046,-1.0399,0.0,0.0,0.0,0.0,0.0,0.0,0.0,0.0,0.0,-0.97,0.0,0.0,0.0,-0.9313,-0.9144,-0.9164,-0.9768,-0.9903,-1.008,-1.0568,-1.0995,-1.1382,-1.1714,-1.2562,-1.3207,-1.3356,-1.3234,-1.318,-1.3261,-1.3329,-1.3458,-1.3654,-1.337,-1.3227,-1.3308,-1.32,-1.3078,-1.2963,-1.322,-1.3356,-1.3356,-1.3539,-1.3749,-1.3987,-1.4048,-1.4136,-1.4258,-1.4285,-1.4299,-1.4299,-1.4299,-1.4299,-1.4299,-1.4299,-1.4299,-1.4299,-1.4299,-1.4299,-1.4319,-1.4462,-1.4611,-1.476,-0.8038,-0.8147,-0.8391,-0.8859,-0.9279,-0.9707,-1.0161,-1.0127,-1.0202,-1.0616,-1.0846,-1.1158,-1.1653,0.0,0.0,0.0,0.0,0.0,-1.0758,0.0,-0.9632,-0.9632,-0.9883,-0.9836,-0.9442,-0.9551,-0.9612,-0.9612,-0.9612,-0.9612,-0.9612,-0.9754,-0.9802,0.0,-0.953,0.0,0.0,0.0,-1.027,0.0,-1.1728,-1.1816,0.0,-1.2766,-1.3139,-1.3112,-1.3512,-1.3526,-1.3254,0.0,-1.221,-1.1918,0.0,-1.0989,-1.0738,0.0,0.0,0.0,0.0,0.0,0.0,0.0,-1.0609,0.0,0.0,0.0,-0.9781,-0.9279,0.0,-0.9157,-0.9239,0.0,0.0,-0.9551,-1.0256,-1.0765,-1.0683,-1.1118,-1.1694,-1.2366,-1.2305,-1.2372,-1.2766,-1.2583,-1.2617,-1.303,-1.2664,-1.2589,-1.299,-1.2996,-1.2976,-1.2963,-1.3119,-1.32,-1.32,-1.3485,-1.3648,-1.3682,-1.3946,-1.4082,-1.4102,-1.4238,-1.4299,-1.4299,-1.4299,-1.4299,-1.4299,-1.4299,-1.4299,-1.4299,-1.4299,-1.4299,-1.4319,-1.4462,-1.4611,-1.476,-0.8058,-0.8167,-0.8438,-0.8967,-0.9293,-0.9659,-1.0195,-1.067,-1.1029,-1.1219,-1.1599,-1.1945,0.0,0.0,0.0,0.0,0.0,-1.046,0.0,0.0,-0.9998,-0.9998,-1.012,-1.0053,-0.9774,-0.9747,-0.9693,-0.9612,-0.9612,-0.9612,-0.9612,-0.9754,-0.9774,0.0,-0.9652,0.0,-1.0059,0.0,0.0,0.0,0.0,0.0,0.0,-1.3044,-1.358,-1.362,-1.3715,-1.36,-1.3295,0.0,-1.2352,0.0,0.0,0.0,0.0,0.0,0.0,0.0,0.0,0.0,0.0,0.0,0.0,0.0,-0.9958,0.0,-0.9747,0.0,0.0,0.0,0.0,0.0,0.0,0.0,-0.9564,-0.9849,-0.9964,-1.0066,-1.0534,-1.164,-1.1484,-1.1457,-1.1911,-1.1918,-1.2013,-1.2284,-1.2128,-1.2149,-1.2427,-1.2603,-1.2691,-1.2691,-1.2929,-1.3051,-1.3051,-1.3261,-1.3451,-1.3634,-1.3756,-1.3905,-1.4075,-1.4136,-1.4217,-1.4299,-1.4299,-1.4299,-1.4299,-1.4299,-1.4299,-1.4299,-1.4299,-1.4299,-1.4306,-1.4367,-1.4482,-1.4618,-0.8228,0.0,0.0,0.0,-0.9313,-0.9632,-1.0195,-1.0867,-1.1369,-1.1538,0.0,0.0,-1.2535,-1.2189,0.0,0.0,0.0,-1.1009,0.0,0.0,-1.0249,0.0,0.0,0.0,0.0,-0.9856,-0.9815,-0.9666,-0.9666,-0.9666,-0.9673,-0.9774,-0.9788,-0.9734,0.0,-1.01,-1.0371,0.0,0.0,-1.1314,-1.1837,-1.2142,-1.2393,-1.3308,-1.3831,-1.4048,-1.3851,-1.3668,-1.3417,-1.2752,-1.263,0.0,-1.1918,0.0,0.0,0.0,0.0,0.0,-1.0955,0.0,0.0,0.0,0.0,0.0,0.0,0.0,0.0,0.0,0.0,0.0,0.0,0.0,-0.9069,-0.9252,0.0,-0.934,-0.9523,-0.9381,-0.968,-1.0826,-1.0853,-1.0928,-1.1294,-1.1355,-1.1463,-1.1694,-1.1558,-1.1606,-1.1925,-1.2182,-1.2359,-1.244,-1.2739,-1.2915,-1.2963,-1.3105,-1.3308,-1.3566,-1.3607,-1.3743,-1.3953,-1.4034,-1.4136,-1.4238,-1.4285,-1.4299,-1.4299,-1.4299,-1.4299,-1.4299,-1.4299,-1.4299,-1.4299,-1.4299,-1.4387,-1.4509,-0.8635,-0.8696,0.0,0.0,0.0,0.0,-1.0209,-1.0419,0.0,0.0,0.0,0.0,0.0,0.0,0.0,0.0,0.0,-1.1253,-1.1959,0.0,-1.0161,0.0,0.0,0.0,0.0,0.0,-0.9964,-0.9815,-0.9815,-0.9815,-0.9815,-0.9822,-0.9897,-1.0039,-1.0195,-1.0588,-1.1145,-1.1457,-1.1999,-1.2691,-1.2996,-1.3471,-1.3933,0.0,-1.3559,-1.4034,-1.3743,0.0,0.0,-1.3302,-1.3247,0.0,0.0,0.0,0.0,0.0,0.0,0.0,0.0,0.0,0.0,-1.1158,0.0,0.0,0.0,0.0,-1.0521,0.0,0.0,0.0,0.0,0.0,0.0,0.0,-0.9598,0.0,0.0,-0.9137,-0.9184,-0.9795,-1.0507,-1.1002,-1.1158,-1.0914,-1.0934,-1.1369,-1.0867,-1.086,-1.1592,-1.1775,-1.1993,-1.2291,-1.2583,-1.2807,-1.2963,-1.3105,-1.3254,-1.341,-1.3559,-1.3634,-1.3654,-1.3939,-1.4075,-1.4089,-1.4238,-1.4299,-1.4299,-1.4299,-1.4299,-1.4299,-1.4299,-1.4299,-1.4299,-1.4299,-1.4387,-1.4509,-0.8845,0.0,0.0,0.0,0.0,0.0,0.0,-1.0649,0.0,0.0,0.0,0.0,0.0,0.0,-1.3729,0.0,0.0,-1.2617,-1.2372,-1.1742,0.0,0.0,0.0,-1.0955,0.0,0.0,0.0,0.0,0.0,-1.0127,-1.0127,-1.0127,-1.0202,-1.0344,0.0,-1.0751,0.0,0.0,0.0,0.0,0.0,-1.3743,-1.4333,0.0,-1.3919,-1.3905,-1.3804,-1.3675,0.0,-1.3376,-1.3227,-1.3057,-1.2752,-1.2488,-1.2244,-1.1986,-1.202,-1.2115,0.0,0.0,-1.2637,-1.164,0.0,0.0,0.0,0.0,0.0,0.0,0.0,0.0,0.0,0.0,-0.9741,-0.9496,-0.9374,-0.9218,0.0,-0.8852,-0.8933,-0.9334,-0.9863,-1.0148,-0.9998,-0.9985,-1.0086,-1.0331,-1.0161,-1.029,-1.0846,-1.1294,-1.1674,-1.1979,-1.2277,-1.261,-1.2956,-1.301,-1.3159,-1.3403,-1.3451,-1.3532,-1.3634,-1.3831,-1.3973,-1.4082,-1.4231,-1.4299,-1.4299,-1.4299,-1.4299,-1.4299,-1.4299,-1.4299,-1.4299,-1.4299,-1.4333,-1.4387,-0.9157,0.0,0.0,0.0,0.0,0.0,0.0,0.0,0.0,0.0,-1.299,0.0,-1.4713,0.0,-1.4665,0.0,-1.4143,-1.3553,-1.2644,-1.2406,0.0,-1.1613,-1.166,0.0,0.0,0.0,0.0,0.0,0.0,-1.0331,-1.0283,-1.0283,-1.0358,-1.05,0.0,-1.1036,-1.1579,0.0,-1.2488,0.0,0.0,-1.4034,0.0,0.0,-1.4143,-1.3987,0.0,-1.3641,-1.3471,-1.3417,-1.3275,-1.3085,-1.2874,-1.261,-1.2325,-1.2121,-1.2203,-1.2345,-1.2237,-1.2644,0.0,-1.2128,-1.2074,0.0,-1.1029,0.0,-1.1301,0.0,0.0,0.0,0.0,0.0,-0.9903,-0.9659,-0.9401,-0.911,0.0,-0.8757,-0.8845,-0.8981,-0.9395,-0.9612,-0.9476,-0.9551,-0.9605,-0.9585,-0.9632,-0.9836,-1.0229,-1.0826,-1.1335,-1.1742,-1.2101,-1.2508,-1.2956,-1.2963,-1.3112,-1.3403,-1.3403,-1.3451,-1.3553,-1.3749,-1.3899,-1.4,-1.4211,-1.4299,-1.4299,-1.4299,-1.4299,-1.4299,-1.4299,-1.4299,-1.4299,-1.4299,-1.4299,-1.4319,0.0,0.0,0.0,0.0,-0.9883,0.0,0.0,0.0,-1.1857,0.0,-1.322,-1.4034,-1.493,-1.4903,-1.4923,-1.5194,-1.4821,0.0,-1.2929,-1.3112,0.0,0.0,-1.1708,-1.1647,-1.105,0.0,0.0,0.0,0.0,0.0,-1.0317,-1.0304,-1.0371,0.0,-1.0962,0.0,-1.1877,-1.2773,-1.3342,-1.3695,-1.4156,-1.4189,-1.4024,-1.4197,-1.4197,-1.4231,-1.379,-1.3627,-1.3593,-1.3451,-1.3403,-1.3349,-1.3057,-1.2759,-1.2467,-1.2182,-1.2298,-1.2467,-1.2189,-1.2549,-1.2929,-1.261,-1.2542,0.0,0.0,0.0,-1.1904,0.0,0.0,0.0,0.0,0.0,-1.0243,-1.0059,-0.9659,-0.9218,-0.8784,-0.8859,-0.8906,-0.875,-0.9103,-0.9415,-0.9564,-0.9571,-0.9449,-0.9164,-0.9273,-0.9483,-0.9781,-1.0378,-1.0982,-1.1579,-1.2047,-1.2508,-1.2956,-1.2969,-1.3119,-1.3403,-1.3403,-1.3403,-1.341,-1.3695,-1.3831,-1.3858,-1.4156,-1.4292,-1.4299,-1.4299,-1.4299,-1.4299,-1.4299,-1.4299,-1.4299,-1.4299,-1.4299,-1.4319,-0.9734,-0.9951,-1.0107,0.0,-1.0256,-1.0392,0.0,0.0,0.0,0.0,-1.4021,-1.4923,-1.571,-1.5859,-1.5845,-1.5696,-1.5574,0.0,0.0,0.0,0.0,-1.3363,-1.3322,-1.2996,-1.2284,-1.1945,0.0,-1.1274,0.0,0.0,-1.0772,-1.0663,-1.0629,-1.0677,0.0,0.0,-1.1728,-1.2508,-1.3288,-1.3834,-1.3954,-1.1971,-0.9028,0.0,-1.1291,-1.4297,-1.3763,-1.3553,-1.3451,-1.3417,-1.3403,-1.3349,-1.3057,-1.2908,-1.2807,-1.2617,-1.2691,-1.2847,-1.2881,-1.3247,-1.3512,-1.3105,-1.3085,-1.3003,0.0,0.0,0.0,0.0,0.0,0.0,0.0,0.0,0.0,0.0,-0.9442,-0.9137,0.0,0.0,0.0,-0.9055,-0.9049,-0.9069,-0.9103,-0.9008,-0.8954,-0.8988,-0.8927,-0.9062,-0.9469,-1.0168,-1.0772,-1.1267,-1.1938,-1.2508,-1.2956,-1.3064,-1.3214,-1.3403,-1.3403,-1.3403,-1.341,-1.36,-1.3743,-1.3851,-1.4048,-1.4197,-1.4299,-1.4299,-1.4299,-1.4299,-1.4299,-1.4299,-1.4299,-1.4299,-1.4299,-1.4319,-0.9903,0.0,0.0,-1.0399,0.0,0.0,-1.1002,0.0,0.0,-1.318,-1.4217,0.0,-1.5547,-1.6076,-1.6307,-1.6076,-1.5995,0.0,0.0,0.0,0.0,-1.4102,-1.3926,-1.3553,-1.2935,-1.2291,0.0,-1.1518,0.0,0.0,-1.0846,-1.0758,-1.0717,-1.0731,0.0,-1.1274,-1.1674,-1.2556,-1.3231,-1.3786,-1.1811,-0.9432,0.0,-0.7092,-1.0058,-1.4304,-1.3777,-1.3539,-1.3403,-1.3403,-1.3356,-1.3261,-1.303,-1.2963,-1.2929,-1.2779,-1.2881,-1.3071,-1.3152,-1.3451,-1.3688,-1.3451,-1.3492,-1.3444,-1.3186,-1.3075,-1.2881,0.0,-1.2108,-1.1696,0.0,0.0,0.0,0.0,0.0,0.0,0.0,0.0,0.0,0.0,-0.9184,-0.9103,-0.9035,-0.8777,-0.8648,-0.873,-0.8784,-0.8947,-0.9266,-0.9992,-1.0636,-1.1145,-1.1898,-1.2508,-1.2956,-1.3166,-1.3315,-1.3403,-1.3403,-1.3403,-1.3403,-1.3559,-1.3709,-1.3851,-1.4007,-1.4156,-1.4299,-1.4299,-1.4299,-1.4299,-1.4299,-1.4299,-1.4299,-1.4299,-1.4299,-1.4319,0.0,0.0,0.0,0.0,0.0,0.0,0.0,-1.2026,0.0,-1.3295,0.0,-1.5025,-1.516,-1.5995,-1.6483,-1.6327,0.0,-1.5852,-1.516,-1.5235,-1.4984,-1.4278,-1.4082,-1.3777,-1.3329,-1.24,0.0,0.0,0.0,0.0,-1.0751,-1.0731,-1.0717,0.0,0.0,0.0,0.0,-1.263,-1.3258,-1.3346,-0.8935,-0.6715,-0.6085,-0.6201,-0.8824,-1.2511,-1.3107,-1.3412,-1.3437,-1.341,-1.3315,-1.318,-1.3037,-1.299,-1.2963,-1.2827,-1.2969,-1.3173,-1.32,-1.341,-1.3641,-1.3675,-1.3763,-1.3892,-1.3895,-1.3556,-1.2908,-1.2494,-1.1612,-1.0152,-0.753,0.0,0.0,0.0,0.0,0.0,0.0,0.0,0.0,0.0,0.0,0.0,-0.9225,-0.8825,-0.856,-0.8547,-0.8804,-0.9028,-0.9178,-0.9863,-1.0521,-1.1118,-1.185,-1.2467,-1.2956,-1.3234,-1.339,-1.3431,-1.341,-1.3403,-1.3403,-1.3539,-1.3675,-1.3824,-1.3973,-1.4129,-1.4272,-1.4292,-1.4299,-1.4299,-1.4299,-1.4299,-1.4299,-1.4299,-1.4299,-1.4326,0.0,0.0,0.0,0.0,0.0,-1.2291,-1.2983,-1.3532,-1.4055,-1.4584,-1.556,-1.6218,-1.6246,-1.6524,-1.6605,-1.6334,-1.6395,0.0,0.0,0.0,0.0,-1.5194,-1.4916,-1.4563,-1.4109,-1.2976,-1.2359,0.0,0.0,0.0,-1.0907,-1.0778,-1.0717,0.0,0.0,0.0,-1.1647,-1.2074,0.0,-1.3125,-0.8518,-0.4491,-0.1225,-0.1233,-0.1745,-0.3432,-1.0822,-1.3383,-1.3472,-1.3458,-1.3403,-1.337,-1.3193,-1.3132,-1.3132,-1.3105,-1.3132,-1.32,-1.3329,-1.3492,-1.3641,-1.3675,-1.3783,-1.4002,-1.3789,-1.3464,-1.3275,-1.2949,-1.0079,-0.8412,-1.0951,-0.5687,0.0,0.0,0.0,0.0,0.0,0.0,0.0,0.0,0.0,-0.9422,-0.9517,-0.9232,-0.8988,-0.8866,-0.9015,-0.9184,-0.9334,-0.9822,-1.0365,-1.0968,-1.1586,-1.225,-1.2956,-1.3125,-1.3342,-1.3587,-1.3458,-1.3403,-1.3403,-1.3431,-1.3526,-1.3675,-1.3817,-1.3966,-1.4122,-1.4245,-1.4299,-1.4299,-1.4299,-1.4299,-1.4299,-1.4299,-1.4299,-1.434,0.0,0.0,0.0,0.0,0.0,0.0,0.0,-1.4672,0.0,-1.4875,-1.5425,-1.5859,-1.5934,-1.6429,-1.6693,-1.6551,-1.6463,-1.6354,-1.6212,-1.5981,-1.5716,-1.5425,-1.5052,0.0,-1.4306,-1.3193,-1.2549,-1.2393,0.0,0.0,-1.0826,-1.0758,-1.0717,-1.0724,0.0,-1.1199,0.0,0.0,-1.2569,-1.2873,-0.8437,-0.3962,0.0,0.0,0.0,-0.0525,-0.4843,-0.9366,-1.307,-1.0656,-1.1415,-1.3444,-1.3261,-1.3254,-1.3295,-1.32,-1.3227,-1.3308,-1.3383,-1.3464,-1.3546,-1.358,-1.1908,-0.9526,-0.7102,-1.007,-1.3329,-1.32,-1.1568,-0.928,-0.6574,-0.2748,0.0,0.0,0.0,0.0,0.0,0.0,0.0,0.0,0.0,0.0,0.0,-0.9476,-0.9293,-0.9069,-0.9184,-0.9266,-0.9266,-0.9761,-1.0256,-1.0697,-1.1436,-1.2121,-1.2718,-1.3098,-1.3363,-1.3512,-1.3437,-1.3403,-1.3403,-1.3403,-1.3485,-1.3634,-1.3777,-1.3926,-1.4082,-1.4238,-1.4299,-1.4299,-1.4299,-1.4299,-1.4299,-1.4299,-1.4299,-1.4319,0.0,-1.1613,0.0,0.0,-1.322,0.0,-1.4631,-1.5398,-1.5716,-1.5187,-1.535,-1.5574,-1.573,-1.6374,-1.6775,-1.6707,-1.649,-1.6327,-1.6266,-1.59,-1.5628,-1.5513,-1.5072,-1.4713,-1.4448,-1.3444,-1.2712,0.0,0.0,0.0,-1.067,-1.0704,-1.0704,0.0,0.0,0.0,0.0,0.0,-1.2373,-1.2437,-0.8227,-0.3966,0.0,0.0,0.0,0.0,0.0,-0.4558,-1.0078,-0.7522,-0.8446,-1.0786,-1.1647,-1.2682,-1.3431,-1.3275,-1.3315,-1.341,-1.3403,-1.3424,-1.3118,-1.2291,-1.0085,-0.671,-0.1174,-0.6991,-1.3466,-1.3329,-1.1814,-0.8365,-0.1318,0.0,-0.0965,0.0,0.0,0.0,0.0,0.0,0.0,0.0,0.0,0.0,-0.9571,-0.9618,-0.953,-0.9225,-0.934,-0.9388,-0.93,-0.9741,-1.0154,-1.048,-1.1274,-1.1938,-1.2454,-1.2956,-1.3261,-1.3349,-1.3349,-1.3349,-1.3356,-1.339,-1.3464,-1.3593,-1.3763,-1.3946,-1.4129,-1.4251,-1.4299,-1.4299,-1.4299,-1.4299,-1.4299,-1.4299,-1.4299,-1.4299,0.0,0.0,0.0,0.0,0.0,0.0,-1.4726,-1.5493,-1.613,-1.6327,-1.6497,-1.6659,-1.6815,-1.691,-1.6849,-1.6564,-1.6517,-1.6388,-1.6123,-1.5934,-1.5825,-1.5811,-1.5384,-1.5065,-1.4909,-1.4014,-1.3132,0.0,0.0,-1.1199,0.0,-1.0656,-1.0649,-1.0521,0.0,0.0,-1.105,-1.1626,-1.202,-1.1763,-0.7987,-0.3767,0.0,0.0,0.0,0.0,0.0,-0.0529,-0.1764,-0.5404,-0.4302,-0.2039,-0.6044,-1.0075,-1.3325,-1.3437,-1.3437,-1.3437,-1.341,-1.3424,-1.2432,-0.8382,-1.01,-1.0467,-0.2013,-0.7002,-1.3329,-1.3336,-0.693,-0.0935,-0.0152,0.0,-0.0143,0.0,0.0,0.0,0.0,0.0,-1.0297,-0.989,0.0,0.0,-0.9442,-0.9646,-0.968,-0.9381,-0.9503,-0.9639,-0.9754,-0.9815,-1.0039,-1.048,-1.0968,-1.1572,-1.2305,-1.2494,-1.2793,-1.3193,-1.3193,-1.3193,-1.32,-1.3336,-1.341,-1.3437,-1.3722,-1.4007,-1.4278,-1.4292,-1.4299,-1.4299,-1.4299,-1.4299,-1.4299,-1.4299,-1.4299,-1.4299,0.0,0.0,0.0,0.0,0.0,0.0,0.0,-1.6062,-1.6422,-1.6632,-1.6632,-1.6707,-1.6951,-1.6897,-1.6795,-1.6666,-1.6497,-1.6347,-1.6225,-1.5988,-1.5852,-1.5852,-1.5425,-1.5113,-1.4977,-1.4265,-1.3498,0.0,0.0,0.0,0.0,-1.0683,-1.0548,-1.05,-1.0649,-1.09,-1.126,-1.1663,-1.1934,-1.1944,-1.1014,-0.6246,0.0,0.0,0.0,0.0,0.0,0.0,-0.0356,-0.2099,-0.156,-0.0344,-0.204,-0.3895,-0.609,-0.9569,-1.1914,-1.3444,-1.341,-1.3437,-1.2266,-0.7813,-0.6016,-0.4369,-0.0833,-0.2822,-0.53,-0.53,-0.2428,0.0,0.0,0.0,0.0,0.0,0.0,0.0,0.0,0.0,0.0,-1.0012,0.0,-0.9473,-0.9401,-0.949,-0.9544,-0.9517,-0.9652,-0.9686,-0.9564,-0.9815,-1.0039,-1.0222,-1.0833,-1.1436,-1.2006,-1.2338,-1.2725,-1.3173,-1.3173,-1.322,-1.3308,-1.337,-1.3498,-1.3675,-1.379,-1.4014,-1.4299,-1.4299,-1.4299,-1.4299,-1.4299,-1.4299,-1.4299,-1.4299,-1.4299,-1.4326,-1.2713,0.0,-1.3797,0.0,-1.5059,-1.5276,-1.6171,-1.6395,-1.653,-1.672,-1.6666,-1.6707,-1.6951,-1.6883,-1.6802,-1.6754,-1.6558,-1.6422,-1.6374,-1.613,-1.5988,-1.5988,-1.5594,0.0,-1.5106,-1.4597,-1.3926,-1.3091,-1.2617,0.0,0.0,-1.0928,-1.0778,-1.0833,-1.0982,-1.1294,-1.1762,-1.1939,-1.1456,-1.049,-1.2588,-0.8074,0.0,0.0,0.0,0.0,0.0,0.0,0.0,0.0,0.0,0.0,0.0,0.0,-0.0851,-0.5036,-0.9726,-1.3471,-1.3431,-1.3464,-1.2291,-0.7805,-0.3338,0.0,0.0,0.0,0.0,0.0,0.0,0.0,0.0,0.0,0.0,0.0,0.0,0.0,0.0,-0.8766,0.0,-0.9148,-0.9379,-0.9479,-0.9401,-0.9503,-0.9564,-0.9544,-0.9713,-0.9727,-0.9523,-0.9849,-1.0073,-1.0114,-1.0799,-1.1355,-1.1762,-1.2169,-1.2596,-1.3044,-1.3085,-1.3186,-1.3336,-1.3424,-1.3627,-1.3905,-1.3905,-1.4055,-1.4299,-1.4299,-1.4299,-1.4299,-1.4299,-1.4299,-1.4299,-1.4299,-1.4299,-1.4333,-1.2761,-1.3985,-1.4584,-1.5499,-1.5872,-1.6117,-1.6286,-1.6313,-1.6415,-1.6714,-1.6788,-1.6856,-1.6971,-1.6978,-1.6917,-1.6761,-1.6748,-1.668,-1.653,-1.6381,-1.6307,0.0,0.0,-1.571,-1.5411,-1.5113,-1.4448,-1.3397,0.0,0.0,-1.1613,-1.1457,-1.1463,-1.1613,-1.1755,-1.2067,-1.2508,-1.2529,-1.0154,-0.6752,-1.1502,-0.7937,0.0,0.0,0.0,0.0,0.0,0.0,0.0,0.0,0.0,0.0,0.0,0.0,-0.0,-0.0168,-0.6389,-1.3372,-1.3471,-1.3331,-1.234,-0.7885,-0.3357,0.0,0.0,0.0,0.0,0.0,0.0,0.0,0.0,0.0,0.0,0.0,0.0,0.0,0.0,-0.345,0.0,-0.6789,-0.8705,-0.9935,-0.9442,-0.9781,-0.9856,-0.9415,-0.9652,-0.9822,-0.9815,-0.9964,-1.012,-1.0276,-1.0853,-1.1307,-1.1619,-1.1918,-1.2291,-1.2739,-1.2888,-1.3037,-1.3186,-1.3492,-1.379,-1.4068,-1.4068,-1.4156,-1.4299,-1.4299,-1.4299,-1.4299,-1.4299,-1.4299,-1.4299,-1.4299,-1.4299,-1.4299,-0.4056,-1.0069,-1.5013,-1.5737,-1.5967,-1.6164,-1.6415,-1.6571,-1.672,-1.6883,-1.6937,-1.6971,-1.6978,-1.6998,-1.6985,0.0,-1.6809,-1.6686,0.0,-1.6476,-1.6368,-1.6164,-1.6062,-1.5872,-1.5574,-1.5371,-1.4903,-1.4156,0.0,0.0,-1.2074,-1.2026,-1.2026,-1.2088,-1.2332,-1.2487,-1.2695,-1.2958,-1.2264,-1.075,-0.6201,-0.2498,0.0,0.0,0.0,0.0,0.0,0.0,0.0,0.0,0.0,0.0,0.0,0.0,0.0,0.0,-0.2058,-0.5145,-0.9417,-1.1974,-1.2264,-0.7897,-0.3353,0.0,0.0,0.0,0.0,0.0,0.0,0.0,0.0,0.0,0.0,0.0,0.0,0.0,0.0,-0.1039,-0.2787,-0.5225,-0.8077,-0.9754,-0.9415,-0.9605,-0.9693,-0.9551,-0.9713,-0.9822,-0.9822,-1.0066,-1.0324,-1.0575,-1.1056,-1.1463,-1.1762,-1.2162,-1.2542,-1.2888,-1.3037,-1.3234,-1.3485,-1.3587,-1.379,-1.4075,-1.4075,-1.4156,-1.4299,-1.4299,-1.4299,-1.4299,-1.4299,-1.4299,-1.4299,-1.4299,-1.4299,-1.4312,0.0,-0.517,-1.0859,-1.5196,-1.6144,-1.6307,-1.6659,-1.6775,-1.6223,-1.5042,-1.6163,-1.7039,-1.6985,-1.7026,0.0,-1.6985,-1.6836,-1.6707,-1.6612,-1.6503,-1.6368,-1.6191,-1.613,-1.5995,-1.5771,-1.5801,0.0,-1.4794,-1.4156,-1.3505,-1.2868,-1.2698,-1.2684,-1.28,-1.2983,-1.3083,-1.3069,-1.1612,-1.1992,-1.2869,-0.3759,0.0,0.0,0.0,0.0,0.0,0.0,0.0,0.0,0.0,0.0,0.0,0.0,0.0,0.0,0.0,0.0,-0.1213,-0.6915,-1.1058,-1.3088,-0.9993,-0.4551,0.0,0.0,0.0,0.0,0.0,0.0,0.0,0.0,0.0,0.0,0.0,0.0,0.0,0.0,0.0,-0.075,-0.2796,-0.7001,-0.9741,-0.9666,-0.9836,-0.9883,-0.97,-0.9876,-0.9964,-0.991,-1.0148,-1.0419,-1.0711,-1.1158,-1.1531,-1.183,-1.2277,-1.2657,-1.2963,-1.3166,-1.3417,-1.3709,-1.3709,-1.3871,-1.4156,-1.4156,-1.4211,-1.4299,-1.4299,-1.4299,-1.4299,-1.4299,-1.4299,-1.4299,-1.4299,-1.4299,-1.4312,0.0,0.0,-0.316,-1.3206,-1.576,-1.6537,-1.6958,-1.6917,-1.5388,-1.1849,-1.4686,-1.7073,-1.6992,-1.7046,-1.7066,-1.6992,0.0,0.0,-1.6754,-1.6497,-1.6354,-1.6368,-1.5817,-1.5492,-1.5585,-1.5616,-1.5574,-1.5465,-1.4367,-1.3905,-1.3878,-1.3458,-1.341,-1.3675,-1.3675,-1.3851,-1.3779,-0.8807,-0.9238,-1.2448,-0.359,0.0,0.0,0.0,0.0,0.0,0.0,0.0,0.0,0.0,0.0,0.0,0.0,0.0,0.0,0.0,0.0,-0.1045,-0.5727,-1.0625,-1.4146,-1.3586,-0.6649,0.0,0.0,0.0,0.0,0.0,0.0,0.0,0.0,0.0,0.0,0.0,0.0,0.0,0.0,0.0,0.0,0.0,-0.5445,-0.9252,-0.9731,-1.0088,-1.0196,-0.989,-1.0107,-1.0209,-1.0086,-1.0229,-1.0453,-1.0758,-1.1192,-1.1565,-1.1877,-1.2311,-1.2684,-1.2996,-1.3281,-1.3566,-1.3838,-1.3851,-1.4021,-1.4299,-1.4299,-1.4299,-1.4299,-1.4299,-1.4299,-1.4299,-1.4299,-1.4299,-1.4299,-1.4299,-1.4299,-1.4299,0.0,0.0,-0.0803,-0.3456,-1.0741,-1.6574,-1.6681,-1.6795,-1.5555,-1.1863,-1.4686,-1.7073,-1.6992,-1.6998,-1.7012,-1.7019,-1.6985,-1.6917,-1.6809,-1.6734,-1.6605,-1.6212,-1.244,-1.0121,-0.9832,-1.0002,-1.1844,-1.5418,-1.4936,-1.4584,-1.4353,-1.4245,-1.4177,-1.4143,-1.4143,-1.4217,-1.3971,-0.9091,-0.5536,-0.3231,-0.0897,0.0,0.0,0.0,0.0,0.0,0.0,0.0,0.0,0.0,0.0,0.0,0.0,0.0,0.0,0.0,0.0,-0.1068,-0.5856,-1.0615,-1.4297,-1.4041,-0.7066,0.0,0.0,0.0,0.0,0.0,0.0,0.0,0.0,0.0,0.0,0.0,0.0,0.0,0.0,0.0,0.0,0.0,-0.1386,-0.3297,-0.5874,-0.854,-1.0195,-1.0202,-1.0141,-1.0188,-1.0378,-1.0534,-1.0806,-1.1219,-1.1552,-1.1925,-1.2338,-1.2684,-1.3003,-1.3302,-1.3485,-1.3668,-1.3844,-1.3966,-1.4122,-1.4299,-1.4299,-1.4299,-1.4299,-1.4299,-1.4299,-1.4299,-1.4299,-1.4299,-1.4299,-1.4299,-1.4299,-1.4299,0.0,0.0,0.0,0.0,-0.4996,-1.0726,-1.592,-1.6889,-1.4326,-0.6997,-1.255,-1.708,-1.7012,-1.7005,-1.7005,-1.7005,-1.6965,-1.6883,-1.6754,-1.4341,-1.382,-1.5949,-1.3447,-0.9528,-0.443,-0.6843,-1.0546,-1.5567,-1.5228,-1.495,-1.4719,-1.4577,-1.4509,-1.4496,-1.436,-1.4236,-1.4036,-0.9165,-0.4305,0.0,0.0,0.0,0.0,0.0,0.0,0.0,0.0,0.0,0.0,0.0,0.0,0.0,0.0,0.0,0.0,0.0,-0.1616,-0.3769,-0.6439,-1.0707,-1.4258,-1.4352,-0.8692,-0.2572,-0.0514,0.0,0.0,0.0,0.0,0.0,0.0,0.0,0.0,0.0,0.0,0.0,0.0,0.0,0.0,0.0,0.0,-0.0644,-0.2462,-0.5831,-0.857,-1.0283,-1.0378,-1.0426,-1.0588,-1.0873,-1.1138,-1.1382,-1.1748,-1.2121,-1.2501,-1.2868,-1.3207,-1.3505,-1.3587,-1.3743,-1.3946,-1.4034,-1.4156,-1.4299,-1.4299,-1.4299,-1.4299,-1.4299,-1.4299,-1.4299,-1.4299,-1.4299,-1.4299,-1.4299,-1.4299,-1.4299,0.0,0.0,0.0,0.0,0.0,-0.3162,-1.303,-1.4349,-1.0887,-0.1275,-0.9144,-1.5997,-1.6822,-1.7026,-1.7019,-1.6998,-1.6917,-1.6392,-1.566,-1.1759,-1.0635,-1.3441,-1.3621,-0.9314,-0.0202,-0.443,-0.9778,-1.5549,-1.5391,-1.5153,-1.5004,-1.4719,-1.4638,-1.4726,-1.4475,-1.435,-1.4042,-0.923,-0.4328,0.0,0.0,0.0,0.0,0.0,0.0,0.0,0.0,0.0,0.0,0.0,0.0,0.0,0.0,0.0,0.0,0.0,-0.3414,-0.7011,-0.7156,-1.057,-1.436,-1.4245,-1.0524,-0.554,-0.1033,0.0,0.0,0.0,0.0,0.0,0.0,0.0,0.0,0.0,0.0,0.0,0.0,0.0,0.0,0.0,0.0,0.0,0.0,-0.2809,-0.6297,-1.0254,-1.0585,-1.0778,-1.0819,-1.1206,-1.1457,-1.1525,-1.1918,-1.2284,-1.2603,-1.303,-1.337,-1.3627,-1.3675,-1.3824,-1.4075,-1.4095,-1.4177,-1.4299,-1.4299,-1.4299,-1.4299,-1.4299,-1.4299,-1.4299,-1.4299,-1.4299,-1.4299,-1.4299,-1.4299,-1.4299,0.0,0.0,0.0,0.0,0.0,-0.0638,-0.2343,-0.2557,-0.1917,-0.0213,-0.5731,-1.1685,-1.6387,-1.7005,-1.7012,-1.708,-1.7066,-1.4885,-1.0155,-1.3493,-1.1711,-0.2895,-0.2462,-0.1629,-0.0,-0.08,-0.6164,-1.5995,-1.5408,-1.5154,-1.5201,-1.4997,-1.4841,-1.474,-1.4692,-1.4484,-1.3926,-0.916,-0.4365,0.0,0.0,0.0,0.0,0.0,0.0,0.0,0.0,0.0,0.0,0.0,0.0,0.0,0.0,0.0,0.0,0.0,-0.3414,-0.7011,-0.7156,-1.0545,-1.4326,-1.436,-1.0641,-0.5788,-0.1054,0.0,0.0,0.0,0.0,0.0,0.0,0.0,0.0,0.0,0.0,0.0,0.0,0.0,0.0,0.0,0.0,0.0,0.0,-0.055,-0.37,-1.0567,-1.0879,-1.0906,-1.1274,-1.1477,-1.1755,-1.2142,-1.2332,-1.2637,-1.3064,-1.3397,-1.358,-1.3634,-1.3885,-1.4027,-1.4075,-1.4204,-1.4278,-1.4299,-1.4299,-1.4299,-1.4299,-1.4299,-1.4299,-1.4299,-1.4299,-1.4299,-1.4299,-1.4299,-1.4299,-1.4299,0.0,0.0,0.0,0.0,0.0,0.0,0.0,0.0,0.0,0.0,-0.4882,-1.0619,-1.6419,-1.7019,-1.7005,-1.706,-1.4269,-1.2565,-1.3015,-0.9733,-0.545,-0.0208,0.0,0.0,0.0,0.0,-0.2394,-0.7361,-1.0037,-1.2648,-1.5207,-1.5208,-1.5086,-1.5004,-1.4821,-1.4651,-1.4414,-0.9249,-0.4416,0.0,0.0,0.0,0.0,0.0,0.0,0.0,0.0,0.0,0.0,0.0,0.0,0.0,0.0,0.0,0.0,0.0,-0.3407,-0.771,-1.0218,-1.2544,-1.434,-1.4216,-1.2544,-0.9074,-0.1591,0.0,0.0,0.0,0.0,0.0,0.0,0.0,0.0,0.0,0.0,0.0,0.0,0.0,0.0,0.0,0.0,0.0,0.0,0.0,-0.1414,-0.4947,-0.8786,-1.0992,-1.1259,-1.1557,-1.1848,-1.2139,-1.2561,-1.3003,-1.3295,-1.3519,-1.3668,-1.3743,-1.3966,-1.4116,-1.4197,-1.4272,-1.4299,-1.4299,-1.4299,-1.4299,-1.4299,-1.4299,-1.4299,-1.4299,-1.4299,-1.4299,-1.4299,-1.4299,-1.4299,-1.4312,0.0,0.0,0.0,0.0,0.0,0.0,0.0,0.0,0.0,0.0,-0.4886,-1.0623,-1.6446,-1.7026,-1.6998,-1.7046,-1.1892,-1.0852,-1.653,-0.6361,0.0,0.0,0.0,0.0,0.0,0.0,0.0,-0.0,-0.4174,-0.8074,-1.1681,-1.3257,-1.4519,-1.51,-1.4991,-1.5004,-1.4851,-1.0669,-0.5587,0.0,0.0,0.0,0.0,0.0,0.0,0.0,0.0,0.0,0.0,0.0,0.0,0.0,0.0,0.0,0.0,0.0,-0.2507,-0.6793,-1.2758,-1.4387,-1.4004,-1.293,-1.3515,-1.1872,-0.2132,0.0,0.0,0.0,0.0,0.0,0.0,0.0,0.0,0.0,0.0,0.0,0.0,0.0,0.0,0.0,0.0,0.0,0.0,0.0,0.0,0.0,-0.6133,-0.9894,-0.9945,-1.0072,-1.0463,-1.0809,-1.2372,-1.3268,-1.3451,-1.36,-1.3749,-1.3899,-1.4055,-1.4183,-1.4299,-1.4299,-1.4299,-1.4299,-1.4299,-1.4299,-1.4299,-1.4299,-1.4299,-1.4299,-1.4299,-1.4299,-1.4299,-1.4299,-1.4319,-1.4367,0.0,0.0,0.0,0.0,0.0,0.0,0.0,0.0,0.0,0.0,-0.4886,-1.0623,-1.6446,-1.7026,-1.7012,-1.7087,-1.1694,-1.0861,-1.6563,-0.64,0.0,0.0,0.0,0.0,0.0,0.0,0.0,-0.0,-0.0401,-0.0793,-0.1188,-0.7559,-1.2117,-1.5241,-1.5093,-1.5167,-1.5106,-1.4864,-0.8864,0.0,0.0,0.0,0.0,0.0,0.0,0.0,0.0,0.0,0.0,0.0,0.0,0.0,0.0,0.0,0.0,0.0,-0.0179,-0.2504,-1.1849,-1.4222,-1.3299,-0.8765,-1.0957,-1.1715,-0.2151,0.0,0.0,0.0,0.0,0.0,0.0,0.0,0.0,0.0,0.0,0.0,0.0,0.0,0.0,0.0,0.0,0.0,0.0,0.0,0.0,0.0,-0.3915,-0.6243,-0.6217,-0.6237,-0.6346,-0.6721,-1.0874,-1.3177,-1.3607,-1.3756,-1.3905,-1.4055,-1.4211,-1.4292,-1.4299,-1.4299,-1.4299,-1.4299,-1.4299,-1.4299,-1.4299,-1.4299,-1.4299,-1.4299,-1.4299,-1.4299,-1.4299,-1.4299,-1.438,-1.4496,0.0,0.0,0.0,0.0,0.0,0.0,0.0,0.0,0.0,0.0,-0.4886,-1.0623,-1.6446,-1.7026,-1.7012,-1.7093,-1.1694,-0.7865,-0.6615,-0.2345,0.0,0.0,0.0,0.0,0.0,0.0,0.0,0.0,0.0,0.0,-0.0,-0.2559,-0.7991,-1.5109,-1.5254,-1.34,-1.0602,-1.3951,-0.9324,0.0,0.0,0.0,0.0,0.0,0.0,0.0,0.0,0.0,0.0,0.0,0.0,0.0,0.0,0.0,0.0,0.0,0.0,-0.0717,-0.4474,-0.9692,-1.3885,-1.2056,-0.8441,-0.4489,-0.0897,0.0,0.0,0.0,0.0,0.0,0.0,0.0,0.0,0.0,0.0,0.0,0.0,0.0,0.0,0.0,0.0,0.0,0.0,0.0,0.0,0.0,-0.1403,-0.2193,-0.2194,-0.4648,-0.622,-0.6337,-1.0786,-1.3432,-1.3661,-1.3783,-1.3919,-1.4075,-1.4224,-1.4299,-1.4299,-1.4299,-1.4299,-1.4299,-1.4299,-1.4299,-1.4299,-1.4299,-1.4299,-1.4299,-1.4299,-1.4299,-1.4312,-1.4401,-1.4468,-1.4536,0.0,0.0,0.0,0.0,0.0,0.0,0.0,0.0,0.0,0.0,-0.34,-0.8706,-1.6234,-1.7039,-1.7026,-1.7093,-1.1694,-0.6157,-0.0426,0.0,0.0,0.0,0.0,0.0,0.0,0.0,0.0,0.0,0.0,0.0,0.0,0.0,-0.3744,-1.0532,-1.3807,-1.3327,-0.9949,-1.0358,-0.6325,0.0,0.0,0.0,0.0,0.0,0.0,0.0,0.0,0.0,0.0,0.0,0.0,0.0,0.0,0.0,0.0,0.0,0.0,0.0,0.0,-0.4852,-1.0441,-1.3541,-0.7008,0.0,0.0,0.0,0.0,0.0,0.0,0.0,0.0,0.0,0.0,0.0,0.0,0.0,0.0,0.0,0.0,0.0,0.0,0.0,0.0,0.0,0.0,0.0,0.0,0.0,0.0,-0.28,-0.4369,-0.4394,-0.7525,-1.0693,-1.3502,-1.374,-1.384,-1.4163,-1.4265,-1.4312,-1.4299,-1.4299,-1.4299,-1.4299,-1.4299,-1.4299,-1.4299,-1.4299,-1.4299,-1.4299,-1.4299,-1.4299,-1.4319,-1.4462,-1.4543,-1.4618,0.0,0.0,0.0,0.0,0.0,0.0,0.0,0.0,0.0,0.0,0.0,-0.4248,-1.5586,-1.706,-1.7053,-1.71,-1.1694,-0.6157,-0.0426,0.0,0.0,0.0,0.0,0.0,0.0,0.0,0.0,0.0,0.0,0.0,0.0,0.0,0.0,-0.0397,-1.0555,-1.5188,-1.4597,-0.4256,0.0,0.0,0.0,0.0,0.0,0.0,0.0,0.0,0.0,0.0,0.0,0.0,0.0,0.0,0.0,0.0,0.0,0.0,0.0,0.0,0.0,0.0,-0.2333,-1.1894,-0.7008,0.0,0.0,0.0,0.0,0.0,0.0,0.0,0.0,0.0,0.0,0.0,0.0,0.0,0.0,0.0,0.0,0.0,0.0,0.0,0.0,0.0,0.0,0.0,0.0,0.0,0.0,0.0,0.0,0.0,0.0,-0.4359,-1.3142,-1.365,-1.3872,-1.4175,-1.4353,-1.4333,-1.4299,-1.4299,-1.4299,-1.4299,-1.4299,-1.4299,-1.4299,-1.4299,-1.4299,-1.4299,-1.4299,-1.4299,-1.4319,-1.4462,-1.4611,-1.476,0.0,0.0,0.0,0.0,0.0,0.0,0.0,0.0,0.0,0.0,0.0,-0.276,-1.02,-1.4674,-1.7053,-1.71,-1.1694,-0.6157,-0.0426,0.0,0.0,0.0,0.0,0.0,0.0,0.0,0.0,0.0,0.0,0.0,0.0,0.0,0.0,-0.0198,-0.3164,-0.8471,-1.4548,-0.4301,0.0,0.0,0.0,0.0,0.0,0.0,0.0,0.0,0.0,0.0,0.0,0.0,0.0,0.0,0.0,0.0,0.0,0.0,0.0,0.0,0.0,0.0,-0.0718,-0.359,-0.2154,0.0,0.0,0.0,0.0,0.0,0.0,0.0,0.0,0.0,0.0,0.0,0.0,0.0,0.0,0.0,0.0,0.0,0.0,0.0,0.0,0.0,0.0,0.0,0.0,0.0,0.0,0.0,0.0,0.0,0.0,-0.1232,-0.3887,-0.7227,-0.9554,-1.09,-1.3255,-1.4333,-1.4299,-1.4299,-1.4299,-1.4299,-1.4299,-1.4299,-1.4299,-1.4299,-1.4299,-1.4299,-1.4299,-1.4299,-1.4333,-1.4577,-1.4699,-1.4774,0.0,0.0,0.0,0.0,0.0,0.0,0.0,0.0,0.0,0.0,0.0,-0.2125,-0.7849,-1.3613,-1.7066,-1.7073,-0.9772,-0.3611,-0.0213,0.0,0.0,0.0,0.0,0.0,0.0,0.0,0.0,0.0,0.0,0.0,0.0,0.0,0.0,0.0,0.0,-0.3375,-0.8701,-0.2567,0.0,0.0,0.0,0.0,0.0,0.0,0.0,0.0,0.0,0.0,0.0,0.0,0.0,0.0,0.0,0.0,0.0,0.0,0.0,0.0,0.0,0.0,0.0,0.0,0.0,0.0,0.0,0.0,0.0,0.0,0.0,0.0,0.0,0.0,0.0,0.0,0.0,0.0,0.0,0.0,0.0,0.0,0.0,0.0,0.0,0.0,0.0,0.0,0.0,0.0,0.0,0.0,0.0,0.0,0.0,0.0,0.0,-0.2661,-0.5507,-0.8566,-1.2378,-1.436,-1.4299,-1.4312,-1.4312,-1.4299,-1.4299,-1.4299,-1.4299,-1.4299,-1.4299,-1.4299,-1.4299,-1.4299,-1.4333,-1.4631,-1.474,-1.478,0.0,0.0,0.0,0.0,0.0,0.0,0.0,0.0,0.0,0.0,-0.0426,-0.2766,-0.7852,-1.3629,-1.708,-1.7032,-0.6576,0.0,0.0,0.0,0.0,0.0,0.0,0.0,0.0,0.0,0.0,0.0,0.0,0.0,0.0,0.0,0.0,0.0,0.0,0.0,0.0,0.0,0.0,0.0,0.0,0.0,0.0,0.0,0.0,0.0,0.0,0.0,0.0,0.0,0.0,0.0,0.0,0.0,0.0,0.0,0.0,0.0,0.0,0.0,0.0,0.0,0.0,0.0,0.0,0.0,0.0,0.0,0.0,0.0,0.0,0.0,0.0,0.0,0.0,0.0,0.0,0.0,0.0,0.0,0.0,0.0,0.0,0.0,0.0,0.0,0.0,0.0,0.0,0.0,0.0,0.0,0.0,0.0,0.0,0.0,-0.233,-0.7149,-1.2056,-1.4222,-1.4306,-1.434,-1.4333,-1.4306,-1.4299,-1.4299,-1.4299,-1.4299,-1.4299,-1.4299,-1.4299,-1.4299,-1.4333,-1.4631,-1.474,-1.478,0.0,0.0,0.0,0.0,0.0,0.0,0.0,0.0,0.0,0.0,-0.3839,-0.7033,-0.8279,-1.3629,-1.708,-1.7032,-0.6576,0.0,0.0,0.0,0.0,0.0,0.0,0.0,0.0,0.0,0.0,0.0,0.0,0.0,0.0,0.0,0.0,0.0,0.0,0.0,0.0,0.0,0.0,0.0,0.0,0.0,0.0,0.0,0.0,0.0,0.0,0.0,0.0,0.0,0.0,0.0,0.0,0.0,0.0,0.0,0.0,0.0,0.0,0.0,0.0,0.0,0.0,0.0,0.0,0.0,0.0,0.0,0.0,0.0,0.0,0.0,0.0,0.0,0.0,0.0,0.0,0.0,0.0,0.0,0.0,0.0,0.0,0.0,0.0,0.0,0.0,0.0,0.0,0.0,0.0,0.0,0.0,0.0,0.0,0.0,-0.233,-0.7149,-1.2056,-1.4236,-1.434,-1.4346,-1.4346,-1.434,-1.4312,-1.4299,-1.4299,-1.4299,-1.4299,-1.4299,-1.4299,-1.4299,-1.4333,-1.4631,-1.474,-1.478,0.0,0.0,0.0,0.0,0.0,0.0,0.0,0.0,0.0,0.0,-0.4906,-0.8532,-0.8491,-1.3629,-1.7093,-1.7066,-0.913,-0.2974,-0.0213,0.0,0.0,0.0,0.0,0.0,0.0,0.0,0.0,0.0,0.0,0.0,0.0,0.0,0.0,0.0,0.0,0.0,0.0,0.0,0.0,0.0,0.0,0.0,0.0,0.0,0.0,0.0,0.0,0.0,0.0,0.0,0.0,0.0,0.0,0.0,0.0,0.0,0.0,0.0,0.0,0.0,0.0,0.0,0.0,0.0,0.0,0.0,0.0,0.0,0.0,0.0,0.0,0.0,0.0,0.0,0.0,0.0,0.0,0.0,0.0,0.0,0.0,0.0,0.0,0.0,0.0,0.0,0.0,0.0,0.0,0.0,0.0,0.0,0.0,0.0,0.0,0.0,-0.1254,-0.3753,-1.0983,-1.3158,-1.0916,-1.0916,-1.2177,-1.4346,-1.4312,-1.4299,-1.4299,-1.4299,-1.4299,-1.4299,-1.4299,-1.4299,-1.4326,-1.455,-1.4726,-1.4882,0.0,0.0,0.0,0.0,0.0,0.0,0.0,0.0,0.0,0.0,-0.4914,-0.8545,-0.8494,-1.3624,-1.7087,-1.71,-1.1694,-0.6157,-0.0426,0.0,0.0,0.0,0.0,0.0,0.0,0.0,0.0,0.0,0.0,0.0,0.0,0.0,0.0,0.0,0.0,0.0,0.0,0.0,0.0,0.0,0.0,0.0,0.0,0.0,0.0,0.0,0.0,0.0,0.0,0.0,0.0,0.0,0.0,0.0,0.0,0.0,0.0,0.0,0.0,0.0,0.0,0.0,0.0,0.0,0.0,0.0,0.0,0.0,0.0,0.0,0.0,0.0,0.0,0.0,0.0,0.0,0.0,0.0,0.0,0.0,0.0,0.0,0.0,0.0,0.0,0.0,0.0,0.0,0.0,0.0,0.0,0.0,0.0,0.0,0.0,0.0,0.0,-0.0179,-0.9729,-1.2269,-0.8413,-0.8405,-1.056,-1.436,-1.4319,-1.4299,-1.4299,-1.4299,-1.4299,-1.4299,-1.4299,-1.4299,-1.4319,-1.4489,-1.4746,-1.5025,0.0,0.0,0.0,0.0,0.0,0.0,0.0,0.0,0.0,0.0,-0.4939,-0.8603,-0.8498,-1.358,-1.7026,-1.7093,-1.1694,-0.6157,-0.0426,0.0,0.0,0.0,0.0,0.0,0.0,0.0,0.0,0.0,0.0,0.0,0.0,0.0,0.0,0.0,0.0,0.0,0.0,0.0,0.0,0.0,0.0,0.0,0.0,0.0,0.0,0.0,0.0,0.0,0.0,0.0,0.0,0.0,0.0,0.0,0.0,0.0,0.0,0.0,0.0,0.0,0.0,0.0,0.0,0.0,0.0,0.0,0.0,0.0,0.0,0.0,0.0,0.0,0.0,0.0,0.0,0.0,0.0,0.0,0.0,0.0,0.0,0.0,0.0,0.0,0.0,0.0,0.0,0.0,0.0,0.0,0.0,0.0,0.0,0.0,0.0,0.0,0.0,-0.0179,-0.9738,-1.3938,-1.3343,-1.3293,-1.3642,-1.4216,-1.4326,-1.4299,-1.4299,-1.4299,-1.4299,-1.4299,-1.4299,-1.4299,-1.4333,-1.4611,-1.4896,-1.5153,0.0,0.0,0.0,0.0,0.0,0.0,0.0,0.0,0.0,0.0,-0.2155,-0.6253,-1.2472,-1.5399,-1.7073,-1.6922,-1.4745,-0.9375,-0.0639,0.0,0.0,0.0,0.0,0.0,0.0,0.0,0.0,0.0,0.0,0.0,0.0,0.0,0.0,0.0,0.0,0.0,0.0,0.0,0.0,0.0,0.0,0.0,0.0,0.0,0.0,0.0,0.0,0.0,0.0,0.0,0.0,0.0,0.0,0.0,0.0,0.0,0.0,0.0,0.0,0.0,0.0,0.0,0.0,0.0,0.0,0.0,0.0,0.0,0.0,0.0,0.0,0.0,0.0,0.0,0.0,0.0,0.0,0.0,0.0,0.0,0.0,0.0,0.0,0.0,0.0,0.0,0.0,0.0,0.0,0.0,0.0,0.0,0.0,0.0,0.0,0.0,0.0,-0.0,-0.4307,-0.9169,-1.4269,-1.1482,-1.1821,-1.4373,-1.4319,-1.4299,-1.4299,-1.4299,-1.4299,-1.4306,-1.4387,-1.4468,-1.457,-1.4787,-1.495,-1.5072]}]]